GFSSGP_850_temp_000.txt.gz
Temp
19 20 20 20 22 23 23 24 23 24 25 24 23 23 25 25 27 26 23 22 22 21 19 18 16 15 15 16 15 15 14 14 13 13 12 12 12 11 11 12 12 11 11 12 12 12 11 12 12
19 20 20 20 22 23 24 24 23 24 23 22 23 23 24 27 24 22 22 22 22 21 19 16 15 15 15 15 15 14 14 13 13 13 12 12 12 12 11 11 11 12 12 12 12 12 11 12 11
19 20 21 21 20 22 23 23 23 22 22 22 24 23 25 26 23 22 23 22 21 21 20 18 16 15 15 15 15 14 14 13 13 13 12 12 13 12 12 11 11 12 12 12 12 12 11 11 11
18 19 19 22 21 21 21 22 22 22 23 22 23 26 23 24 22 23 22 22 21 20 19 19 16 16 15 15 14 14 13 13 13 13 13 13 13 13 12 12 11 12 12 12 12 12 12 11 11
18 19 21 21 21 21 23 22 21 22 23 23 22 26 25 23 23 23 22 22 21 20 19 18 16 15 15 15 14 14 13 12 12 13 12 12 13 13 13 12 11 11 11 12 11 10 11 11 12
20 19 21 21 21 21 22 21 21 22 22 22 23 23 24 22 22 22 22 22 21 19 19 17 16 15 15 15 14 14 13 13 12 13 12 12 13 13 13 13 12 11 11 11 10 10 11 11 10
19 20 20 20 20 21 22 20 22 21 22 23 21 24 24 22 22 21 22 22 21 20 19 17 15 15 15 14 14 13 14 13 12 12 13 12 12 13 13 12 11 11 11 11 11 10 11 11 11
18 20 19 20 21 20 21 20 20 21 22 20 21 24 25 21 21 21 21 21 21 20 19 18 15 14 14 14 15 14 13 13 14 14 14 14 14 14 13 13 12 13 12 13 13 13 12 12 11
16 19 19 20 19 21 20 21 20 19 20 21 21 21 21 21 21 21 21 21 21 21 20 19 17 14 14 14 14 15 14 14 15 15 15 15 13 13 14 14 14 14 14 14 14 14 14 13 13
18 19 19 20 21 21 20 20 20 20 21 22 22 21 20 20 20 21 19 18 20 21 21 20 19 17 15 15 14 13 13 13 13 14 14 14 13 13 15 14 14 14 14 14 14 14 14 14 12
18 18 20 19 19 19 19 20 19 19 21 22 21 22 21 20 20 20 20 19 18 20 21 20 19 18 17 17 15 14 15 15 15 15 15 15 15 14 14 14 14 14 14 14 13 13 12 12 12
17 18 19 19 18 18 19 19 19 20 20 20 20 20 19 20 20 21 21 21 21 21 20 20 20 19 18 17 17 16 16 16 16 16 15 15 15 14 14 14 14 14 13 12 13 12 12 12 12
17 19 18 18 18 18 18 18 20 19 20 20 20 19 19 19 20 21 22 22 21 21 20 20 20 19 19 18 17 17 16 16 16 15 15 14 14 14 14 13 13 13 12 13 12 12 12 12 12
17 18 18 19 18 18 18 19 18 20 21 20 20 19 18 20 21 20 21 21 21 21 21 20 20 20 19 19 18 17 17 16 15 15 15 14 14 14 14 14 13 13 12 13 13 13 13 13 12
18 17 18 19 18 19 18 19 20 20 19 19 19 18 17 19 18 19 20 20 20 20 20 21 21 21 20 19 18 17 17 16 15 15 15 14 14 14 14 14 14 12 12 13 12 12 12 11 11
17 17 17 20 19 19 18 19 22 19 20 20 18 17 16 16 17 18 19 19 19 19 20 20 21 21 19 18 17 17 16 16 15 15 14 14 14 14 14 14 12 13 13 12 11 11 11 11 11
16 17 17 19 19 19 19 20 22 19 19 20 20 17 16 15 15 17 18 18 18 18 19 20 19 19 18 17 17 16 16 15 15 14 14 14 14 14 13 13 13 13 12 11 11 10 10 11 10
16 17 18 18 19 18 19 19 21 20 19 20 19 17 16 15 15 16 17 17 17 18 19 19 19 18 17 16 16 16 15 14 14 14 13 13 13 13 13 12 12 12 12 11 11 10 10 10 10
18 18 18 19 19 18 19 20 20 21 19 19 18 17 16 15 14 15 16 16 17 18 18 18 18 17 16 15 15 14 14 13 13 13 13 12 12 12 12 12 12 12 11 11 10 9 9 9 9
18 17 18 20 18 18 19 19 20 22 20 19 18 17 16 14 13 14 15 16 17 17 17 17 17 16 16 15 14 14 13 13 13 12 12 12 12 12 12 11 11 11 10 10 10 9 8 8 8
17 17 18 18 17 17 17 20 20 18 17 15 17 16 15 14 13 13 15 15 16 16 16 16 16 16 15 14 13 13 13 12 12 12 12 11 11 11 11 11 10 10 10 9 8 7 6 6 6
16 18 17 16 15 17 18 19 20 21 18 17 16 15 14 13 13 12 13 14 15 15 15 15 14 14 14 13 13 13 12 12 12 11 11 11 11 11 10 10 9 9 8 8 8 7 6 5 5
17 17 17 16 16 16 18 18 21 18 18 17 16 15 14 13 12 11 13 14 14 14 14 14 14 13 13 13 13 12 12 11 11 11 11 10 10 10 10 9 8 8 8 7 7 6 6 4 4
16 16 15 16 16 16 19 18 21 21 20 18 16 15 13 12 12 11 13 14 14 14 13 13 13 13 12 12 12 12 11 11 11 10 10 10 9 9 9 8 8 7 7 6 6 5 5 5 4
16 15 12 13 14 17 16 16 21 20 18 19 17 15 14 12 11 11 12 13 13 13 13 12 12 12 12 12 12 11 11 11 10 10 10 10 9 8 8 7 7 6 6 5 5 5 4 3 3
14 17 17 16 17 18 14 17 21 19 17 17 17 16 14 12 12 11 11 12 12 12 12 12 12 12 12 11 11 11 10 10 10 9 9 8 8 7 6 6 5 5 5 4 4 4 3 2 1
11 13 17 16 15 17 19 19 20 18 17 16 16 15 14 13 11 11 11 11 11 11 11 11 11 11 11 11 10 10 9 9 8 8 8 7 6 6 5 5 5 4 4 4 3 3 2 1 0
14 16 14 15 16 16 18 18 20 20 19 16 16 15 14 12 11 10 10 10 11 11 10 10 10 10 10 10 9 9 8 8 7 7 7 6 5 5 4 4 4 3 3 3 2 1 1 -0 -1
15 13 14 17 16 18 18 19 20 19 18 18 17 16 14 12 11 10 9 10 10 10 10 9 9 9 9 9 8 8 7 7 7 6 5 5 4 4 3 3 3 2 2 2 1 1 -0 -2 -2
16 16 16 16 14 16 17 19 18 18 16 15 16 15 13 12 11 10 9 10 10 9 9 9 9 8 8 8 7 7 6 6 6 5 5 4 3 3 2 2 2 2 1 1 1 -1 -2 -2 -2

GFSSGP_850_temp_003.txt.gz
Temp
19 20 21 20 23 24 25 26 26 26 26 25 25 25 26 27 28 26 21 20 20 18 17 18 16 15 15 15 15 15 14 14 13 13 12 12 12 12 12 12 12 11 11 12 12 12 12 12 12
19 20 20 21 22 24 25 27 25 26 25 25 25 25 26 28 26 23 22 21 20 18 17 16 16 15 15 15 15 15 14 14 13 13 12 12 13 13 12 12 11 11 11 12 12 13 12 12 11
18 19 21 23 22 22 24 25 25 24 25 25 25 26 27 27 25 24 21 22 19 18 17 16 16 15 15 15 14 14 14 14 13 13 12 13 13 13 13 12 11 11 11 11 12 13 13 12 11
19 21 22 22 23 24 23 24 24 24 25 25 25 26 26 22 23 21 20 21 19 18 17 19 15 15 15 15 14 14 14 13 13 13 13 13 13 13 13 12 12 11 11 12 12 12 12 12 12
20 21 22 22 23 23 25 25 23 23 24 24 24 26 26 22 21 20 19 19 19 18 17 19 17 16 15 15 14 14 13 13 13 13 13 12 13 13 13 13 12 11 11 11 12 12 11 11 11
20 21 21 22 23 24 24 24 23 24 24 24 24 24 24 22 21 20 19 19 19 18 17 17 18 16 15 15 14 14 14 13 13 13 13 13 13 13 13 13 12 11 11 11 12 12 11 11 12
20 21 21 22 23 23 24 23 24 24 24 25 23 25 25 22 20 21 19 19 18 18 18 16 18 17 16 15 14 14 14 13 13 13 14 14 13 13 13 13 13 12 12 12 13 14 14 13 13
19 21 20 22 22 22 24 23 23 22 23 23 23 25 26 22 20 21 19 18 18 18 18 17 16 15 15 14 15 14 13 13 14 14 15 15 14 14 14 13 14 14 14 14 14 14 14 14 14
18 19 20 21 22 22 23 23 22 22 22 22 23 23 23 21 20 20 18 18 17 18 18 17 17 16 16 15 15 15 15 14 15 15 15 16 15 13 13 14 15 15 15 14 14 15 15 15 15
18 19 20 23 23 23 23 22 22 22 23 23 24 24 23 22 22 21 21 21 19 18 17 16 17 16 15 15 15 14 14 13 14 13 13 13 13 13 15 15 15 15 15 15 15 15 15 15 15
19 19 22 22 22 21 22 21 21 22 22 23 23 23 23 22 22 22 22 22 21 19 18 17 16 16 16 15 15 15 14 14 14 14 13 13 14 13 13 13 13 14 14 14 13 13 13 12 12
19 20 20 21 21 20 21 21 21 21 22 22 22 22 22 21 22 22 22 22 21 19 18 17 18 18 16 15 15 15 15 14 14 14 13 13 13 13 13 13 12 13 12 12 12 12 12 12 12
18 20 20 20 21 20 20 20 21 21 21 22 22 22 22 21 22 22 21 20 20 19 18 17 17 16 16 16 15 15 15 14 14 14 13 13 13 13 13 13 13 13 13 13 13 12 13 13 13
18 19 20 20 20 20 20 21 21 21 21 22 22 22 21 22 20 19 20 20 19 19 17 17 17 16 15 15 15 14 14 14 14 13 13 13 13 13 13 13 13 13 13 12 12 12 12 12 12
18 18 20 20 20 21 20 20 21 21 22 21 21 22 21 19 18 18 17 17 17 17 18 19 20 18 15 15 14 14 14 14 13 13 13 13 13 12 12 12 12 12 12 12 12 12 12 12 12
17 16 16 19 21 21 20 19 22 23 22 22 21 21 19 17 17 16 15 16 17 17 18 20 20 19 15 15 14 14 14 13 13 12 12 12 12 13 12 12 11 11 11 11 11 11 11 11 11
14 15 16 18 21 21 20 20 23 22 21 22 22 22 20 18 16 15 15 16 17 18 18 19 18 16 14 14 14 13 13 13 12 12 12 11 12 12 11 11 12 11 11 11 11 11 10 10 11
14 15 18 17 21 21 20 20 22 22 22 22 22 22 19 18 16 15 14 15 16 16 17 17 16 15 14 13 13 13 12 12 12 12 12 12 12 12 12 12 12 12 10 10 10 9 9 9 9
16 16 18 19 21 21 20 20 22 22 22 22 22 21 19 17 15 14 15 15 15 15 15 15 14 14 14 14 13 12 11 11 13 13 12 12 12 12 12 11 11 11 10 9 9 8 8 8 8
15 17 19 19 20 20 20 20 22 22 22 22 22 21 19 16 15 14 14 15 14 14 15 14 14 13 13 13 12 11 11 11 12 12 12 12 11 11 11 11 10 10 9 8 8 7 7 7 7
16 16 17 18 20 19 19 19 20 22 22 20 21 20 18 17 15 15 14 14 13 15 16 16 15 15 14 13 13 12 11 10 11 11 11 11 11 11 10 10 9 9 8 7 7 6 6 5 6
13 16 19 19 18 18 20 20 23 22 20 20 20 19 18 16 16 15 14 13 13 15 15 15 15 14 12 12 12 12 11 12 12 11 11 10 11 10 10 9 8 8 7 7 6 6 5 5 5
13 16 19 18 18 17 18 19 22 23 21 20 20 19 17 16 15 14 13 12 14 14 14 14 14 13 13 13 13 13 12 12 11 10 10 10 9 9 9 8 8 7 7 6 6 6 5 4 4
14 16 16 18 18 16 20 20 22 22 22 22 20 18 16 15 14 13 12 12 13 14 14 13 13 13 13 13 12 12 12 11 11 11 10 10 9 9 9 8 7 7 6 6 5 5 4 3 3
13 13 14 15 16 18 21 20 22 22 22 22 20 18 16 15 14 12 12 11 12 13 13 13 13 13 12 12 12 12 12 11 11 10 10 9 9 9 8 7 6 6 5 5 4 4 3 2 2
13 14 17 16 17 19 18 18 21 22 22 21 19 18 16 15 14 12 12 11 10 12 12 12 12 12 12 12 12 11 11 10 10 9 9 8 8 7 6 6 5 4 4 4 3 3 2 1 1
11 14 18 19 19 20 19 21 21 21 20 20 20 18 16 15 14 13 12 11 10 11 12 12 12 12 11 11 10 10 9 9 9 8 8 7 7 6 5 5 4 4 3 3 2 2 1 1 1
13 18 16 18 17 18 20 21 21 21 20 19 20 18 17 15 14 13 12 11 10 10 12 12 11 11 11 10 9 9 8 8 8 7 7 6 5 5 4 4 3 3 3 2 1 1 0 -0 -0
12 15 17 20 19 20 20 20 22 21 21 20 20 19 17 15 14 13 12 11 9 11 11 11 11 10 9 9 8 8 8 7 7 6 6 5 4 4 3 3 3 3 2 1 0 -0 -1 -1 -1
15 15 18 19 17 19 19 20 21 21 20 19 20 18 17 15 14 13 12 10 9 10 10 10 10 9 9 8 8 7 7 6 6 5 5 4 4 3 3 2 2 1 0 -0 -1 -1 -2 -2 -2

GFSSGP_850_temp_006.txt.gz
Temp
19 20 20 21 19 20 20 23 25 26 25 25 25 25 24 26 25 21 21 20 19 19 20 19 16 15 15 15 15 14 14 14 13 13 12 12 12 12 12 12 12 11 11 11 12 12 12 12 12
19 20 20 21 19 19 20 24 24 24 24 25 25 26 25 24 25 22 20 20 19 19 19 19 16 15 15 15 14 14 14 13 13 13 12 12 12 12 12 12 11 11 11 12 13 13 13 12 12
19 20 20 19 20 19 20 22 22 23 24 25 25 26 26 24 24 22 20 21 19 18 17 17 16 15 15 15 14 14 14 13 13 13 12 13 13 13 13 12 11 11 11 12 13 13 13 13 12
18 20 21 19 19 22 24 22 23 22 24 25 25 23 24 22 22 21 20 20 19 18 19 19 17 15 15 15 14 14 14 13 13 13 12 13 13 13 14 12 12 12 12 12 12 13 13 12 12
19 20 18 19 20 23 23 25 23 22 23 24 24 23 23 21 21 20 20 19 19 18 19 19 19 17 16 15 15 14 14 13 13 13 13 12 13 14 14 13 13 12 13 12 13 13 14 13 13
19 20 18 18 21 23 24 24 24 23 24 24 24 23 22 21 21 21 20 19 19 18 19 20 20 18 17 16 15 14 14 14 13 14 13 13 13 13 13 13 13 13 13 14 14 14 15 14 14
18 17 18 19 20 22 24 23 23 23 23 23 23 23 22 21 22 20 19 19 19 18 18 20 19 18 18 17 17 14 14 14 13 14 14 14 13 13 13 14 14 14 14 15 15 15 15 15 15
18 18 18 18 19 20 24 23 23 23 22 23 23 23 22 21 22 21 20 18 18 18 17 17 19 18 18 17 16 16 15 14 14 15 15 15 15 14 14 14 14 14 15 15 15 15 15 15 15
18 16 17 18 19 21 24 22 23 23 22 22 23 23 23 22 22 21 21 20 18 18 17 17 16 17 17 17 16 15 16 16 16 16 15 16 14 14 14 14 15 15 15 15 15 15 15 15 15
17 16 17 20 21 21 23 23 22 22 22 22 23 23 24 23 22 22 22 21 21 19 18 17 16 16 16 15 16 16 16 16 15 15 14 14 13 13 13 14 15 15 15 15 15 15 15 14 14
17 16 19 20 21 22 22 21 22 21 20 22 22 23 23 23 22 22 22 22 21 20 18 17 17 16 16 15 15 15 14 15 14 14 13 13 14 13 13 13 13 14 14 14 14 13 13 13 13
17 18 19 19 20 22 20 21 20 21 21 22 22 22 22 22 22 22 22 22 22 20 19 18 17 17 16 15 15 15 15 14 14 14 13 13 13 13 13 13 13 13 12 12 12 12 12 12 13
17 18 19 20 20 20 21 20 19 20 21 21 21 22 22 22 22 22 22 22 21 20 19 18 17 17 16 15 15 15 15 15 14 14 13 13 13 13 13 13 13 13 13 13 13 12 12 12 12
17 18 18 19 20 20 20 20 20 20 21 21 21 22 22 22 22 21 21 20 20 19 18 17 17 16 16 15 15 15 15 14 14 13 13 13 13 13 12 13 12 13 13 12 12 12 12 12 12
16 14 17 18 19 20 20 19 19 20 21 21 21 22 22 21 20 20 19 19 19 18 18 18 17 16 15 15 14 14 14 14 13 13 13 12 12 13 12 12 12 12 11 11 11 12 12 12 11
13 14 13 17 19 20 19 17 20 21 21 21 22 22 21 19 18 18 17 17 17 17 18 18 19 17 15 15 14 14 13 13 13 12 12 12 12 12 12 12 12 11 12 12 12 11 11 11 11
12 13 13 15 19 19 19 18 19 21 21 22 22 22 20 18 17 16 16 16 16 16 17 18 18 16 15 14 14 14 13 12 12 12 11 12 12 12 12 12 12 12 11 11 11 11 10 10 10
12 12 14 14 17 19 18 18 19 21 21 21 22 22 20 18 16 15 15 15 15 16 16 16 16 14 14 14 13 13 12 12 12 12 12 12 12 12 12 12 11 11 11 11 10 10 10 9 8
13 15 14 17 18 18 18 19 19 20 21 21 22 22 20 18 15 15 15 15 15 15 15 15 15 14 13 13 12 12 12 12 12 12 12 12 12 12 12 11 11 11 10 9 9 8 8 8 8
12 13 13 16 18 17 19 19 19 19 20 21 22 22 19 16 15 15 15 15 14 14 14 14 14 14 13 13 12 12 12 12 12 12 12 12 12 11 11 11 10 10 9 9 8 7 7 7 7
13 12 13 14 18 17 18 17 18 20 21 22 22 22 19 16 15 14 14 14 14 14 15 15 14 14 14 13 13 12 12 12 12 12 11 11 11 11 11 10 9 9 8 8 7 7 6 6 7
12 14 14 13 15 14 17 14 17 19 19 19 20 20 17 16 15 14 14 13 13 13 14 14 13 13 12 12 12 12 12 12 12 11 11 11 11 10 10 10 9 8 7 7 7 6 6 5 5
12 14 13 12 13 14 16 15 17 19 18 16 16 19 17 16 15 14 13 13 13 13 13 13 13 13 12 12 13 13 12 12 11 11 10 10 10 10 9 9 9 8 7 7 6 6 5 5 4
13 12 11 12 12 13 14 16 17 18 18 17 17 18 17 16 15 14 13 12 12 12 13 13 13 13 13 13 13 12 12 11 11 10 10 9 9 9 9 9 8 7 6 6 5 5 5 4 3
11 11 11 12 11 13 17 17 19 19 19 19 18 17 16 15 14 13 12 12 12 12 12 13 13 13 12 12 12 12 11 11 10 10 10 9 9 8 8 8 7 6 6 5 5 4 4 3 2
10 10 10 13 12 15 18 16 18 19 20 20 19 17 16 15 14 12 11 11 11 12 12 12 13 12 12 12 12 11 11 10 10 9 9 8 8 8 7 7 6 5 5 4 4 3 3 2 1
9 8 9 11 18 15 15 19 18 17 18 17 17 16 15 14 13 12 11 11 11 11 11 12 12 12 12 11 11 11 10 10 9 9 8 8 7 7 6 5 5 4 4 3 3 2 2 1 1
10 12 10 12 16 15 15 16 16 16 16 16 16 15 15 15 13 12 12 11 10 10 11 11 11 12 11 11 10 10 9 9 8 8 7 7 6 6 5 4 4 3 3 3 2 2 1 0 -0
10 10 11 13 16 16 15 16 17 17 17 16 16 16 15 15 13 13 12 11 10 10 10 11 11 11 10 10 10 9 8 8 7 7 6 6 5 4 4 3 3 3 3 2 2 1 0 -1 -2
12 13 13 16 15 16 15 16 17 17 17 16 17 17 16 15 14 13 12 11 10 10 10 10 10 10 10 9 9 8 7 7 6 6 5 5 4 3 3 3 3 2 2 2 1 -1 -2 -2 -3

GFSSGP_850_temp_009.txt.gz
Temp
19 20 20 20 17 15 18 20 23 20 22 24 25 24 23 23 23 20 19 20 21 20 20 18 16 16 16 15 15 14 14 14 13 13 11 12 12 12 11 12 11 11 12 12 13 12 12 12 12
19 20 20 20 16 16 17 20 19 20 23 24 25 25 24 22 22 20 20 20 20 20 20 19 16 16 15 15 15 15 14 14 14 12 11 12 12 12 11 11 11 11 12 12 13 13 13 13 13
19 19 19 16 15 17 18 21 21 22 24 24 24 25 24 21 21 20 20 20 20 20 19 19 17 16 15 15 14 15 15 14 14 13 12 13 12 13 13 12 12 12 13 13 14 14 14 14 14
18 19 20 16 16 18 19 21 22 22 23 24 24 22 22 21 22 21 20 19 20 20 20 19 18 17 16 15 15 15 15 14 14 14 12 12 13 13 14 13 12 12 13 14 15 15 15 15 14
18 18 15 16 16 18 20 23 23 22 22 23 24 22 21 20 21 20 20 19 20 20 19 19 19 18 16 15 15 15 15 15 14 14 13 13 13 13 14 13 13 13 14 14 15 15 14 14 14
17 17 14 14 16 18 20 24 23 22 23 23 23 22 20 20 20 20 19 19 19 19 19 19 19 18 17 16 16 15 15 14 14 14 13 13 13 13 14 13 14 14 14 14 14 14 14 14 14
15 13 14 15 16 17 21 23 22 22 21 22 23 21 20 21 21 20 19 19 19 19 19 19 19 18 17 18 17 16 15 15 14 14 15 15 14 13 14 14 14 14 14 14 14 14 14 14 15
16 13 14 14 16 17 20 22 23 22 21 22 23 20 20 21 22 21 20 19 19 18 19 18 18 18 18 18 17 16 16 15 15 15 15 15 15 14 14 15 14 14 14 14 14 14 14 14 14
15 13 14 15 16 18 20 21 22 22 22 22 22 22 23 23 22 22 21 20 19 18 19 18 18 18 18 17 17 16 16 16 15 16 15 15 14 14 14 14 14 14 14 14 14 14 14 13 13
14 12 14 16 17 18 19 20 22 22 21 21 22 22 22 22 22 22 21 21 21 20 19 18 17 17 17 16 16 16 16 15 15 15 15 14 14 14 14 14 13 13 13 14 13 13 13 13 13
14 14 15 17 18 19 19 20 21 20 19 21 21 22 21 22 22 22 22 22 22 21 20 19 17 16 17 16 16 16 15 15 15 14 14 14 13 13 13 13 13 13 13 13 13 13 13 13 13
13 15 16 17 18 17 17 20 19 20 20 21 21 21 21 21 22 22 22 22 22 21 20 19 18 16 16 15 15 15 15 14 14 14 14 13 13 13 13 12 12 12 13 14 13 13 12 12 12
12 15 16 17 17 18 18 18 18 19 20 20 20 21 21 21 22 22 22 21 22 21 20 19 18 17 16 15 15 15 15 14 14 14 13 13 13 12 12 12 13 13 13 13 13 13 12 12 12
14 14 15 17 17 18 18 18 19 20 20 20 20 20 21 21 22 22 21 21 21 20 20 19 18 17 16 15 15 15 14 14 14 13 13 13 13 12 12 12 13 13 12 12 12 12 12 12 12
13 13 14 15 17 16 17 17 17 20 20 20 20 20 21 21 21 21 21 21 20 19 19 18 17 17 16 15 14 14 14 14 13 13 13 12 12 12 12 12 12 12 11 12 12 12 12 12 12
11 12 12 15 15 17 17 16 17 20 20 20 20 20 20 20 20 20 20 19 19 18 18 17 17 16 15 15 14 14 14 13 13 13 12 12 12 12 11 11 12 12 12 12 12 12 12 11 11
9 11 11 13 15 16 17 16 17 20 20 19 20 20 20 20 19 19 18 18 18 18 18 18 17 16 15 14 14 14 13 12 12 12 12 12 11 12 12 12 12 12 12 12 11 11 10 10 10
11 10 12 12 14 15 15 16 16 20 19 19 20 21 19 19 18 17 17 16 16 16 17 17 17 15 15 14 14 13 13 12 11 12 12 12 12 12 12 12 12 11 11 11 10 10 9 8 8
10 11 13 13 14 15 15 15 17 18 18 18 19 19 17 17 16 16 15 15 15 15 15 15 15 14 14 14 13 13 12 12 12 12 12 12 12 12 12 11 11 11 10 9 9 8 8 8 8
10 9 9 11 13 13 14 15 17 17 18 18 19 17 17 16 15 15 14 14 14 14 14 14 14 14 14 13 13 13 12 12 12 12 12 12 11 11 11 11 10 10 9 8 8 7 7 7 6
9 9 9 10 13 13 13 14 15 17 18 20 20 20 17 18 16 15 14 14 14 14 13 13 13 13 13 13 13 12 12 12 12 12 12 11 11 11 10 10 10 9 8 8 7 7 6 6 6
9 11 12 12 12 12 14 14 15 17 16 16 18 17 15 16 15 14 14 14 13 13 13 13 13 13 13 13 13 13 14 13 12 12 11 11 11 10 10 9 9 8 8 7 7 6 6 5 5
9 11 11 12 11 11 12 12 15 16 17 16 12 14 15 16 15 14 14 13 13 13 13 13 13 13 13 13 13 13 12 12 12 11 11 11 10 9 9 9 8 8 7 6 6 6 6 5 4
11 9 10 11 11 10 11 11 14 16 17 18 13 14 14 15 14 14 13 12 12 12 12 12 13 12 12 12 12 12 12 12 11 10 10 9 9 8 8 8 7 7 6 6 6 5 5 4 4
8 8 9 9 9 11 13 10 12 15 17 18 14 14 14 14 14 13 13 12 12 12 12 12 13 12 12 12 12 12 12 11 10 9 9 8 8 8 8 7 7 6 5 5 5 5 4 4 3
7 8 9 9 10 12 12 10 16 17 17 18 15 14 14 14 13 13 13 12 12 12 12 13 13 13 12 12 12 11 11 10 9 9 8 8 8 8 7 7 6 5 5 4 4 4 3 3 2
8 8 10 9 11 12 11 12 13 15 15 14 14 13 12 12 13 13 12 12 11 12 12 13 12 12 12 11 11 11 10 9 9 8 8 8 7 7 6 6 5 4 4 3 3 3 2 2 1
10 11 9 8 11 12 12 14 15 14 14 13 13 13 12 12 13 12 12 11 11 12 12 12 12 12 11 11 10 10 9 9 8 8 7 7 7 6 6 5 4 3 3 3 2 2 1 1 0
7 8 11 11 10 11 12 14 14 14 14 14 13 13 12 12 13 12 11 11 11 11 11 11 11 11 11 10 10 9 8 8 8 7 7 6 6 5 4 4 3 3 2 2 1 1 0 -0 -1
10 10 12 11 10 10 13 14 15 14 14 14 13 13 13 13 12 12 11 11 10 10 10 10 10 10 9 9 9 8 8 7 7 6 6 5 5 4 3 3 2 2 2 1 1 0 -1 -1 -3

GFSSGP_850_temp_012.txt.gz
Temp
19 19 20 20 17 14 16 19 19 19 21 23 23 23 22 21 22 20 21 20 20 20 20 19 17 15 15 15 15 14 14 14 14 13 12 12 12 12 11 11 11 12 13 13 13 12 13 13 13
18 19 20 19 15 16 16 19 21 21 22 23 23 23 22 20 20 20 20 20 20 21 20 19 17 16 15 15 15 15 15 15 14 12 11 11 12 12 11 11 12 12 13 14 14 14 14 14 13
18 19 19 14 13 15 17 19 20 22 23 23 23 23 22 20 20 21 21 21 20 20 20 19 17 16 16 16 15 15 15 15 14 13 12 12 12 12 12 12 12 13 13 14 14 14 14 14 14
18 18 18 15 15 16 19 18 19 21 23 23 23 20 21 21 21 21 21 20 20 20 19 18 17 17 16 15 15 15 15 15 14 13 12 12 13 13 13 13 13 13 13 14 14 14 14 14 13
17 17 14 14 15 16 17 20 21 21 22 22 22 21 20 20 21 21 21 20 20 20 19 19 18 17 17 16 15 15 15 15 14 14 13 13 13 13 13 13 13 13 14 14 14 14 14 14 14
16 15 12 13 14 16 16 20 21 21 21 22 22 21 20 20 20 20 19 19 19 20 19 18 18 18 17 16 15 15 15 14 15 14 14 14 13 13 14 13 13 14 14 14 14 14 14 14 14
14 12 12 14 14 15 17 21 20 21 21 22 22 19 20 20 20 20 19 19 19 19 19 18 19 18 17 16 16 16 15 14 14 14 14 14 14 13 13 14 14 14 14 14 14 14 14 14 14
16 12 13 13 14 15 18 20 22 21 21 22 22 19 20 21 21 20 20 19 19 19 19 18 19 19 18 18 16 16 15 15 15 15 15 15 14 14 14 14 14 14 14 14 14 13 13 13 13
14 11 11 13 14 16 19 19 21 22 22 22 22 22 22 22 20 19 19 19 18 18 19 19 19 18 18 17 16 16 15 15 15 15 15 15 15 14 14 14 14 14 13 13 13 13 13 13 13
12 11 13 14 15 16 17 18 20 20 20 21 21 21 21 21 21 20 20 20 20 20 19 19 19 18 18 17 16 16 16 15 15 15 14 14 14 14 14 13 13 13 13 13 13 13 13 12 12
13 12 14 15 17 17 16 17 19 19 18 20 21 21 21 21 21 20 21 21 21 21 20 19 19 18 18 17 16 16 15 15 14 14 14 14 13 13 13 13 12 12 13 13 13 13 12 12 12
11 13 14 15 16 16 15 17 17 18 20 21 20 21 20 20 20 21 21 21 21 21 20 19 18 18 17 16 16 15 15 15 14 14 14 13 13 13 12 12 12 12 13 13 13 13 13 12 12
10 12 14 15 15 16 16 15 16 17 19 20 20 20 21 21 21 21 21 21 22 21 21 20 18 18 17 16 16 15 15 14 14 13 13 13 13 12 12 12 12 13 13 13 12 12 12 12 12
12 12 13 14 15 15 15 16 16 17 19 19 20 20 21 20 21 21 21 21 22 21 21 19 18 17 16 15 15 15 14 14 14 13 13 12 12 12 12 12 12 12 12 12 12 12 12 12 13
12 11 11 13 14 14 16 14 15 17 18 19 20 20 20 20 20 21 21 21 21 21 21 19 18 17 16 15 15 14 14 14 14 13 13 13 12 12 12 12 12 12 12 12 12 12 12 12 12
10 10 10 13 14 14 15 14 16 18 19 18 19 20 20 20 20 20 21 20 20 20 20 18 17 17 16 15 15 14 14 14 14 13 13 12 12 11 11 11 11 12 12 12 12 12 12 11 11
9 9 10 12 14 14 13 14 16 18 18 17 19 20 20 19 19 19 20 19 19 19 19 18 17 16 15 15 14 14 14 14 13 13 12 11 12 11 11 12 12 12 12 11 11 10 10 9 9
10 9 9 10 12 13 13 14 14 17 17 18 19 20 19 18 19 19 19 18 18 18 17 17 17 16 15 15 14 14 13 13 13 12 12 11 11 12 12 12 11 11 11 10 10 9 8 8 8
8 9 9 10 12 12 13 13 14 16 16 15 18 19 18 18 18 18 18 17 16 16 16 17 16 15 15 14 14 13 13 13 12 11 11 12 12 12 11 11 11 10 10 9 8 8 8 7 7
8 8 8 10 11 12 12 12 14 15 16 16 16 17 18 17 17 17 17 16 15 15 15 15 15 15 14 14 14 13 12 12 11 12 12 11 11 11 11 10 10 9 9 8 8 7 7 6 6
8 7 8 9 10 11 12 12 13 14 15 17 17 18 19 17 17 16 15 15 15 14 14 15 14 14 14 14 13 13 12 12 12 12 12 11 11 11 10 10 9 9 8 7 7 6 6 6 5
7 9 9 10 9 9 12 11 13 14 14 15 16 16 17 16 16 15 15 14 14 14 13 13 13 13 13 13 13 13 13 12 12 11 11 11 10 10 9 9 9 8 7 6 6 5 5 5 5
8 9 9 10 9 9 10 10 12 13 14 15 16 15 16 16 16 15 14 14 14 14 13 13 13 13 13 13 13 13 13 12 12 11 11 10 10 9 9 8 8 7 6 6 5 5 5 4 4
9 9 9 9 8 8 10 11 12 13 14 15 15 15 14 15 15 14 14 14 13 13 13 13 13 12 12 12 13 13 13 12 12 11 10 10 9 9 8 8 7 6 5 5 5 4 4 4 3
8 8 6 6 7 9 11 10 11 13 15 16 16 13 13 13 14 13 13 13 13 12 12 12 12 12 12 12 12 12 12 12 11 10 10 9 9 8 7 7 6 5 5 4 4 4 3 3 3
8 8 7 6 6 9 12 10 11 13 15 15 15 16 13 12 13 13 13 13 13 12 12 12 12 12 12 12 12 11 11 11 10 9 9 8 8 7 7 6 5 5 4 4 3 3 3 3 2
7 7 9 8 9 9 10 11 12 13 13 13 14 12 11 11 12 12 12 12 12 12 12 12 12 12 11 11 11 11 11 10 9 9 8 8 7 7 6 6 5 4 4 3 3 2 2 2 1
8 8 7 7 6 8 11 11 14 13 14 11 11 11 11 10 10 11 12 12 12 12 11 11 11 12 11 11 11 11 10 9 9 8 7 7 6 6 5 5 4 4 3 2 2 2 1 1 1
7 7 8 9 8 9 12 12 14 15 13 12 11 12 10 9 10 11 12 12 12 11 11 11 11 11 11 10 10 10 9 8 8 7 6 6 6 5 5 4 3 3 3 2 1 1 0 -0 -1
8 8 9 9 9 10 8 10 13 16 14 13 12 11 10 10 10 11 11 11 11 11 10 10 10 10 10 10 9 9 8 7 7 6 6 5 5 4 4 3 2 2 2 1 1 0 -0 -1 -2

GFSSGP_850_temp_015.txt.gz
Temp
19 19 20 20 16 13 16 18 18 19 21 22 22 21 21 20 21 20 21 21 21 20 20 18 16 16 15 15 15 14 14 14 14 14 12 12 12 11 11 11 12 13 13 13 12 12 12 12 12
18 19 19 19 14 14 15 18 20 20 21 22 22 21 21 20 20 21 21 21 21 21 21 19 17 16 15 15 15 14 14 14 14 13 12 12 11 11 11 11 12 12 13 13 13 13 13 13 13
17 18 18 13 11 14 15 18 19 20 22 22 22 21 21 20 21 22 22 22 21 21 20 20 18 16 15 15 15 15 15 14 14 12 11 11 12 12 12 12 12 12 13 13 14 14 13 14 13
17 18 17 14 14 15 16 18 19 19 22 22 22 20 20 21 21 21 21 21 21 21 20 19 18 17 16 16 16 15 15 14 14 13 12 12 13 13 13 13 13 12 13 14 14 14 14 14 14
17 17 13 13 14 15 16 18 19 18 20 22 22 20 20 21 21 21 21 21 20 20 20 19 18 17 17 16 16 15 15 15 15 14 13 12 13 13 13 13 13 13 13 14 14 14 14 14 14
16 15 12 13 14 15 15 18 19 19 21 21 21 20 20 20 21 21 20 20 20 20 20 19 18 17 17 16 15 15 15 15 15 14 14 13 13 13 13 13 13 13 14 14 14 14 14 14 14
13 11 12 13 13 14 16 19 19 19 19 21 22 19 20 20 20 20 20 19 19 19 19 19 18 18 17 16 16 15 15 15 15 15 14 14 13 13 13 13 14 14 14 14 14 14 13 13 13
15 11 12 11 14 15 17 19 20 20 20 21 22 18 20 21 20 19 19 19 19 18 18 18 18 18 17 17 16 16 15 14 15 15 15 15 14 13 14 14 14 14 13 13 13 13 13 13 12
13 11 11 13 13 16 17 18 19 20 20 21 21 22 21 21 21 19 19 19 18 18 18 18 18 18 18 17 16 16 15 15 15 15 15 15 14 14 14 14 13 13 13 13 12 12 12 12 12
11 10 12 13 14 14 17 17 18 19 19 20 20 21 21 22 21 20 19 20 19 19 19 18 18 18 18 17 16 16 15 15 14 14 15 14 14 14 13 13 13 13 13 12 12 12 12 12 12
11 12 13 14 15 17 15 16 17 17 16 19 20 20 21 21 20 20 20 20 21 21 19 19 18 18 18 17 16 15 15 15 14 14 13 13 13 13 13 12 12 12 12 12 12 12 12 12 12
10 12 13 14 15 15 14 15 16 17 17 18 19 19 20 20 20 20 20 20 20 21 20 19 19 18 17 17 16 15 15 15 14 13 13 13 13 12 12 12 12 12 12 12 13 12 12 12 12
9 11 12 13 14 14 15 14 14 15 16 18 18 19 20 20 20 20 20 20 20 20 20 20 19 18 17 16 15 15 15 14 14 13 13 13 12 12 12 12 12 12 12 12 12 12 12 11 12
11 11 11 12 13 13 13 14 14 15 16 17 18 18 19 20 20 20 20 20 21 21 21 20 19 18 17 16 15 15 14 14 13 13 13 12 12 12 11 12 12 12 12 12 12 11 12 12 12
11 9 10 11 12 12 14 13 13 15 15 16 17 18 19 20 20 20 20 20 21 21 21 21 20 18 17 16 15 14 14 14 14 13 13 13 12 12 12 12 12 12 11 11 12 12 12 11 11
10 9 9 12 12 13 14 12 15 16 16 16 17 18 19 20 20 20 20 20 20 21 21 21 20 18 16 16 15 15 14 14 13 13 13 13 12 11 12 11 11 11 12 12 12 11 11 11 11
9 8 8 10 12 13 12 13 14 16 16 15 17 18 18 19 20 20 20 20 20 20 20 20 19 17 16 15 15 14 14 14 13 13 13 12 11 11 11 11 11 11 11 11 11 10 10 10 10
8 8 8 9 12 12 11 12 13 15 15 15 15 17 18 19 19 20 19 19 18 18 19 19 17 16 15 15 15 15 14 13 13 13 12 12 11 11 11 11 11 11 11 10 10 9 8 8 8
7 7 7 9 11 9 9 10 12 13 14 14 14 16 17 18 19 19 18 18 17 17 17 17 16 16 15 15 14 14 13 13 12 12 12 11 11 11 11 11 11 10 10 9 9 8 7 7 7
7 7 7 8 10 10 10 10 11 11 12 14 14 15 17 17 18 18 17 17 17 17 16 16 16 16 15 15 14 14 13 13 12 12 11 11 11 11 11 10 10 10 9 8 7 7 6 6 6
6 6 7 7 9 9 9 9 11 13 13 14 14 16 16 17 18 18 17 17 16 16 16 15 15 15 15 14 14 14 13 12 12 11 11 11 11 11 10 10 9 9 8 7 7 6 5 5 4
7 8 8 8 7 6 9 9 11 12 12 13 14 15 16 17 17 18 16 16 16 16 15 15 15 14 14 14 14 13 13 13 12 12 11 11 11 10 10 9 9 8 8 7 6 5 5 4 4
8 9 8 8 7 7 8 8 8 12 12 13 12 15 16 17 18 18 17 17 16 15 14 14 14 13 13 13 13 13 13 12 12 11 11 11 10 10 9 8 8 8 7 6 5 5 4 4 3
8 7 7 8 7 7 8 8 10 11 12 12 12 14 16 16 17 17 16 15 15 14 13 13 13 13 13 13 13 13 12 12 12 11 11 11 10 9 8 8 7 7 6 5 5 4 3 3 3
8 7 7 7 7 8 9 8 10 11 12 13 13 14 16 15 15 16 15 14 14 14 13 13 13 13 12 12 12 12 12 12 12 11 11 10 9 8 8 7 7 6 5 4 4 3 3 3 2
7 7 7 7 6 6 10 9 11 11 13 15 15 15 15 13 14 15 14 14 14 13 13 13 12 12 12 12 12 12 12 11 11 10 10 9 8 7 7 7 6 5 4 4 3 3 2 2 2
6 6 7 7 8 7 8 9 11 11 11 11 11 13 13 12 12 14 13 13 13 13 13 13 12 12 12 12 11 11 11 11 10 10 9 8 7 7 6 6 5 4 3 3 3 3 2 2 1
7 7 6 6 6 7 8 9 11 12 12 12 11 11 12 11 11 12 12 13 12 12 12 12 12 12 12 11 11 11 10 10 9 9 8 7 7 6 5 5 4 3 3 2 2 2 1 1 1
6 6 7 7 6 5 7 10 11 12 13 11 10 11 10 10 9 9 12 12 12 12 11 11 11 11 11 10 10 10 9 9 8 8 7 7 6 5 5 4 3 3 2 2 2 1 1 0 -0
8 7 7 7 5 7 7 9 12 10 11 11 10 10 9 9 8 9 11 12 11 11 11 11 11 10 10 10 9 9 8 8 7 7 6 5 5 4 4 3 3 2 2 1 1 0 -0 -0 -1

GFSSGP_850_temp_018.txt.gz
Temp
18 18 19 20 15 12 14 16 18 19 20 21 20 20 20 21 20 19 21 21 21 21 20 16 16 16 16 15 15 15 14 14 14 13 13 12 12 11 11 11 12 12 13 13 12 12 12 12 12
18 18 19 19 14 14 14 16 19 19 21 21 21 20 20 21 20 21 21 22 22 21 20 18 16 16 16 16 15 15 14 14 14 13 12 12 11 11 11 12 12 12 13 13 13 13 13 13 13
17 18 18 12 10 13 14 17 18 18 21 21 21 21 20 20 21 21 21 22 22 21 20 19 16 16 16 16 15 15 15 14 14 13 12 12 12 12 12 12 12 12 13 13 14 14 14 14 14
17 17 16 13 13 14 15 17 17 17 21 21 21 20 20 20 21 21 21 21 21 21 20 20 18 17 16 16 16 15 15 14 14 13 12 12 13 12 12 12 12 13 13 14 14 14 14 14 14
16 16 13 13 13 14 14 17 18 16 18 20 21 21 20 21 21 21 21 21 20 20 20 20 19 17 16 16 16 15 15 15 14 13 12 12 13 13 14 13 13 13 13 13 13 13 13 14 13
15 14 11 12 13 15 14 17 18 18 19 20 20 20 21 21 21 21 21 20 19 19 19 19 18 18 17 16 15 15 15 15 15 14 13 13 13 13 13 13 12 13 13 13 13 13 13 13 13
12 10 11 12 13 14 15 18 17 18 18 19 20 19 21 21 21 20 20 19 19 18 19 19 19 18 17 16 15 15 15 15 15 14 13 13 13 13 13 13 13 13 13 13 13 12 12 12 12
14 10 12 11 13 13 17 18 20 19 19 21 20 18 20 21 21 20 19 19 18 18 18 18 18 18 18 17 15 15 15 14 14 14 14 14 13 13 13 13 13 13 13 13 12 12 12 12 12
13 11 10 11 12 14 16 17 18 19 19 19 20 20 21 21 21 21 20 19 18 18 18 18 18 18 18 17 16 15 15 14 14 14 14 14 14 13 13 13 13 13 12 12 12 12 12 12 12
11 10 11 12 12 14 15 16 16 17 17 18 19 20 21 21 21 21 21 20 19 19 19 18 18 18 17 17 16 15 15 14 14 14 14 14 14 13 13 13 12 12 12 12 12 12 12 11 12
11 11 12 13 14 15 14 15 16 16 15 18 18 19 19 21 21 21 20 20 20 20 19 19 18 18 17 17 16 15 15 14 14 14 14 14 14 13 12 12 12 12 12 12 12 12 12 12 12
10 11 12 13 14 14 13 14 13 15 16 18 18 17 18 19 19 20 20 20 20 20 19 19 18 18 17 17 16 15 15 14 14 14 13 13 13 12 12 12 11 12 12 12 12 12 12 11 11
9 10 11 12 13 13 13 13 13 13 15 16 17 17 18 18 19 19 20 20 20 19 20 19 19 18 17 17 16 15 14 14 13 13 13 12 12 12 11 12 11 11 11 12 12 11 11 11 11
10 10 10 11 12 12 12 12 13 14 15 15 16 16 17 18 19 19 19 20 20 20 20 20 20 19 18 17 16 15 14 14 13 13 12 12 12 12 11 11 11 11 12 11 11 11 12 12 12
10 9 9 10 11 11 13 11 11 14 14 14 15 16 17 18 18 19 19 19 20 20 20 21 21 19 18 17 15 15 14 14 13 13 13 12 12 12 12 11 11 11 11 11 11 11 11 11 11
10 9 9 10 10 11 13 11 14 15 16 14 15 16 16 18 18 19 19 19 20 20 20 21 21 20 18 16 15 14 14 14 13 13 13 13 12 12 12 11 11 11 11 11 11 11 11 11 10
9 8 9 10 11 11 10 11 13 14 14 13 14 15 16 17 18 19 19 19 19 20 20 20 20 20 17 16 15 15 15 14 13 13 13 12 12 12 11 11 10 11 11 11 11 11 10 10 10
8 8 9 9 10 9 9 9 11 13 13 13 14 15 15 16 17 18 19 19 19 19 20 20 19 19 16 15 15 15 14 14 13 13 12 12 12 11 10 11 11 11 10 10 10 9 9 8 8
7 7 7 8 9 8 9 9 10 11 11 11 12 13 14 15 16 18 18 19 19 18 19 19 19 18 16 15 15 15 14 13 12 12 12 12 11 11 11 11 11 10 10 10 10 9 8 8 8
8 7 7 7 8 8 8 9 10 10 10 11 11 12 13 15 16 17 18 18 18 17 18 18 18 17 15 15 14 14 15 13 12 12 12 11 11 11 11 11 10 10 10 9 9 8 8 7 6
6 6 6 6 7 8 8 8 10 11 12 12 12 12 13 13 15 17 17 18 17 17 17 17 17 16 15 15 14 13 14 12 12 11 11 11 11 11 11 10 10 9 9 9 8 7 6 6 5
6 7 7 7 6 6 7 7 10 10 11 11 12 12 13 14 16 16 17 17 18 17 16 16 15 15 14 14 14 14 14 13 12 12 11 11 11 10 10 10 9 9 9 8 7 6 5 5 4
7 7 7 7 6 6 7 7 7 9 9 10 9 12 14 14 16 16 17 18 17 17 16 15 15 14 14 13 13 14 14 13 12 12 11 11 11 10 10 9 9 8 8 7 6 5 5 4 3
8 6 7 7 7 7 7 6 9 10 10 10 10 13 14 15 16 16 17 18 16 15 15 14 14 14 13 13 14 13 13 12 12 11 11 11 10 10 9 9 8 8 7 6 6 5 4 3 3
7 6 6 7 7 7 7 7 9 10 11 10 11 12 14 16 16 15 16 17 15 15 14 14 14 13 12 13 13 13 12 12 12 12 11 11 10 9 8 8 7 7 6 5 5 4 3 3 2
6 6 6 7 5 5 8 7 8 9 11 12 13 13 14 15 15 15 15 16 16 15 14 13 13 13 12 12 12 12 12 12 11 11 10 10 9 8 8 7 7 6 5 4 4 3 3 2 2
6 5 7 7 7 7 7 7 10 11 10 9 10 12 13 14 14 14 15 15 15 15 13 13 13 12 12 12 12 11 11 11 11 10 9 9 8 7 7 6 6 5 4 4 3 2 2 2 1
6 6 6 5 6 6 6 7 8 10 10 10 10 9 12 14 13 13 13 14 14 14 13 12 12 12 12 11 11 11 11 10 10 9 9 8 7 6 6 5 5 4 3 3 2 2 1 1 1
5 5 5 6 6 6 5 7 8 10 9 10 10 11 12 13 12 12 12 13 13 13 12 12 11 12 11 11 10 11 10 10 9 8 7 7 6 6 5 5 4 3 2 2 1 1 1 1 1
7 7 7 6 4 5 4 8 11 9 9 10 8 9 10 11 10 10 10 11 12 12 11 11 11 11 11 10 10 10 10 9 8 7 7 6 6 5 5 4 3 2 2 1 1 1 1 0 -0

GFSSGP_850_temp_021.txt.gz
Temp
18 18 19 20 19 17 17 18 18 19 20 20 20 20 21 21 22 23 20 20 21 21 20 16 16 15 15 15 15 15 15 14 14 13 13 13 12 11 11 11 12 12 13 13 12 12 12 12 12
18 18 19 19 17 17 18 17 19 19 19 20 20 20 21 22 21 20 20 21 21 21 20 18 16 16 16 16 15 15 15 15 14 13 13 12 11 11 12 12 12 13 13 13 13 13 13 13 13
17 18 18 16 14 17 18 17 19 18 20 20 20 20 21 21 21 20 21 21 21 20 19 18 16 16 16 16 15 15 15 15 14 13 12 12 12 12 12 12 12 13 13 13 13 13 13 13 13
17 17 16 16 16 16 17 18 17 18 20 20 20 21 21 21 20 20 21 21 20 20 19 17 16 15 16 16 16 15 15 15 14 13 12 11 12 12 12 12 12 13 13 13 13 13 13 13 13
16 16 15 14 15 15 15 16 17 18 18 19 20 21 20 21 21 21 21 20 21 20 18 17 15 15 16 16 16 15 15 15 14 13 12 12 13 13 13 13 12 13 13 13 13 13 13 13 13
15 14 14 15 15 15 16 17 17 17 18 20 20 19 21 21 21 21 21 21 20 20 19 17 15 16 16 16 16 15 15 15 15 14 12 12 13 13 13 13 13 13 13 13 13 13 13 12 12
13 13 14 13 14 15 16 18 17 17 18 19 20 20 21 21 20 20 20 19 20 19 19 18 17 16 16 16 16 16 15 15 15 14 13 13 13 13 13 13 13 13 13 13 13 12 12 13 13
14 13 12 13 15 16 17 17 18 18 19 19 19 20 20 20 20 20 20 19 18 19 18 18 17 16 15 16 15 15 15 15 15 14 14 13 13 13 13 13 13 13 13 13 12 12 13 12 12
13 12 13 13 13 15 16 16 17 18 18 18 19 19 19 20 20 20 20 19 19 18 18 17 17 17 17 16 15 15 15 14 14 14 14 14 13 13 13 13 13 12 12 12 12 12 12 12 12
12 12 12 12 13 15 15 15 16 17 16 17 18 19 19 20 20 20 21 21 20 19 18 17 17 17 16 16 15 15 15 15 14 14 14 14 14 13 13 13 12 12 12 12 12 12 12 11 12
10 12 12 13 14 14 13 14 15 15 15 16 18 18 18 18 18 19 19 20 20 20 19 18 17 17 16 17 16 15 15 14 14 14 14 14 13 13 13 12 12 12 12 12 12 12 12 12 12
11 11 11 12 13 13 13 13 13 14 15 16 17 17 17 18 18 18 18 19 20 20 19 19 18 17 17 16 16 16 15 14 14 14 14 13 13 12 12 12 12 11 12 12 12 12 12 11 11
10 10 11 11 12 12 12 12 13 13 14 15 16 16 17 17 18 18 19 19 19 19 20 19 19 18 17 17 16 15 15 14 14 14 13 13 12 12 11 11 11 12 12 12 11 11 11 11 12
10 9 10 10 11 11 12 12 12 14 14 15 15 16 17 17 18 18 19 19 19 20 20 19 19 19 18 17 16 15 15 14 14 13 13 12 12 12 12 11 12 12 12 11 11 11 11 11 11
10 9 10 10 10 11 12 11 11 13 13 14 14 15 16 17 17 18 18 19 19 19 20 20 20 20 19 18 16 15 14 14 13 13 13 12 12 12 12 12 12 12 12 11 11 11 11 11 10
10 10 9 10 10 11 12 11 13 14 13 13 14 14 15 17 18 18 18 19 19 19 19 19 20 20 20 18 16 15 14 14 14 13 13 13 12 12 12 12 11 11 11 11 11 11 11 11 10
8 8 8 10 11 11 11 11 13 13 12 12 13 13 13 14 16 17 18 18 18 19 19 19 19 20 19 18 16 15 14 14 14 13 13 13 12 12 12 12 11 11 11 11 11 11 10 10 10
7 8 8 9 10 9 9 10 11 11 11 12 12 12 13 14 15 16 17 18 18 18 19 19 19 19 19 17 15 15 14 14 13 13 13 12 12 12 11 11 11 11 11 11 10 10 10 9 9
8 8 8 8 9 8 10 10 11 11 11 11 11 11 12 13 15 16 16 17 18 18 19 19 19 19 19 17 16 15 14 14 13 12 12 12 12 11 11 11 11 11 10 10 10 9 9 9 9
8 8 8 9 8 8 8 9 10 10 11 11 12 12 11 13 14 15 16 17 17 18 18 18 18 18 18 17 16 15 15 13 13 12 12 11 11 11 11 11 11 10 10 10 9 9 8 8 8
7 7 7 8 7 8 8 9 12 12 11 11 11 11 11 12 13 15 15 16 17 17 18 18 18 18 17 16 15 14 13 13 12 11 11 11 11 11 11 11 10 10 9 9 9 8 7 7 6
6 7 7 7 7 7 7 8 11 12 12 12 11 12 11 11 12 14 15 16 16 17 17 17 17 16 16 15 15 15 15 13 12 12 11 11 11 11 11 10 10 9 9 8 8 7 7 6 6
7 7 7 7 6 6 7 6 9 9 10 11 11 12 13 13 13 14 15 16 17 17 17 17 16 15 15 14 14 13 14 13 13 11 11 11 11 10 10 10 9 9 8 8 7 7 6 5 5
7 6 7 7 7 7 8 7 10 11 11 11 11 13 14 14 14 15 15 15 16 17 16 16 16 15 14 13 13 13 14 13 12 12 11 11 10 10 10 9 8 8 8 7 6 6 5 5 4
7 6 7 6 7 8 8 7 10 11 11 11 12 11 13 14 14 14 14 15 15 16 16 16 15 14 13 12 12 13 13 13 12 12 11 10 10 10 9 9 8 8 7 6 6 5 4 4 3
6 6 7 7 7 8 7 7 10 10 12 12 11 12 12 13 14 15 15 15 15 17 16 15 15 14 13 12 12 12 12 13 12 12 11 10 10 9 9 8 7 7 6 6 5 4 3 3 2
5 5 7 7 8 6 9 8 9 10 10 10 11 11 10 12 14 14 15 14 15 16 16 16 14 13 12 12 12 11 12 12 12 11 10 10 9 9 8 7 7 6 6 5 4 3 3 2 2
6 6 5 5 6 7 7 7 9 9 10 10 9 10 10 10 11 14 14 14 14 15 15 14 14 13 12 11 11 11 11 11 11 10 10 9 9 8 7 7 6 5 4 4 3 3 2 2 1
5 5 5 5 6 7 7 9 8 10 10 9 9 9 9 10 10 12 13 13 13 13 13 13 13 12 12 11 11 11 11 10 10 9 9 8 8 7 6 6 5 4 3 3 2 2 1 1 1
7 7 7 6 7 6 5 8 10 9 8 9 9 9 10 9 9 9 11 12 11 11 11 12 12 12 11 11 10 10 10 9 9 8 8 8 7 6 5 5 4 3 3 2 2 1 1 0 -0

GFSSGP_850_temp_024.txt.gz
Temp
18 18 19 19 22 22 22 23 23 23 23 23 22 24 25 25 26 26 21 20 21 20 16 16 16 15 15 15 16 15 15 15 14 14 13 13 13 12 12 12 13 13 13 13 13 13 13 13 13
17 18 19 20 21 22 23 23 23 23 23 22 22 22 24 26 22 20 19 20 20 18 16 16 15 15 15 16 16 15 15 15 14 14 13 12 12 12 12 12 13 13 13 13 13 13 13 12 13
17 18 20 21 22 22 23 23 24 22 22 22 23 22 23 24 20 21 20 21 19 18 16 16 16 15 15 16 16 15 15 15 14 14 13 13 12 12 12 12 12 13 13 13 13 13 13 13 13
16 18 18 20 21 22 22 23 22 22 23 22 22 24 22 21 20 19 21 20 20 16 16 18 16 15 15 16 15 15 15 15 14 12 13 13 12 12 12 12 12 13 13 13 13 13 13 13 13
16 18 20 20 21 23 22 22 21 22 22 23 22 24 24 20 21 21 21 20 17 16 16 18 15 15 15 15 15 15 15 15 14 13 13 13 13 13 12 12 13 13 13 13 13 13 13 13 13
18 19 19 20 21 21 21 21 21 22 22 22 23 23 23 20 20 21 21 20 19 16 15 15 15 15 15 15 15 15 15 15 14 13 12 13 13 13 13 13 13 13 13 13 13 13 13 13 13
18 19 20 21 21 21 21 21 21 22 22 23 21 24 23 21 20 20 20 20 19 16 17 16 15 15 15 15 15 15 15 15 15 13 12 13 13 13 13 13 13 13 13 13 13 13 13 13 13
17 19 19 19 20 20 21 20 20 21 22 20 20 24 24 19 19 19 19 19 18 18 17 16 15 14 14 15 15 15 15 15 15 14 13 13 13 13 13 13 13 13 13 13 13 13 12 12 12
14 18 18 19 19 20 19 20 19 18 20 20 20 20 19 19 19 18 17 18 18 18 18 17 15 14 14 14 15 14 14 14 15 15 14 14 12 13 13 13 13 13 12 12 12 12 12 12 12
16 17 19 20 20 19 19 19 19 19 20 20 20 19 18 19 18 17 17 17 17 18 18 17 15 14 14 14 14 14 13 14 14 14 14 13 13 13 13 13 13 12 12 12 12 12 12 12 12
15 17 19 17 17 17 17 17 17 19 20 20 21 20 18 18 17 17 18 18 18 17 16 18 18 15 14 14 13 13 13 13 12 13 14 14 14 13 12 12 12 12 12 12 12 12 12 12 12
14 15 15 16 15 15 16 17 17 17 19 19 17 17 17 18 18 18 18 18 18 17 17 18 18 18 17 14 14 14 13 13 13 13 13 13 12 13 12 12 12 12 12 12 12 12 12 12 12
14 15 14 14 13 14 14 15 16 16 17 17 17 16 17 18 18 18 18 18 18 17 18 19 18 18 18 17 14 14 13 13 13 12 13 12 12 12 12 12 12 12 12 12 12 11 11 11 12
13 13 13 13 13 13 14 15 15 15 16 16 16 17 17 17 18 18 18 18 18 18 17 17 19 18 18 17 16 14 13 13 13 12 13 13 12 12 12 12 12 12 12 12 12 11 11 12 12
12 12 14 14 14 14 13 14 15 15 15 16 16 17 17 17 18 18 18 18 18 18 18 17 18 17 17 16 14 14 13 13 13 12 12 13 13 12 12 12 12 12 12 12 11 12 11 11 11
12 13 13 15 14 14 13 15 17 16 16 16 16 16 17 17 17 18 18 18 18 17 18 18 19 18 17 15 14 14 13 13 13 12 13 13 13 13 12 12 12 12 11 11 11 11 11 11 11
12 13 13 14 14 15 14 15 16 14 15 15 16 16 16 16 16 16 17 17 17 17 18 19 19 19 18 15 14 14 13 13 14 14 13 13 13 13 12 12 12 11 11 11 11 11 11 11 10
14 12 13 13 14 13 14 14 15 15 15 15 15 16 16 15 15 15 16 16 17 17 18 18 19 19 18 15 13 13 13 13 14 14 13 13 13 12 12 12 11 11 11 11 11 11 10 10 10
11 11 12 13 13 12 13 14 15 15 14 14 15 15 15 16 16 15 15 16 16 17 18 18 19 19 18 15 14 14 15 14 14 14 13 13 12 12 12 11 11 11 11 11 10 10 10 9 9
10 10 10 12 13 11 12 12 13 14 14 14 15 15 16 16 16 16 15 16 16 16 17 18 19 19 18 15 15 13 14 15 14 13 13 12 12 11 11 11 11 11 10 10 10 10 9 9 8
10 9 9 9 11 11 11 12 16 17 16 15 14 14 14 15 15 15 16 16 16 15 16 18 18 18 17 16 12 13 14 13 13 13 12 11 11 11 11 11 11 11 10 10 9 9 8 7 7
10 12 10 10 9 9 10 12 15 16 16 16 16 15 15 15 15 14 15 15 16 15 17 17 18 18 17 16 16 16 15 14 13 12 12 11 10 10 11 11 11 10 10 10 9 8 8 7 6
9 10 9 9 9 8 10 7 14 14 14 15 17 17 17 16 15 14 14 14 15 15 16 17 17 16 16 17 16 14 13 12 13 12 12 10 10 10 10 10 10 10 10 9 8 8 7 6 5
9 9 9 9 8 8 10 9 13 16 17 16 16 16 16 16 15 14 14 14 14 14 16 16 16 16 16 16 15 13 13 13 13 11 11 10 9 10 10 10 10 9 9 8 8 7 6 6 5
8 6 8 8 7 10 13 12 13 15 15 16 17 17 15 15 15 14 14 13 13 13 15 15 15 15 15 14 13 13 13 13 13 13 11 11 10 10 10 9 9 9 8 7 7 6 5 5 4
7 8 9 9 11 12 12 10 14 16 16 15 15 15 14 13 14 14 14 13 13 13 15 14 14 14 14 13 13 13 12 12 12 12 11 11 11 10 9 9 8 8 7 7 6 5 4 4 3
7 6 9 8 10 9 11 13 15 16 15 15 15 14 13 13 12 12 13 13 13 12 14 14 13 13 13 12 12 13 12 11 12 10 11 11 10 9 9 8 8 7 6 6 5 4 4 3 2
8 9 6 6 7 9 12 13 13 14 15 15 14 14 13 12 12 11 12 12 12 11 14 13 11 12 12 11 11 12 12 11 11 11 11 10 9 9 8 8 7 6 5 5 4 4 3 2 2
6 6 6 8 8 9 11 13 16 14 15 15 14 13 11 11 11 10 11 11 10 10 10 11 10 10 11 11 11 11 11 10 10 9 9 9 9 8 7 7 6 5 4 4 3 3 2 2 1
10 9 8 6 7 7 7 10 15 14 13 13 13 12 11 9 9 9 9 9 9 8 8 9 9 10 11 11 11 10 10 9 9 8 8 8 8 7 6 6 5 4 4 3 2 2 2 1 1

GFSSGP_850_temp_027.txt.gz
Temp
18 18 19 20 22 23 24 25 26 25 25 26 25 25 27 27 27 26 20 19 19 18 17 18 16 16 16 16 15 15 15 15 15 14 14 14 13 13 12 12 13 13 13 13 13 13 13 14 13
18 18 19 21 22 23 25 26 25 26 25 24 24 25 25 27 25 21 20 19 19 18 16 16 16 16 16 15 15 15 15 15 14 14 13 13 13 13 13 13 13 13 14 14 14 13 13 13 13
17 18 21 22 22 22 25 26 26 25 24 25 25 25 26 26 23 23 20 20 19 18 18 16 16 15 15 15 15 15 15 15 14 13 13 13 13 13 13 13 13 13 14 14 14 14 14 14 14
17 19 20 21 22 24 25 26 26 25 25 24 25 26 25 22 23 22 19 19 19 19 18 17 15 15 15 15 15 15 16 15 14 14 14 13 13 13 13 13 13 13 14 14 14 14 13 13 13
17 20 21 21 22 24 26 25 24 24 25 25 24 26 25 22 20 20 19 19 19 19 18 17 16 15 15 15 15 15 15 15 14 14 14 13 13 13 13 13 13 13 13 13 13 13 13 13 13
19 20 20 21 23 24 26 24 24 24 25 25 24 25 25 21 21 19 19 19 19 18 17 15 16 15 15 15 15 15 15 15 14 14 13 13 13 13 13 13 13 13 13 13 13 13 13 13 13
19 20 20 22 23 24 25 23 24 24 25 25 25 25 25 23 20 19 19 19 18 18 17 16 15 15 15 15 15 15 15 15 14 13 13 13 13 13 13 13 13 13 13 13 13 13 13 13 13
18 20 20 21 22 23 25 23 23 23 24 23 23 24 25 21 19 19 19 19 18 18 17 17 16 16 16 15 15 15 15 15 15 14 13 13 13 13 13 13 13 13 13 13 13 13 12 12 12
16 19 19 21 22 23 24 23 22 22 22 22 23 23 20 19 19 19 19 18 18 17 17 17 16 15 15 14 15 15 14 15 15 14 14 14 13 13 13 13 13 13 13 13 13 12 12 12 12
17 18 20 23 23 23 23 21 22 21 21 23 22 21 20 19 19 19 19 19 18 18 17 17 17 16 15 15 14 14 13 15 15 15 15 14 13 12 12 14 13 13 13 12 12 12 12 12 12
17 17 21 22 20 20 21 21 20 21 21 23 23 22 21 20 19 19 20 20 19 18 18 17 17 17 15 14 14 14 14 13 13 13 13 13 12 13 13 14 13 13 12 12 12 12 12 12 12
17 18 19 20 19 17 18 19 20 20 20 21 22 22 21 20 20 20 20 20 21 19 18 17 17 16 15 15 14 15 15 14 14 13 13 13 13 13 13 13 12 11 12 12 12 12 12 12 12
16 17 18 17 17 17 16 17 19 19 19 19 19 20 19 19 20 21 20 20 20 20 19 17 17 16 16 15 14 15 15 15 14 13 13 13 13 13 13 13 11 12 12 12 12 12 11 11 12
16 16 17 16 16 16 16 17 17 17 18 18 18 19 19 19 19 20 20 20 20 20 19 18 17 16 16 16 16 16 16 15 14 14 13 13 13 13 12 12 12 12 12 12 12 12 11 12 12
14 14 16 16 16 16 16 16 16 17 18 18 19 19 19 19 19 20 20 20 20 20 20 19 17 16 16 15 16 16 15 15 14 14 13 13 13 13 13 12 13 12 12 12 12 12 12 12 12
14 15 15 18 17 17 15 16 20 19 19 18 18 18 19 19 19 19 20 20 20 20 20 19 18 17 16 16 16 16 16 15 14 14 13 13 13 13 13 13 12 12 12 12 12 12 11 11 11
14 15 17 18 18 17 16 16 19 18 17 18 19 19 19 19 19 19 19 20 20 20 19 19 18 17 17 16 16 16 16 15 14 14 13 12 13 13 13 13 12 12 12 11 12 12 11 11 11
16 16 16 16 18 16 15 16 17 18 17 17 17 18 18 18 18 18 18 18 19 20 19 19 18 17 17 17 16 16 15 15 14 13 13 14 14 13 13 12 12 12 11 12 11 11 11 11 10
16 14 15 16 17 15 15 16 17 17 17 17 17 17 17 18 18 18 18 17 18 18 18 18 18 18 17 16 16 15 15 14 13 13 14 14 14 13 12 12 12 11 11 11 11 11 10 10 10
13 13 14 15 15 14 14 14 16 17 17 17 17 17 17 17 18 18 18 17 17 18 18 18 18 17 17 16 16 15 14 13 13 13 14 13 13 13 12 11 11 11 11 11 11 10 10 10 9
12 12 12 12 13 13 13 14 18 19 18 18 17 16 16 17 17 18 18 18 17 17 17 17 18 17 16 16 15 13 13 13 12 12 13 13 12 12 11 11 11 11 11 11 10 10 9 8 8
12 14 13 13 11 12 13 13 16 18 19 19 18 17 17 17 17 17 17 18 18 17 17 17 17 17 16 15 14 15 16 14 12 12 12 13 12 12 11 11 11 11 11 10 10 10 9 8 7
11 12 11 11 10 9 11 10 15 17 17 18 18 18 18 18 18 17 17 16 16 17 17 16 16 16 15 15 13 13 13 11 12 12 12 12 11 11 11 10 10 10 10 10 10 9 8 8 7
10 10 10 10 9 8 12 13 16 17 19 20 20 19 18 18 17 17 16 16 16 15 16 16 15 14 14 13 13 13 12 11 12 12 12 11 11 10 11 9 9 10 10 9 9 8 8 7 6
10 9 9 9 8 10 15 14 15 18 18 18 18 18 17 17 16 16 16 16 15 15 15 14 14 13 13 12 13 12 11 11 13 12 12 12 11 10 10 9 9 10 9 9 8 8 7 6 6
9 9 10 11 13 14 15 13 15 18 18 17 17 17 17 16 15 14 14 16 15 15 14 13 13 13 12 12 11 11 10 11 12 12 12 11 10 10 10 9 9 9 9 8 7 7 6 6 5
8 7 10 9 11 10 13 15 17 17 17 18 18 16 16 15 14 14 13 14 15 15 14 13 12 12 11 11 11 10 10 11 12 12 11 10 9 9 9 9 9 8 8 7 7 6 5 5 4
9 10 7 7 8 10 14 15 15 17 17 18 17 17 16 15 13 13 13 13 15 14 13 12 12 12 11 11 10 9 10 11 11 11 10 9 9 9 9 9 8 8 7 6 6 5 5 4 3
8 7 8 10 8 10 11 14 17 16 15 15 16 15 14 13 12 12 11 13 13 14 13 12 12 11 10 9 8 9 10 10 10 10 10 10 8 8 8 8 8 7 6 5 5 4 3 3 2
12 9 9 7 9 8 8 10 15 16 15 15 15 14 14 13 12 11 10 11 12 12 12 12 11 10 10 8 9 10 10 10 9 9 9 8 7 8 7 7 7 6 5 5 4 3 2 2 1

GFSSGP_850_temp_030.txt.gz
Temp
18 18 19 20 18 19 19 22 26 25 26 26 26 25 24 25 24 20 20 20 20 20 20 19 18 17 17 17 16 16 15 16 15 14 14 13 13 13 13 13 14 14 13 14 15 15 15 14 13
18 18 19 20 18 18 20 23 24 25 26 25 25 25 25 25 23 21 20 20 18 19 19 19 18 17 17 16 16 15 15 15 14 14 14 13 13 13 13 13 14 14 14 14 14 14 14 14 14
17 18 19 18 18 18 20 24 25 25 25 25 25 25 26 24 23 21 21 19 19 18 19 19 17 17 16 16 16 16 15 14 14 14 13 13 13 13 13 13 14 14 14 14 14 14 14 14 14
17 18 19 18 19 21 21 23 25 25 25 25 25 25 25 23 23 22 20 19 19 18 17 17 17 15 16 16 16 16 16 14 14 14 14 13 13 13 13 13 13 14 14 14 14 14 14 14 14
17 18 17 18 19 21 22 25 25 24 24 25 25 23 23 22 22 21 20 20 19 18 17 17 17 15 15 15 16 16 16 14 14 14 14 14 13 13 13 13 13 14 14 14 14 14 14 14 13
17 19 17 18 19 22 23 25 24 24 24 25 24 24 22 21 21 19 19 20 19 19 18 18 17 16 16 16 16 17 16 16 14 14 14 14 14 13 13 13 13 14 14 14 14 14 13 13 13
16 17 17 18 19 21 23 25 24 23 24 24 25 24 23 21 20 19 19 19 19 18 17 18 17 16 16 17 17 16 17 16 15 14 14 14 14 14 14 13 13 14 14 14 13 13 13 13 13
17 17 17 18 19 20 23 25 24 24 23 24 24 23 22 20 20 19 19 19 19 18 17 17 17 17 16 16 17 17 16 16 15 15 14 14 14 14 14 13 14 14 14 13 13 13 13 13 13
17 15 16 17 19 20 23 23 23 23 22 23 23 23 21 20 19 19 19 19 19 18 17 17 17 16 16 16 17 17 17 16 15 15 14 14 13 13 13 14 14 14 13 13 13 13 12 12 12
16 15 16 19 20 20 22 23 23 22 22 22 22 22 20 20 19 19 19 18 18 18 17 17 17 16 15 14 15 15 15 16 16 15 15 14 13 13 13 13 14 13 13 13 13 12 12 12 12
16 15 18 19 21 20 19 19 22 21 20 22 22 22 21 20 20 19 19 19 18 18 17 17 17 17 15 14 14 15 16 15 16 16 15 14 13 13 13 13 14 13 13 13 12 12 12 12 12
15 17 18 18 19 19 18 19 19 20 20 21 21 22 21 21 20 20 20 20 19 19 18 17 17 17 16 15 14 14 14 14 14 14 14 14 13 13 13 13 12 12 12 12 12 12 12 12 12
16 16 18 18 18 17 17 17 17 17 19 20 20 20 20 20 20 20 21 20 20 20 19 18 17 17 16 15 14 14 14 14 14 14 13 13 13 14 13 12 12 12 12 12 12 12 12 12 12
17 17 17 17 17 17 16 16 16 17 17 18 18 19 19 19 19 19 20 21 20 20 20 18 17 17 16 16 15 15 15 15 14 14 14 13 13 13 13 13 13 12 12 12 12 12 12 12 12
15 14 15 15 16 16 16 15 15 16 17 17 18 18 18 19 19 19 19 20 20 20 20 19 18 17 16 15 16 15 16 15 15 14 14 13 13 13 13 13 13 12 12 12 12 12 12 12 12
14 13 12 16 16 16 16 13 16 17 17 17 17 18 18 19 19 19 19 20 20 20 20 19 18 17 16 16 16 16 16 15 15 14 14 13 13 13 13 13 13 12 12 12 12 12 12 12 12
14 12 13 15 17 17 15 14 16 17 18 18 18 18 19 19 19 19 19 19 20 20 20 20 19 18 17 16 16 16 16 16 15 14 14 13 13 13 13 13 13 12 12 12 11 12 12 12 12
13 13 14 14 17 16 14 14 15 17 17 17 18 18 18 18 19 19 19 19 20 20 20 20 20 18 18 17 16 16 16 16 15 14 14 14 13 13 13 13 12 12 12 11 12 12 12 11 11
14 14 14 14 16 14 14 14 15 16 16 16 17 17 18 18 18 18 19 19 19 19 20 20 19 19 18 17 16 16 16 16 16 15 14 14 14 14 13 13 12 13 12 12 12 11 11 11 11
13 12 12 13 15 14 12 12 13 14 15 16 16 16 17 17 17 18 18 18 18 18 18 19 19 19 18 18 17 16 16 16 16 15 14 13 14 13 13 12 12 12 12 12 11 11 11 11 10
11 11 11 11 13 13 12 12 13 16 15 16 16 16 17 17 17 17 18 18 18 18 17 18 18 18 18 18 17 16 15 16 15 14 14 13 13 13 12 12 12 12 11 11 11 11 10 10 10
10 13 12 12 11 9 11 8 12 14 15 16 17 18 17 17 16 16 16 17 18 18 17 17 17 18 18 17 16 16 15 15 14 14 13 13 13 12 12 12 12 11 11 11 11 10 10 10 9
11 11 11 11 9 8 9 7 10 15 14 16 16 18 18 18 17 17 17 17 17 17 17 17 17 17 17 17 16 15 15 16 15 13 12 12 11 11 11 11 12 11 11 10 10 10 9 9 9
10 10 10 9 9 7 8 10 10 14 15 16 15 18 18 18 18 17 17 16 17 16 17 17 17 17 17 17 15 15 15 15 14 13 12 11 11 10 11 11 11 11 11 10 10 10 9 8 8
9 9 6 6 6 6 13 10 12 15 16 15 15 18 18 17 17 16 15 15 15 16 16 16 16 16 16 16 15 14 14 14 14 13 12 11 10 10 11 11 10 10 10 9 9 9 8 8 7
9 9 6 8 8 9 12 10 12 15 16 17 17 17 17 17 16 15 14 14 13 14 15 15 15 15 15 15 14 13 13 12 13 12 11 11 10 10 10 10 10 10 9 9 9 8 8 7 7
8 7 9 7 8 5 9 12 14 15 15 15 16 17 17 17 16 14 13 13 13 13 15 15 14 14 14 14 13 12 10 12 12 11 11 10 10 9 9 10 10 9 9 8 8 8 7 6 6
10 10 6 6 4 7 10 11 12 14 14 14 13 15 16 16 14 13 12 12 12 13 15 15 14 14 13 13 12 11 10 10 10 11 10 10 9 9 9 9 9 8 8 8 7 7 6 5 5
8 7 8 8 7 6 7 10 14 13 13 14 13 15 14 13 13 12 12 11 12 13 14 14 13 12 12 12 11 10 10 10 10 10 8 8 9 9 9 8 8 8 7 7 6 6 5 5 4
9 8 8 5 6 6 5 8 14 12 13 12 13 14 14 14 13 12 11 11 11 12 13 13 13 12 12 11 10 10 9 9 9 8 8 8 8 8 8 7 7 7 6 6 6 5 4 4 3

GFSSGP_850_temp_033.txt.gz
Temp
18 18 19 19 15 13 15 17 20 21 24 24 24 24 23 23 23 20 20 20 19 20 18 18 18 18 18 17 17 16 16 16 15 15 14 13 13 13 13 14 14 13 14 14 15 15 15 14 13
18 18 18 19 14 14 14 18 19 20 23 25 25 25 24 22 22 20 20 19 20 20 18 18 18 18 18 17 17 17 17 16 14 14 14 13 13 13 14 14 14 14 14 14 14 14 14 14 14
17 17 18 14 13 14 15 19 20 22 24 24 24 25 24 21 22 21 20 19 19 19 18 18 18 18 18 17 17 17 16 14 14 14 14 13 13 14 14 14 14 14 14 14 15 14 14 15 15
17 17 18 14 15 16 17 19 22 23 24 24 24 22 22 22 22 21 20 20 19 19 18 18 18 18 18 17 17 17 15 15 14 14 14 14 14 14 14 14 14 14 14 14 15 14 14 14 14
16 16 13 14 15 17 17 19 22 23 23 24 24 22 21 21 22 21 19 19 18 18 18 18 18 18 18 17 17 17 16 15 15 15 14 14 14 14 14 14 14 14 14 14 14 14 14 14 13
15 16 12 14 15 17 17 22 21 22 23 24 23 23 21 20 21 20 19 19 18 18 18 18 18 18 17 17 18 17 16 16 15 15 14 14 14 14 14 14 14 14 14 14 14 14 14 13 13
14 12 12 15 15 16 18 22 20 21 23 23 24 22 20 20 20 20 19 19 19 18 18 17 17 17 17 17 18 18 18 16 15 15 14 14 14 14 14 14 14 14 14 14 14 14 13 13 13
16 12 14 13 15 15 19 21 23 22 21 24 24 20 19 20 19 20 19 19 19 18 18 18 17 17 17 17 17 18 18 18 17 16 14 14 14 14 14 14 14 14 14 14 14 13 13 13 13
16 12 12 14 15 17 20 19 22 22 23 23 22 21 21 20 19 19 19 18 18 18 18 18 17 17 17 17 17 17 17 17 17 16 15 14 14 14 14 14 14 14 14 14 13 13 13 13 13
13 12 13 16 16 17 19 18 20 22 22 21 22 21 20 20 19 19 19 19 18 18 17 17 17 17 16 16 16 17 17 17 17 15 15 15 14 14 14 14 14 14 13 13 13 13 13 12 12
14 11 15 16 18 18 18 18 19 19 18 21 21 20 20 21 20 19 19 18 18 18 18 17 17 17 17 16 16 16 16 17 17 16 15 14 14 14 13 13 14 13 13 13 12 13 12 12 12
12 15 15 16 17 17 17 17 16 17 18 18 20 20 20 19 20 19 19 18 18 18 17 17 17 16 16 16 17 16 16 16 16 16 15 14 14 13 13 13 13 13 13 12 12 12 12 12 12
13 14 16 16 17 16 17 16 16 16 17 19 19 19 19 20 19 19 19 19 19 18 18 17 17 17 17 16 16 16 15 15 16 16 15 14 14 13 13 13 12 13 12 12 12 12 12 12 12
15 15 15 15 15 15 15 15 16 16 18 18 18 19 18 18 19 20 20 20 20 19 19 18 17 17 17 16 16 16 16 15 15 15 14 14 14 14 13 13 13 12 12 12 12 12 12 12 13
14 13 13 13 14 14 16 13 13 16 17 16 17 18 19 18 18 18 19 20 19 20 19 19 18 17 17 17 16 16 16 14 14 14 14 14 13 13 13 13 13 12 12 12 12 12 12 12 13
13 12 11 13 14 15 14 13 14 16 16 15 16 17 17 18 18 18 19 19 20 19 20 19 18 18 17 17 16 16 15 15 15 14 14 14 14 13 13 13 13 13 12 12 12 12 12 12 12
12 10 10 12 14 14 13 13 14 15 16 15 16 16 17 17 18 18 18 19 19 20 19 20 19 18 18 18 17 16 15 15 15 15 14 14 14 13 13 13 13 13 12 12 12 11 12 12 12
11 10 11 11 14 15 13 12 12 16 16 15 16 17 17 17 18 18 18 19 19 19 19 19 19 19 19 18 17 16 16 15 15 15 15 14 14 13 13 13 13 13 12 12 12 12 12 12 12
12 12 11 12 13 13 12 11 12 13 14 14 15 15 17 17 18 18 18 19 19 19 19 19 19 19 19 18 17 16 16 15 15 15 15 14 14 14 13 13 13 12 12 12 12 12 12 11 11
11 10 10 11 13 12 10 11 12 12 13 14 14 14 16 17 17 17 18 18 18 19 19 19 19 19 19 18 18 17 17 16 16 15 15 14 14 14 14 13 13 12 12 12 12 12 12 11 11
11 10 10 10 10 10 9 9 10 12 13 13 14 14 15 16 16 17 17 17 18 18 18 18 19 18 18 18 17 17 17 16 16 16 15 14 14 13 14 13 13 12 12 12 12 12 11 11 11
10 10 10 10 8 7 9 6 7 11 12 13 14 14 15 15 16 16 17 17 17 17 17 18 18 18 18 18 17 17 17 16 16 16 16 14 14 14 13 13 12 12 11 11 12 11 11 11 11
10 10 9 9 8 6 7 6 6 9 11 12 13 16 16 18 18 17 17 17 17 17 17 17 17 18 17 17 18 18 17 16 16 16 16 16 16 13 13 12 12 11 11 11 11 11 11 10 10
10 9 9 8 6 2 6 6 7 10 13 15 14 16 17 17 17 17 16 16 16 16 16 16 17 17 17 17 17 17 17 16 16 16 16 15 14 13 13 11 11 11 11 11 11 10 10 10 9
8 6 2 3 6 5 8 6 7 12 13 14 13 16 17 16 17 16 16 16 16 15 15 16 16 16 16 17 17 16 17 16 16 16 16 16 13 12 12 11 10 11 10 11 10 10 10 9 9
7 7 3 6 5 6 9 8 10 12 14 15 17 17 18 18 16 16 15 15 15 15 15 15 15 15 16 16 16 17 16 16 15 15 15 14 12 13 11 10 9 9 9 10 9 9 9 8 8
8 5 8 6 6 2 6 8 11 13 12 12 12 14 14 16 17 14 13 13 13 14 15 15 14 15 15 15 16 16 16 15 15 14 13 12 11 11 11 10 9 9 9 9 9 9 8 7 7
8 8 5 2 2 5 6 8 10 12 12 12 11 11 13 14 13 12 13 13 14 14 14 14 14 15 15 15 15 15 15 15 14 14 12 11 10 10 10 9 8 8 7 8 8 8 7 7 6
7 8 8 6 3 4 5 7 10 12 11 11 10 12 12 12 13 13 13 13 13 13 14 13 14 14 14 14 14 14 13 13 13 12 11 11 10 9 9 8 7 6 7 8 7 7 6 6 5
7 6 6 2 4 3 2 7 13 12 11 11 12 12 11 11 12 13 12 12 13 13 13 12 13 13 13 13 13 12 12 12 12 11 10 9 8 8 7 7 6 6 7 6 6 6 6 5 4

GFSSGP_850_temp_036.txt.gz
Temp
18 18 18 19 15 12 14 16 18 18 21 23 24 23 23 21 21 20 20 20 19 19 18 18 17 17 18 18 18 18 17 16 15 14 14 14 14 14 15 14 12 13 14 14 14 15 14 14 14
17 18 18 18 13 14 14 16 18 18 21 23 24 23 22 21 21 21 20 20 20 20 19 18 18 18 18 18 18 18 18 17 16 15 14 14 14 15 15 15 14 14 14 14 14 14 14 14 13
17 17 18 14 12 13 14 17 20 21 23 23 24 23 22 21 22 22 21 20 19 20 19 18 18 18 18 18 18 19 18 16 14 14 14 14 14 15 15 15 15 15 14 14 14 14 14 14 14
16 17 16 13 13 14 15 18 18 19 22 24 24 21 21 21 22 22 21 20 19 19 19 18 17 17 18 18 18 18 18 16 15 15 15 15 15 14 15 15 15 15 15 15 15 15 14 14 14
15 15 12 13 13 14 15 18 19 18 21 23 23 21 21 21 21 22 21 21 20 19 19 18 17 17 17 18 18 18 17 16 15 15 15 15 14 14 14 14 14 14 15 15 14 14 14 14 13
14 14 11 13 13 15 16 19 19 19 21 23 22 20 20 20 21 21 20 19 19 20 18 18 17 17 17 17 18 18 18 17 16 15 15 14 14 14 14 14 14 14 14 14 14 14 14 13 13
12 10 11 12 13 14 16 19 19 19 20 22 23 18 19 19 19 20 19 18 18 18 18 17 17 16 16 17 17 17 18 17 17 15 15 14 14 14 14 14 14 14 14 14 14 13 13 13 13
15 11 12 12 14 14 17 20 21 20 19 23 23 17 18 20 19 19 18 18 18 18 18 18 17 16 16 16 17 17 18 18 17 16 15 14 14 14 14 14 14 14 14 14 13 13 13 13 13
15 10 10 13 13 15 18 17 20 21 21 22 21 22 23 21 19 19 18 18 18 17 17 17 17 17 17 16 16 16 17 17 17 15 15 14 14 14 14 14 14 14 14 13 13 13 13 13 13
12 10 11 14 15 16 17 17 18 19 21 20 21 21 21 20 19 19 19 18 18 17 18 17 17 17 17 16 16 16 17 17 18 16 15 15 14 14 14 14 14 14 13 13 13 13 13 12 12
12 10 13 14 16 16 16 16 17 18 18 18 19 20 19 19 19 19 19 19 19 18 17 17 17 17 17 16 16 16 17 17 17 16 15 15 15 14 14 14 14 14 13 13 13 12 12 12 12
12 13 15 15 16 15 16 17 16 17 18 19 18 18 18 19 19 19 19 19 19 18 18 17 17 17 17 16 17 16 17 17 17 16 15 15 15 15 14 14 14 14 13 13 13 12 12 12 12
12 13 15 15 16 15 16 15 15 16 18 19 17 18 18 19 19 19 19 18 18 18 18 18 17 17 17 16 16 16 17 16 17 16 16 15 15 15 14 13 13 13 13 13 13 12 12 12 12
13 14 14 15 14 14 14 14 15 15 17 18 18 18 18 18 19 18 18 18 18 18 18 18 18 17 17 17 17 17 16 17 16 16 16 16 15 15 14 13 13 13 13 12 12 12 12 12 12
13 12 13 13 14 14 15 13 12 16 17 17 18 18 18 18 19 18 19 19 19 18 18 18 18 18 18 17 17 17 16 16 16 15 15 15 15 15 14 13 13 13 12 12 12 12 12 12 12
12 11 11 13 14 14 14 13 14 16 16 16 16 17 17 18 18 19 19 19 19 19 19 18 18 18 18 18 17 17 16 16 16 15 15 15 15 14 14 13 13 12 12 12 12 12 11 12 12
11 10 10 11 13 13 12 12 13 16 15 15 16 16 16 17 19 18 19 19 19 19 19 19 18 17 18 18 17 17 17 16 16 15 14 14 14 14 13 13 13 12 12 12 12 12 11 12 12
10 9 10 10 13 12 11 10 12 14 13 14 15 15 16 16 17 18 18 18 18 19 19 19 19 18 18 18 18 17 17 16 16 15 15 14 14 14 13 13 13 12 12 12 12 12 11 12 12
11 12 11 11 12 11 11 10 10 12 12 12 14 14 15 16 17 17 17 18 18 18 18 19 19 18 18 17 17 17 17 16 16 15 15 15 14 14 13 13 13 12 12 13 12 11 11 12 12
11 11 10 10 11 11 10 9 11 11 12 13 13 14 14 15 17 17 17 17 17 18 18 18 19 19 18 18 17 17 17 17 16 16 15 15 14 14 14 13 13 12 12 12 12 11 12 12 12
10 9 9 9 9 10 8 11 11 10 12 13 13 13 13 14 15 17 17 17 17 17 17 18 18 18 19 18 18 17 16 17 16 16 15 15 15 14 15 14 13 13 13 12 12 12 12 12 12
9 10 10 9 8 7 8 7 7 9 9 11 12 13 14 15 16 16 16 16 17 17 17 17 17 17 18 18 17 17 16 16 16 16 16 15 15 16 15 13 13 13 13 12 12 12 12 11 11
9 9 9 9 7 5 6 5 6 7 10 11 11 16 17 17 18 18 17 17 17 16 16 17 17 17 17 17 17 17 17 17 17 17 16 16 16 15 15 14 13 13 13 12 11 11 11 11 11
9 8 6 6 5 2 5 6 6 9 12 14 14 15 16 17 18 18 17 16 16 16 16 16 16 17 17 17 16 17 17 17 17 16 16 16 16 15 15 14 13 13 13 12 11 11 11 11 10
8 6 3 3 4 5 7 5 6 8 10 12 11 14 16 17 17 17 16 16 15 16 16 16 16 16 16 16 16 16 16 17 17 17 17 16 16 15 15 14 13 11 13 11 11 10 10 10 10
7 6 3 6 4 5 7 7 9 9 11 13 13 13 14 14 14 15 16 16 16 16 16 16 16 16 16 16 16 16 16 16 16 16 16 16 16 16 15 14 11 10 12 10 10 9 9 9 9
7 5 7 5 5 1 5 6 8 10 11 11 11 12 12 12 13 13 13 13 13 14 14 15 15 15 15 15 16 15 15 15 16 16 16 16 15 15 14 12 10 10 10 9 8 8 8 7 8
8 7 4 -0 -0 4 5 5 8 11 11 10 9 11 12 12 12 11 12 12 13 13 14 14 14 15 15 14 15 15 15 15 15 16 16 15 15 14 12 10 10 9 9 8 7 7 6 6 7
6 6 6 4 2 3 4 6 8 11 11 11 8 11 11 11 10 10 10 12 12 13 13 14 14 14 15 14 15 14 14 14 14 15 15 14 13 12 11 10 9 8 8 5 5 5 4 5 6
6 6 5 1 3 2 2 6 9 9 10 9 11 10 10 9 9 9 8 10 11 12 13 13 13 14 15 14 14 14 13 13 12 14 13 13 11 10 10 8 7 6 5 4 4 4 4 4 4

GFSSGP_850_temp_039.txt.gz
Temp
17 18 18 18 14 12 14 15 16 17 20 22 22 22 22 22 21 20 20 20 20 20 18 18 17 16 16 16 16 15 15 15 15 14 14 14 14 14 15 13 13 14 13 14 14 14 15 14 14
17 17 18 17 12 13 13 15 17 18 20 22 22 22 21 21 21 21 20 20 20 20 19 19 18 17 17 17 16 16 16 15 14 15 15 14 14 15 15 13 12 13 13 14 14 14 14 14 13
17 17 17 13 11 12 14 15 17 19 21 21 22 22 22 21 21 22 22 21 19 19 20 20 19 17 17 17 17 17 17 16 16 15 14 14 15 16 16 15 12 14 14 14 14 14 14 14 14
16 16 16 12 13 14 15 17 17 17 21 22 22 20 21 21 22 21 21 21 20 19 19 20 19 18 17 17 17 17 17 16 15 15 15 15 15 15 15 15 15 15 14 14 14 14 14 14 14
15 15 11 12 13 13 14 17 17 16 18 20 21 20 21 21 22 21 21 20 20 19 19 19 19 18 17 17 18 18 17 15 15 16 16 16 16 15 15 15 15 15 15 15 15 14 14 14 13
14 13 10 12 13 14 15 17 18 18 19 21 21 20 20 21 22 22 20 20 19 19 18 18 18 17 17 17 18 17 17 16 16 16 16 16 16 15 15 15 15 15 15 14 14 14 13 13 13
12 10 11 12 13 13 15 18 17 18 18 20 21 17 19 21 21 21 20 19 18 18 18 18 17 17 17 17 17 17 17 16 16 16 16 16 15 15 15 15 15 14 14 14 13 13 13 13 13
14 10 11 11 12 14 16 18 19 19 19 21 21 17 18 21 20 20 18 18 17 17 17 18 18 17 17 16 17 17 17 16 16 16 15 15 15 15 15 15 15 14 14 13 13 13 13 13 13
14 10 9 12 12 14 16 17 18 19 19 20 20 21 21 21 20 19 18 17 17 17 17 18 18 17 17 17 17 16 16 15 16 16 15 15 15 15 15 15 15 14 14 13 13 13 12 12 13
11 9 11 12 13 15 16 16 16 18 18 19 20 21 20 19 20 20 19 18 17 17 17 17 17 17 17 17 16 16 16 16 16 15 15 15 15 15 15 15 14 14 14 13 13 13 13 12 12
11 10 12 14 15 15 15 15 17 16 16 18 18 18 18 18 18 19 19 20 20 18 18 18 17 17 17 17 17 17 17 17 16 15 15 15 15 14 14 14 14 14 13 13 13 13 13 12 12
11 12 13 14 15 15 15 16 15 17 17 18 17 17 17 18 18 18 19 19 19 18 18 18 18 17 17 16 17 17 17 17 16 16 15 15 15 14 14 14 14 14 13 13 13 12 12 12 12
11 12 13 15 15 14 15 14 14 15 17 17 18 18 18 18 18 17 18 18 18 18 18 18 18 18 17 17 16 16 17 17 17 17 16 15 15 15 14 14 13 13 13 13 12 12 12 12 12
12 13 13 14 14 14 14 13 15 15 17 17 17 17 18 18 18 18 18 18 18 18 18 18 18 17 17 17 17 17 16 16 16 16 17 16 15 14 14 13 13 13 13 12 12 12 12 12 12
13 12 12 12 13 13 14 12 11 15 16 16 17 17 17 18 18 18 18 17 18 18 18 18 18 18 17 17 17 16 16 16 16 16 16 16 15 15 14 13 13 13 12 12 12 12 12 12 11
11 11 10 12 12 13 14 12 13 15 16 16 16 17 18 18 18 19 19 18 18 18 17 17 17 17 17 17 17 17 17 17 16 16 16 16 16 15 14 13 13 12 12 12 12 12 11 11 11
10 8 10 12 12 13 11 11 13 15 15 14 16 17 17 17 18 18 19 19 19 19 18 18 18 17 17 17 17 17 17 17 17 16 16 16 15 15 14 13 13 12 12 12 12 12 11 11 11
9 10 10 10 12 11 10 9 11 13 13 12 14 15 16 16 17 17 17 18 18 19 19 18 18 18 18 17 17 17 17 17 16 16 16 16 15 14 14 13 13 12 12 12 12 11 11 11 11
10 10 10 11 12 11 10 9 10 12 12 11 13 14 15 16 17 17 17 17 17 17 18 19 18 18 18 18 17 17 17 17 16 16 16 16 15 14 14 14 13 13 12 12 12 12 11 11 11
11 10 9 10 11 11 9 8 10 11 12 13 13 14 15 15 16 17 17 17 17 17 17 17 18 18 18 18 18 17 17 17 17 17 16 16 15 16 15 14 13 13 13 12 12 12 12 11 11
10 10 9 9 9 9 7 9 10 11 11 12 13 13 14 14 14 16 17 17 17 17 17 17 17 17 18 17 17 17 17 17 16 16 16 16 16 16 16 16 14 13 13 12 12 12 12 11 12
9 10 10 9 8 7 8 7 7 9 9 9 11 13 14 15 16 16 17 17 16 16 17 17 17 17 17 17 16 17 17 17 17 17 16 16 16 16 16 15 15 13 13 13 12 12 12 11 11
9 9 9 8 6 6 6 5 7 8 10 10 10 13 13 15 16 17 18 18 17 16 16 16 16 16 17 16 16 17 16 17 17 17 17 16 16 16 16 16 16 14 13 12 12 12 12 12 11
8 8 5 4 5 2 6 6 7 9 11 9 10 14 13 14 15 17 17 17 17 17 17 16 16 16 16 16 16 16 16 16 16 16 16 16 16 16 15 15 15 14 13 12 11 12 12 11 11
7 6 3 3 2 5 5 5 7 8 9 9 8 11 12 12 13 14 14 13 14 16 16 16 16 16 16 16 16 16 16 16 16 16 16 16 16 16 15 15 15 15 14 13 11 11 11 11 10
7 6 4 6 4 4 5 6 9 9 10 10 10 11 12 12 12 12 12 12 12 13 13 14 15 16 16 16 16 16 16 16 16 16 16 16 16 16 16 16 15 15 14 12 11 10 10 9 8
6 4 6 4 3 1 5 6 8 9 8 9 10 11 11 11 11 11 11 12 11 12 13 13 14 14 15 15 16 16 16 15 15 16 15 16 16 16 16 15 15 14 13 10 10 9 8 7 8
7 6 4 -0 3 5 5 5 7 9 9 9 7 10 10 10 10 10 10 10 10 11 12 13 13 14 14 14 15 15 15 15 15 15 15 15 15 15 15 15 14 13 10 9 9 8 7 6 6
6 6 4 4 3 4 4 7 6 10 9 8 8 9 9 9 8 9 8 8 8 9 11 12 12 13 13 14 14 14 15 14 14 14 14 14 14 14 14 13 12 10 9 9 8 6 6 5 4
6 6 4 1 3 1 3 5 8 7 9 9 9 10 9 9 7 7 7 7 7 8 9 10 12 12 12 13 13 14 14 13 13 13 12 12 12 11 10 10 9 9 8 7 5 5 4 4 4

GFSSGP_850_temp_042.txt.gz
Temp
17 17 18 18 14 11 13 14 15 17 19 20 20 21 20 22 21 19 20 19 20 20 18 16 16 16 15 15 15 16 16 15 15 13 13 15 15 15 15 13 14 14 15 14 14 13 14 14 14
17 17 18 17 12 12 12 14 16 17 19 20 21 21 21 21 21 21 20 20 20 20 19 18 17 16 15 15 15 15 15 15 14 13 13 15 14 15 14 13 13 13 14 14 14 14 14 14 13
16 17 17 12 10 12 13 14 15 18 20 20 21 21 21 21 22 22 21 21 21 20 20 19 18 18 15 15 15 16 15 15 14 13 13 14 15 16 15 13 13 13 14 14 14 14 14 14 14
16 16 16 12 12 12 14 17 16 16 20 20 20 18 20 21 21 22 22 21 21 19 20 19 19 18 17 17 17 17 15 14 14 14 14 15 16 16 16 15 15 14 14 14 14 14 14 14 13
15 15 11 11 12 13 13 16 17 16 17 19 20 19 20 21 21 21 21 21 20 19 19 19 19 19 18 17 17 17 17 16 15 15 15 16 16 16 16 16 15 14 14 14 14 14 14 14 13
14 13 10 12 12 14 14 17 17 17 18 19 19 19 20 21 21 21 21 20 19 19 19 18 18 19 19 18 18 18 17 14 15 15 16 16 16 16 16 16 16 15 15 15 14 14 13 13 13
11 10 10 12 13 13 14 17 17 17 17 19 20 18 20 21 22 21 20 20 19 18 18 19 19 18 18 17 17 17 18 15 15 16 16 16 16 16 16 15 15 15 14 14 14 13 13 13 13
14 10 10 10 12 13 16 17 18 18 18 19 20 18 20 21 22 20 19 19 18 18 18 18 19 18 18 18 17 17 17 16 15 16 16 15 15 15 15 15 15 15 14 14 14 13 13 13 13
13 9 9 12 12 14 16 16 17 18 18 19 20 20 20 21 20 20 18 18 17 17 17 18 18 18 18 18 17 17 16 16 15 15 15 15 15 15 15 15 15 14 14 14 13 13 13 13 13
11 8 10 12 12 14 15 16 16 17 16 18 19 18 19 20 19 20 20 19 17 17 17 17 18 18 18 18 17 17 17 17 16 15 15 15 15 15 14 14 14 14 13 13 12 13 13 13 12
10 9 12 13 14 15 14 15 16 16 16 17 17 16 17 17 18 18 18 19 20 18 18 17 17 17 17 17 17 17 17 17 16 16 15 15 14 14 14 14 14 13 13 13 13 13 12 12 12
11 12 12 14 14 14 14 15 15 16 16 17 18 17 16 15 16 17 18 19 19 19 19 18 17 17 17 16 16 17 17 17 17 16 15 15 14 14 14 14 14 14 13 13 13 12 12 12 12
11 12 13 14 14 14 14 14 13 14 16 17 17 17 17 17 16 16 16 17 17 18 18 18 18 17 17 17 16 16 16 17 17 17 16 15 15 14 14 14 14 14 13 13 13 12 12 12 12
11 12 13 13 13 13 13 13 14 14 16 16 17 17 17 17 18 17 17 17 17 18 18 18 18 17 17 17 16 16 16 16 16 16 16 15 15 14 14 14 14 13 13 13 12 12 12 12 12
12 11 11 11 13 12 13 11 10 15 15 15 16 16 17 17 18 18 18 18 17 18 18 18 18 17 17 17 17 16 16 16 16 16 16 16 15 14 14 14 14 13 13 13 12 12 12 12 11
10 11 10 12 11 13 14 11 13 15 15 15 15 16 16 17 18 18 19 19 18 17 17 17 17 17 17 17 17 17 17 17 16 16 16 16 15 14 14 14 13 13 13 12 12 12 12 11 11
9 8 9 11 11 12 11 10 13 14 13 13 14 15 15 16 16 17 18 18 18 18 17 17 17 17 17 17 17 17 17 17 17 16 16 16 15 15 14 14 13 12 12 12 12 12 12 11 11
9 10 9 10 12 10 10 8 10 13 13 12 13 14 15 15 16 17 18 17 17 17 18 17 17 17 18 18 17 16 17 16 16 16 16 15 15 15 15 14 13 13 12 12 12 12 11 11 11
9 10 10 10 11 11 9 8 9 11 11 11 13 14 15 16 17 17 17 17 17 16 17 17 18 18 17 17 18 17 17 17 17 17 16 16 16 15 14 14 14 13 13 13 12 12 11 11 11
10 9 9 10 10 10 8 8 9 11 11 12 13 14 15 16 16 16 16 16 17 17 17 17 17 17 17 17 17 18 18 18 17 17 16 16 16 15 15 15 14 13 13 12 12 12 12 11 11
10 10 9 9 9 8 6 8 9 10 11 11 13 13 13 13 14 15 14 14 15 16 17 16 16 17 17 17 17 17 17 17 17 17 17 17 16 16 16 15 15 13 13 13 13 12 12 12 11
9 10 9 9 8 7 7 7 7 9 8 9 10 11 11 13 14 13 14 16 16 16 16 16 17 17 16 16 16 16 17 17 17 18 18 17 17 16 16 15 15 15 13 13 13 12 12 11 11
8 9 8 7 6 6 7 5 8 8 10 10 8 10 11 11 12 12 13 15 16 16 16 15 16 16 16 16 16 16 16 16 16 16 17 17 16 16 16 15 15 15 15 13 12 12 12 11 11
7 7 5 4 4 2 6 6 8 9 9 8 8 9 11 11 12 13 12 13 13 13 14 16 16 15 15 16 16 16 16 16 16 15 15 16 16 16 16 15 15 15 15 14 13 12 11 11 11
7 7 4 4 2 5 5 5 7 8 8 9 8 9 10 11 12 12 12 12 12 12 13 13 13 14 15 15 15 15 16 16 16 16 15 15 15 16 16 15 15 15 15 15 14 12 11 10 10
7 7 4 7 5 5 5 5 9 7 9 9 9 10 11 11 10 10 10 11 12 12 12 12 12 13 14 14 14 14 14 14 15 16 16 16 16 16 16 16 15 15 15 14 14 11 10 10 9
6 4 5 3 2 1 4 5 7 9 8 9 9 10 10 10 10 10 10 9 10 10 11 12 12 12 13 13 13 14 14 14 14 15 15 15 15 15 15 15 15 15 14 14 14 12 10 9 8
7 5 4 -1 3 5 6 5 7 9 9 7 8 8 10 10 9 9 8 8 8 9 10 11 11 12 12 13 13 14 14 14 14 14 14 14 15 14 14 14 14 14 14 13 11 10 9 8 7
6 5 3 3 2 4 5 8 5 8 8 7 7 9 9 9 8 8 7 7 7 8 8 8 9 10 11 12 12 13 13 14 14 13 14 13 13 13 13 12 12 12 11 10 10 9 8 7 6
6 5 4 1 2 1 2 5 7 7 8 7 8 10 8 7 6 6 6 6 6 6 7 7 8 9 9 10 11 12 12 13 13 12 12 13 12 11 11 10 10 9 9 9 8 7 6 6 5

GFSSGP_850_temp_045.txt.gz
Temp
17 17 18 18 17 15 16 17 16 18 19 19 19 20 21 20 22 23 21 20 20 19 18 16 16 17 16 16 16 16 15 15 15 14 15 15 15 15 15 15 15 15 15 14 14 13 14 14 14
17 17 17 17 16 16 17 15 17 18 19 19 19 20 20 22 21 21 20 19 19 20 20 18 17 16 16 15 15 16 16 15 14 13 14 15 15 15 14 14 14 14 14 14 14 14 14 14 14
16 17 17 15 13 16 17 16 17 17 19 19 20 20 20 20 20 21 20 21 20 20 21 19 17 16 16 15 15 15 15 15 14 13 15 15 16 15 14 13 13 13 13 13 14 14 14 14 14
16 16 15 15 14 14 16 17 15 16 18 19 19 20 20 20 20 21 20 20 20 20 20 19 17 15 15 15 14 15 15 15 14 14 15 15 16 15 14 14 13 13 14 14 14 14 14 14 14
15 16 14 13 14 14 14 15 16 17 17 19 19 20 20 20 20 21 21 20 20 19 19 18 18 17 17 17 15 16 15 15 14 14 15 15 16 16 15 15 15 14 14 14 14 14 14 14 13
14 14 13 14 14 15 15 16 16 16 17 19 19 19 20 20 20 21 21 20 19 18 18 18 17 17 19 17 17 17 17 17 15 15 15 16 16 16 15 15 14 14 14 14 14 14 14 14 13
12 13 13 13 15 15 15 16 16 17 17 19 20 20 21 20 20 20 21 20 19 18 18 18 18 18 17 18 18 17 17 15 15 15 16 16 16 15 15 15 15 15 15 14 14 14 13 13 13
13 13 12 12 14 16 16 17 18 17 18 19 20 19 20 19 20 20 20 19 19 18 18 18 18 18 18 18 19 18 17 15 16 15 16 16 15 15 15 15 14 14 14 14 14 13 13 13 13
12 12 11 13 13 15 15 15 17 17 17 18 19 19 20 19 20 19 19 19 19 18 18 17 18 18 18 18 18 18 18 17 15 16 15 15 15 15 14 14 14 14 14 13 13 13 13 13 13
12 11 11 12 14 14 15 16 16 17 16 17 18 17 19 20 19 19 18 19 19 18 17 17 17 18 18 18 18 17 18 18 16 16 15 15 14 15 14 14 14 14 13 13 13 13 13 13 13
10 11 12 13 14 15 14 14 16 16 16 17 17 17 17 17 16 16 18 18 18 18 18 17 17 17 17 17 17 17 17 18 17 16 15 15 14 14 14 14 14 14 14 13 13 13 13 13 12
11 11 12 14 14 14 14 14 14 15 16 17 17 17 17 16 15 15 15 17 17 17 18 17 17 17 17 17 17 16 17 17 17 17 16 16 15 14 14 14 14 14 14 13 13 13 13 13 12
11 11 13 14 14 14 14 13 14 14 16 16 16 17 17 17 16 16 16 16 17 17 18 18 18 18 17 17 17 16 16 16 16 16 16 15 15 15 14 14 14 14 13 13 13 13 13 12 12
11 12 12 13 13 13 13 13 13 15 16 16 16 16 17 17 17 17 16 16 16 17 17 18 18 18 17 18 17 16 16 16 16 16 16 16 15 15 14 14 14 13 13 13 13 12 12 12 12
11 11 11 12 12 13 13 12 11 15 15 15 16 16 16 16 17 18 18 17 17 17 17 17 17 17 17 17 17 17 16 16 16 16 16 16 15 15 15 14 14 13 13 13 13 12 12 12 12
10 11 10 12 11 12 13 12 13 14 14 14 15 15 15 16 17 17 18 18 18 18 18 18 17 17 17 17 17 17 17 17 16 16 16 15 15 15 15 15 14 13 13 13 12 12 12 12 12
9 9 9 11 11 12 12 11 12 13 13 13 14 15 15 15 16 17 18 18 18 18 18 18 18 17 17 17 17 17 17 17 17 16 16 16 15 15 14 14 14 13 13 12 12 12 12 12 11
9 9 9 10 11 10 10 10 11 13 12 12 13 14 15 15 16 17 17 17 17 17 17 17 17 17 17 17 17 16 16 17 16 17 16 16 16 15 14 14 14 13 13 12 12 12 11 12 11
10 9 10 10 10 10 10 9 10 11 11 11 13 14 15 16 16 16 16 16 16 16 16 16 16 17 17 17 17 17 17 18 17 17 17 17 16 16 15 15 14 13 13 13 12 12 11 11 11
10 9 9 10 9 10 9 9 10 11 11 11 11 11 12 13 13 14 14 15 15 16 16 16 16 16 16 16 17 17 17 18 18 18 17 17 17 16 16 15 15 14 13 13 12 12 12 11 11
10 9 8 10 9 8 7 10 10 10 10 10 10 10 11 11 12 13 14 14 15 15 15 15 16 16 16 16 16 16 16 16 16 17 18 17 17 17 16 16 16 15 14 13 13 13 12 12 11
9 10 9 9 9 9 7 10 9 9 9 8 8 9 10 11 11 12 12 13 13 14 14 15 15 16 16 16 15 15 16 16 17 17 17 18 17 17 17 16 16 16 15 13 13 13 12 12 11
9 9 8 7 7 7 7 8 10 9 10 9 8 9 9 10 11 11 12 12 12 12 13 14 15 15 15 15 14 14 16 16 16 16 16 16 17 17 16 16 16 16 15 15 14 13 12 12 11
8 7 6 5 6 7 6 7 10 10 9 8 8 9 9 10 10 11 11 12 13 13 13 13 13 13 14 14 14 13 14 15 15 15 16 16 16 16 16 16 15 15 15 15 15 14 12 12 11
7 7 7 7 5 8 5 6 9 8 8 9 9 9 9 10 10 10 11 11 12 13 13 13 13 13 13 13 13 13 13 14 13 14 14 15 15 15 16 16 15 15 15 15 14 14 13 12 11
7 8 7 9 8 8 5 6 10 8 7 9 9 9 9 10 9 9 8 9 9 10 11 12 12 13 12 12 12 13 13 13 13 14 14 14 14 14 15 15 15 15 15 14 14 14 14 12 10
7 6 5 4 3 5 7 6 7 8 8 8 9 10 10 9 9 9 8 7 8 8 9 10 11 12 12 12 12 12 13 13 13 13 13 13 14 14 14 14 14 15 15 14 14 14 14 13 10
7 5 6 3 6 8 7 6 9 8 8 7 8 8 9 9 8 8 7 7 7 7 7 8 8 9 10 11 11 12 12 12 13 13 14 13 13 14 13 13 12 13 13 14 13 12 11 10 9
6 5 4 4 3 7 8 10 6 8 8 7 7 9 9 8 7 7 7 6 7 7 7 7 7 8 8 9 10 10 11 12 12 13 13 13 13 13 12 11 11 11 11 10 10 10 10 9 9
6 5 4 4 4 2 3 7 7 7 7 7 8 9 9 8 7 6 6 6 5 7 7 7 7 8 9 9 10 10 10 11 12 12 13 12 12 12 11 10 10 9 9 9 9 9 8 8 7

GFSSGP_850_temp_048.txt.gz
Temp
17 17 18 19 21 21 22 22 22 22 23 22 21 23 25 24 26 26 20 19 18 17 16 17 16 17 17 17 16 16 16 15 15 14 15 15 15 15 16 15 15 15 15 14 14 14 15 15 14
17 17 18 19 21 21 23 23 22 23 22 21 21 21 23 26 21 19 18 19 17 17 16 16 16 17 17 17 16 16 15 15 14 13 15 15 15 15 15 14 14 14 14 14 14 14 15 15 14
16 17 19 21 20 21 22 22 23 21 21 22 23 22 23 23 20 19 19 19 16 16 16 16 16 17 16 16 15 15 15 15 14 13 16 15 15 15 14 14 14 14 14 14 14 14 15 15 14
15 17 17 20 20 21 22 22 21 21 21 21 21 24 22 21 19 19 20 20 16 16 16 17 16 16 15 15 15 15 16 15 14 15 16 16 16 15 14 14 13 13 14 14 14 15 15 15 14
15 18 20 19 20 21 21 21 20 21 21 22 21 24 23 19 21 20 20 19 17 16 16 16 16 15 14 15 15 14 15 14 14 15 15 16 16 16 15 14 14 13 14 14 15 15 15 14 14
16 18 19 19 20 21 21 20 20 21 21 22 22 23 23 21 20 20 20 17 16 16 15 15 15 15 15 15 15 15 15 14 14 15 15 16 16 16 16 15 14 14 14 14 15 15 14 14 13
17 18 19 20 20 20 20 20 20 21 21 22 21 24 22 19 20 20 20 17 16 16 16 15 15 15 15 14 16 16 15 14 14 15 15 16 16 16 16 15 15 14 14 15 14 14 14 13 13
16 18 19 19 19 20 21 19 20 20 22 20 20 23 23 17 20 20 20 19 18 16 16 15 15 14 14 16 17 16 16 14 14 15 16 16 15 15 15 15 15 15 14 14 14 14 13 13 13
13 18 18 18 18 19 19 20 18 18 20 20 20 19 18 19 19 19 19 18 18 15 15 15 15 14 14 14 17 16 16 14 14 15 16 15 14 15 15 15 15 14 14 14 13 13 13 13 13
16 17 19 19 19 19 18 19 19 19 19 20 19 18 18 19 18 16 17 18 18 17 16 15 14 14 15 16 15 16 14 14 13 15 16 14 12 12 12 14 14 14 12 12 13 13 13 13 13
15 17 18 16 17 16 18 18 18 20 20 20 20 18 16 18 16 15 15 17 19 19 18 17 16 15 16 16 15 14 14 13 13 13 13 13 12 12 13 12 14 12 13 11 13 13 13 13 13
14 16 16 16 14 15 17 18 18 19 20 18 17 17 17 16 15 15 15 16 17 18 18 18 17 17 17 17 17 15 14 13 13 14 13 13 13 12 12 12 11 12 11 12 11 12 13 13 13
15 15 15 15 14 15 15 17 18 17 17 16 16 17 17 17 17 16 15 15 17 18 17 17 18 16 17 17 15 15 14 16 14 14 15 13 13 12 12 12 12 11 12 12 11 13 13 13 13
14 14 15 15 15 14 15 16 15 17 16 16 16 16 17 17 17 17 16 16 16 16 16 17 17 17 14 17 17 17 16 15 16 15 15 16 14 14 13 12 12 12 11 11 12 13 13 13 12
13 14 15 14 15 16 15 15 15 16 17 17 17 17 16 16 16 16 17 17 17 17 16 15 16 17 17 17 17 16 16 17 17 16 13 14 15 14 14 13 12 12 11 12 13 13 13 13 12
13 14 13 16 15 14 15 16 16 15 16 16 17 17 17 16 16 16 16 16 16 17 16 16 15 16 16 17 18 18 17 17 17 16 16 15 15 15 14 13 12 12 11 12 13 13 13 12 12
14 14 14 14 14 16 15 16 17 16 15 16 16 16 16 15 15 17 17 17 17 17 17 17 17 16 15 18 17 17 17 17 17 16 17 17 16 15 14 14 12 11 11 12 13 13 12 12 12
13 14 13 14 14 13 14 15 15 15 14 15 15 16 16 16 16 16 16 15 16 16 17 17 17 16 16 15 16 17 17 17 16 17 17 17 17 17 15 14 13 12 12 12 13 13 12 12 12
14 13 14 14 13 13 14 14 15 15 15 15 16 16 16 16 15 14 15 15 15 16 16 16 16 17 16 14 15 16 17 17 17 17 17 16 17 17 16 16 14 14 13 11 13 13 12 12 11
13 13 14 12 12 13 13 13 15 15 15 14 13 14 14 14 13 12 14 15 15 16 16 16 16 16 16 16 14 16 17 17 17 17 17 17 17 17 16 16 16 15 14 12 12 13 12 11 11
12 13 13 13 12 11 12 15 14 13 12 11 11 11 11 12 12 12 12 12 14 15 15 15 15 16 16 16 15 13 13 13 15 17 18 18 18 17 17 17 16 16 15 14 14 13 13 12 12
12 12 12 12 12 14 11 16 13 13 12 12 12 11 11 11 11 11 11 11 12 12 13 14 14 15 15 15 15 14 13 12 14 15 17 17 18 17 17 17 17 16 16 15 15 14 13 12 12
11 11 11 11 12 11 12 13 14 13 12 12 12 11 10 10 10 10 10 12 12 12 13 13 13 14 14 15 15 14 12 12 12 12 12 14 16 16 17 17 16 16 16 16 16 15 14 13 12
10 10 9 9 11 11 12 12 15 14 14 12 12 11 10 10 10 10 10 11 12 12 12 13 13 13 13 14 14 14 13 12 12 11 12 12 13 14 15 15 15 15 16 15 16 15 14 13 12
9 11 10 10 10 12 9 10 15 13 12 13 12 11 10 10 10 9 9 9 10 11 12 12 13 13 13 13 13 12 13 12 11 11 11 11 11 14 15 15 14 14 15 15 15 15 15 13 11
7 8 12 12 12 12 8 11 14 12 11 12 10 10 9 10 9 9 8 8 8 9 10 11 11 12 12 12 12 12 12 13 13 13 12 10 11 11 13 14 14 14 14 14 13 14 14 14 13
8 8 9 9 7 10 13 12 12 11 11 11 11 11 11 10 9 8 7 7 7 8 8 8 9 10 10 10 11 11 12 12 12 13 13 13 12 12 13 12 13 12 13 13 13 13 14 14 13
10 9 9 8 10 12 13 12 15 11 11 12 12 12 11 10 9 8 7 7 6 7 7 7 7 8 8 9 9 10 10 11 11 12 12 13 13 12 12 13 12 12 12 11 10 10 10 10 10
9 9 8 10 9 12 13 14 13 13 13 11 12 11 10 9 8 7 6 6 6 7 7 7 7 8 8 8 9 9 10 10 11 11 11 12 12 12 13 12 11 10 11 10 10 10 9 9 9
9 10 10 11 9 7 8 14 11 13 12 11 11 11 10 8 7 6 5 5 5 6 6 7 7 7 8 8 8 9 9 10 10 11 11 11 11 12 11 12 11 8 9 9 9 9 9 9 8

GFSSGP_850_temp_051.txt.gz
Temp
17 17 18 19 22 23 24 25 26 25 25 25 24 25 27 26 27 25 19 19 19 18 17 18 16 16 17 17 17 16 16 15 15 14 15 15 15 15 15 15 15 15 14 14 14 15 15 15 14
15 17 18 21 21 22 24 26 24 25 24 23 24 24 25 27 24 21 20 18 19 18 16 16 16 17 17 17 16 16 15 15 15 16 15 15 15 16 14 14 15 15 14 14 14 15 15 15 14
17 17 20 21 22 22 24 25 25 24 23 24 25 24 25 25 22 22 19 18 19 19 17 16 17 17 17 16 16 15 15 14 14 15 16 15 16 15 14 15 15 14 14 15 14 15 15 15 15
15 17 19 21 22 23 25 25 25 24 23 23 24 26 24 21 22 20 18 18 19 19 18 17 17 17 16 16 15 15 15 14 13 14 16 16 16 14 14 14 14 14 15 15 14 15 15 15 14
16 19 20 20 21 24 25 24 23 24 24 24 24 26 25 20 19 19 18 19 19 19 18 17 16 16 16 15 15 15 15 14 13 16 16 16 16 15 15 14 13 13 14 14 15 15 15 14 14
17 19 19 20 22 23 24 23 23 23 24 24 24 25 24 20 19 18 18 19 19 18 17 15 16 15 15 15 15 14 15 14 14 15 16 16 16 16 16 15 14 13 14 15 15 15 14 14 14
17 19 19 21 23 23 24 23 23 23 24 24 24 25 23 21 17 17 18 19 18 18 17 16 15 14 15 15 15 14 15 14 14 15 16 16 16 16 16 16 15 14 14 15 15 15 14 14 14
16 20 19 21 22 22 24 22 22 22 23 23 22 24 24 20 17 19 18 18 18 17 17 17 15 15 14 14 14 14 15 15 15 15 15 16 16 16 16 16 15 15 15 15 15 14 14 14 14
15 17 19 20 21 23 23 23 22 22 22 22 22 22 19 18 19 19 19 18 17 17 17 17 17 16 15 15 15 15 16 15 14 15 16 16 16 15 16 16 16 15 15 14 14 14 14 14 14
16 17 19 21 22 21 22 21 22 21 22 22 21 20 18 18 20 19 17 16 17 16 17 17 17 16 16 15 15 16 15 14 14 14 16 15 13 14 13 15 15 15 13 13 14 14 14 14 13
16 18 20 21 18 18 20 20 22 21 22 22 22 21 19 17 17 16 15 15 16 17 16 16 16 16 16 15 15 14 14 13 14 14 13 13 14 13 13 15 15 15 14 13 14 13 13 13 12
16 17 19 19 17 16 19 20 21 21 22 22 21 19 19 19 18 17 16 16 17 15 16 18 16 16 15 15 15 16 16 15 15 15 14 14 14 13 12 13 14 14 12 12 12 12 12 12 13
16 18 18 17 15 16 18 19 20 20 20 19 19 18 19 19 19 19 17 16 16 16 15 16 17 15 15 15 15 16 16 15 15 14 14 14 14 14 14 13 13 13 13 13 13 13 12 12 13
15 17 17 17 16 16 17 18 18 19 19 19 18 18 19 19 19 19 19 18 17 17 16 15 17 18 15 15 15 15 15 15 15 14 14 14 14 14 13 14 13 13 13 13 13 13 12 12 12
15 16 16 17 17 16 16 17 17 18 19 18 19 18 18 18 19 18 19 19 19 19 18 17 16 18 17 16 17 15 15 15 15 14 14 14 14 14 13 13 13 13 13 13 13 12 12 12 12
14 15 14 17 16 16 16 16 19 18 18 18 19 19 19 19 18 19 19 18 18 18 18 18 17 16 15 15 15 17 15 15 15 15 14 14 13 15 14 13 13 13 13 12 12 12 11 11 12
14 14 15 17 17 16 15 17 19 18 17 18 19 19 19 19 18 18 18 18 18 17 17 17 17 17 16 16 15 17 17 16 15 14 14 14 14 13 13 13 13 13 13 12 12 12 11 11 12
14 14 16 17 16 16 16 16 19 17 17 18 18 18 18 18 18 18 18 18 18 17 17 17 17 17 17 16 16 15 16 17 17 14 14 14 14 14 13 13 13 13 13 12 12 11 11 12 12
16 16 17 17 15 15 16 17 17 17 17 17 17 18 18 18 18 18 16 15 15 15 15 15 16 16 16 16 16 15 16 18 18 17 15 14 14 14 13 13 13 13 13 13 12 11 11 11 11
14 15 15 15 15 14 16 15 16 17 17 17 17 17 17 17 17 15 14 13 13 14 14 15 15 15 15 16 16 16 15 17 18 18 17 16 14 15 15 14 14 14 14 13 12 11 11 11 11
14 14 16 15 13 14 14 15 16 14 14 14 14 14 14 15 15 14 13 13 12 12 14 15 15 15 15 15 15 15 15 14 14 15 17 17 16 14 13 14 14 14 13 13 13 12 11 11 11
14 15 15 13 13 15 15 17 16 14 14 14 14 14 14 13 13 13 13 12 11 12 13 13 14 14 15 15 15 14 14 14 14 14 13 13 15 16 15 14 13 13 12 12 13 13 12 11 11
13 14 13 13 14 13 14 14 16 15 13 14 14 13 13 12 12 12 11 11 11 12 13 13 13 12 13 14 14 14 14 14 13 13 13 13 13 13 14 14 13 12 12 12 12 12 12 13 11
13 12 12 12 13 12 15 15 15 14 15 14 14 13 13 12 12 12 11 10 10 10 12 12 13 12 11 12 13 13 13 13 12 13 13 13 12 12 12 12 12 12 12 12 12 11 11 12 12
12 12 11 11 10 13 12 12 17 16 16 15 14 13 13 12 12 11 11 10 10 9 10 10 10 10 10 11 11 11 12 13 12 12 12 12 12 12 12 13 12 11 11 12 12 12 11 11 11
11 12 13 13 13 14 10 12 16 15 15 13 13 13 12 12 11 11 10 9 9 8 8 9 9 9 9 9 9 9 10 11 11 11 11 11 12 12 12 11 12 12 12 11 11 11 11 11 10
7 8 11 12 12 13 14 14 13 13 13 14 13 12 12 12 11 10 10 9 8 8 7 7 7 7 7 8 8 8 9 9 10 11 10 10 10 11 11 11 10 11 12 10 11 10 10 10 10
10 11 9 10 11 13 14 15 16 12 13 13 14 13 13 11 11 10 9 8 8 7 6 6 6 6 6 8 8 8 8 9 10 10 10 9 9 9 9 10 10 9 10 9 10 10 10 9 9
10 11 11 12 11 13 15 16 14 13 13 14 14 13 12 11 10 9 8 7 7 7 6 6 7 7 7 8 8 8 8 9 9 9 10 10 11 11 11 11 9 8 9 9 9 9 9 8 8
11 13 13 12 11 10 11 14 14 15 15 13 13 12 11 10 9 8 7 7 7 6 5 5 6 6 7 7 7 8 8 8 8 8 8 9 10 10 11 10 9 8 7 8 8 8 8 7 7

GFSSGP_850_temp_054.txt.gz
Temp
17 18 18 18 17 19 19 22 24 24 25 25 24 25 23 25 23 19 20 20 20 19 20 19 16 16 17 17 16 16 15 14 14 14 15 15 15 16 16 15 15 15 14 14 15 15 15 15 14
17 17 18 19 18 18 20 23 23 24 24 24 24 24 25 22 23 20 19 20 19 18 18 18 17 16 17 17 16 16 15 14 15 16 16 15 16 15 15 15 15 15 14 15 15 15 15 15 15
17 17 18 18 18 18 21 23 23 23 24 24 25 25 26 23 22 20 20 19 19 18 17 18 16 17 17 16 16 15 14 14 16 16 15 16 16 15 15 15 15 15 14 14 14 15 15 15 15
16 17 17 17 19 20 21 24 24 23 24 24 24 24 22 21 21 20 19 19 19 18 17 18 17 17 16 15 15 15 15 14 15 15 16 16 15 14 14 15 14 15 15 14 14 15 15 15 14
15 16 16 17 19 21 23 24 24 23 24 24 24 24 21 20 19 19 19 19 19 18 18 18 17 17 16 15 15 14 15 14 13 16 16 16 15 15 15 14 13 14 14 14 15 15 15 14 14
13 16 15 16 19 21 22 23 23 24 24 24 24 24 21 19 19 19 19 19 19 19 18 18 17 17 16 15 15 14 14 14 13 15 16 16 16 17 15 15 14 14 14 15 15 15 15 14 14
12 13 15 17 19 21 22 24 23 23 23 24 24 23 20 19 18 19 19 19 19 18 17 18 17 16 15 14 14 14 15 14 14 15 16 16 17 17 17 15 15 15 15 15 16 15 15 15 14
14 12 14 17 19 20 23 24 23 23 23 23 23 21 19 18 19 18 19 18 18 18 17 17 17 17 15 14 14 14 14 14 14 15 16 16 17 17 16 16 16 15 16 16 16 15 15 15 14
14 12 12 15 18 20 24 23 22 22 22 23 23 21 19 18 18 19 19 18 18 17 17 17 16 16 15 15 15 14 14 14 15 15 16 16 17 17 16 15 15 15 16 16 16 15 15 15 14
15 13 15 18 20 20 22 23 22 21 21 22 22 20 19 18 19 20 19 18 18 17 17 17 17 16 15 15 15 16 16 16 15 16 16 17 17 16 16 16 16 15 15 16 15 15 15 15 15
15 14 17 19 19 18 21 21 21 21 20 22 22 21 19 18 17 18 18 18 18 17 17 17 17 16 16 15 15 16 17 17 16 14 16 17 15 14 15 16 16 16 16 16 15 15 15 14 15
14 15 17 19 17 17 18 20 20 21 21 21 21 20 19 18 18 18 17 17 17 18 17 17 17 16 16 15 15 15 16 16 16 15 15 16 14 14 14 15 16 16 16 15 15 15 14 14 13
15 16 17 17 16 16 18 18 18 20 21 20 19 19 19 20 20 19 18 17 17 16 17 17 16 16 16 15 15 15 15 15 15 15 15 15 14 14 14 15 14 15 15 14 13 13 14 13 13
15 16 17 17 16 16 17 17 18 20 20 19 19 18 19 19 19 19 19 18 17 16 16 16 18 17 16 15 15 15 16 16 15 15 15 14 14 14 14 14 14 14 14 13 13 13 12 12 13
15 15 15 17 16 16 16 15 16 19 19 19 19 19 19 19 19 19 19 19 18 18 18 17 18 18 17 15 15 15 15 15 15 15 14 15 14 14 14 14 14 14 13 14 13 13 13 12 12
14 14 13 16 16 16 15 14 16 18 18 18 19 19 19 19 19 19 19 19 19 19 18 17 18 18 17 17 15 16 15 15 15 15 15 14 15 14 14 14 14 14 13 13 13 13 12 12 12
13 12 13 14 16 16 15 15 16 18 18 17 18 19 19 19 19 19 18 18 18 18 18 18 18 17 16 16 16 16 16 16 15 14 15 14 14 14 14 14 14 14 13 13 13 13 12 12 12
11 12 13 14 16 15 14 13 16 18 18 18 18 19 19 19 18 18 18 18 18 18 18 17 17 17 17 17 16 16 16 17 16 16 14 14 14 15 14 14 14 14 13 13 13 13 12 12 12
14 13 13 15 16 15 15 14 15 17 17 16 17 17 18 18 18 18 17 17 17 17 17 17 17 17 17 17 17 16 16 16 16 17 17 15 14 15 15 15 15 14 13 13 13 13 12 12 11
14 13 13 15 14 14 14 14 15 16 16 17 17 17 17 17 17 17 16 15 16 16 16 16 16 16 16 16 16 16 16 16 16 16 17 17 16 14 14 14 15 15 14 13 13 13 13 12 12
13 13 14 14 13 14 14 13 14 15 15 15 14 14 15 15 15 15 13 13 13 13 14 14 15 15 15 15 15 16 16 15 14 15 16 17 17 15 14 13 13 15 15 14 13 13 13 13 12
13 14 14 13 12 11 13 11 14 13 13 13 14 14 14 14 14 13 13 12 11 12 13 13 13 14 14 15 14 14 14 15 14 14 14 14 15 15 15 14 13 13 13 13 13 12 12 11 11
14 14 13 13 12 12 12 11 14 12 12 12 13 13 13 13 13 12 12 11 11 11 12 12 13 13 12 13 13 14 14 14 14 14 13 13 13 13 13 13 13 12 12 13 12 12 12 11 11
13 11 11 12 11 9 12 12 11 11 12 12 13 13 13 12 12 12 11 11 10 11 11 12 12 12 11 11 11 11 12 13 13 13 13 13 13 13 13 12 12 12 11 11 11 11 11 11 11
11 10 8 8 8 9 12 11 12 13 13 12 12 13 13 12 12 11 11 10 10 10 10 11 11 11 11 10 10 10 10 10 11 12 12 12 12 12 12 12 12 11 11 11 11 10 11 11 11
10 10 8 10 9 10 11 9 12 13 14 14 14 13 12 12 12 11 10 10 9 9 9 9 9 9 8 9 9 9 9 9 9 10 10 11 11 11 11 11 11 11 11 11 11 10 10 10 11
8 8 10 9 12 9 9 12 13 12 11 13 13 12 12 12 11 11 10 9 9 8 8 7 7 7 7 7 7 8 8 8 9 10 10 10 11 11 11 11 10 10 11 10 10 10 9 10 10
8 11 9 6 8 11 11 11 11 10 10 11 11 12 12 12 11 10 9 9 8 7 7 6 7 7 7 8 8 7 8 8 9 9 9 10 10 10 11 10 10 10 9 9 9 9 8 9 8
7 7 9 9 8 8 10 11 13 11 11 11 12 13 12 12 11 10 9 8 7 7 6 6 6 7 7 7 7 8 8 8 8 8 9 9 10 10 10 10 10 9 8 7 8 8 8 7 7
10 11 11 8 9 7 6 10 13 11 11 12 13 12 12 11 10 8 8 7 7 6 6 5 5 6 7 7 7 8 7 7 7 7 7 7 7 8 9 9 10 9 6 7 7 7 7 7 7

GFSSGP_850_temp_057.txt.gz
Temp
17 17 17 17 15 13 15 18 21 23 22 23 24 23 22 21 21 19 19 20 20 20 19 18 17 17 18 17 16 16 15 14 14 15 15 15 16 16 16 16 15 15 15 14 15 15 15 15 15
17 17 17 18 14 14 15 18 21 20 23 24 25 24 23 20 20 19 19 19 19 20 18 17 16 17 17 17 16 16 14 14 15 16 16 16 16 16 16 16 15 15 14 14 15 15 15 15 15
17 16 16 14 13 14 16 19 19 22 24 24 24 24 22 20 20 20 19 18 19 19 18 17 16 17 17 17 16 15 14 15 17 17 16 16 15 15 15 15 15 15 14 14 15 16 15 15 15
16 16 17 14 14 16 18 19 21 22 23 24 24 19 20 20 20 20 19 19 18 18 18 16 16 17 17 16 16 15 15 16 17 17 17 15 14 14 15 15 14 15 15 14 15 16 15 15 15
16 16 12 14 15 16 19 22 22 21 22 23 23 20 19 19 20 19 19 19 18 18 17 16 17 16 16 15 15 15 14 16 15 16 17 16 14 15 15 14 14 14 14 15 16 16 15 15 14
14 14 12 13 14 17 19 22 23 22 23 23 22 20 19 19 19 19 19 19 19 18 17 17 17 16 15 15 15 14 14 16 17 16 16 16 16 15 15 15 14 14 14 15 16 16 15 15 15
13 11 12 13 14 17 18 22 22 22 22 23 23 17 17 18 18 19 19 19 18 18 18 17 17 16 15 15 14 14 15 16 18 17 17 17 17 17 16 16 15 15 15 16 16 16 15 15 15
13 12 13 13 14 16 19 22 23 23 22 23 22 18 17 18 18 19 19 18 18 18 17 17 17 16 16 14 14 14 15 15 17 17 17 17 17 17 17 16 16 16 16 16 16 16 15 15 15
13 11 12 13 14 16 19 17 22 22 22 22 20 21 20 19 18 19 18 18 18 17 17 17 17 17 16 14 14 14 15 16 17 17 18 18 17 17 17 17 17 16 16 16 16 16 16 15 15
11 12 13 15 15 15 17 18 19 21 21 20 19 19 19 19 19 18 18 18 17 17 17 17 17 17 17 16 16 16 17 17 18 18 17 17 17 17 17 16 17 17 17 17 16 16 15 15 15
13 12 14 15 15 13 16 18 19 19 19 20 18 19 19 19 18 18 18 18 17 17 17 17 17 16 17 17 16 16 17 18 18 18 17 17 17 17 17 17 17 16 17 17 17 16 15 15 15
13 14 15 15 15 14 16 18 19 20 19 20 21 20 19 19 18 18 18 18 17 17 17 17 17 16 16 16 16 16 17 17 17 17 16 16 16 16 16 16 17 16 16 16 16 15 15 15 15
12 15 15 15 16 15 16 17 18 19 19 20 19 18 18 19 19 18 18 18 17 17 17 17 17 16 16 16 16 16 16 16 16 16 16 15 15 16 15 15 15 16 16 16 15 15 14 14 14
14 14 15 16 15 16 16 17 18 19 19 19 20 19 19 19 19 19 18 18 18 17 17 17 17 16 16 15 15 16 16 16 15 15 15 15 15 15 14 14 15 15 15 15 15 14 14 13 14
14 13 13 13 15 15 16 15 15 18 18 19 19 19 19 19 19 19 19 18 18 18 18 18 18 17 17 16 15 15 15 15 15 15 15 15 15 14 14 14 15 15 14 14 14 13 13 12 13
13 12 11 14 14 15 16 13 14 18 17 18 18 18 18 19 19 19 19 19 18 18 17 17 17 17 17 17 16 15 15 15 15 15 15 15 15 15 14 14 14 14 14 13 13 13 13 13 12
11 10 11 13 14 14 14 13 15 17 17 17 18 18 18 18 19 19 19 19 18 18 18 18 17 17 17 16 16 16 16 15 15 15 15 15 14 15 15 15 15 14 14 14 13 13 13 13 13
10 10 12 12 14 14 13 13 14 16 17 17 18 17 18 18 19 18 18 18 18 18 18 18 17 17 17 17 16 15 16 16 15 15 16 15 14 15 16 15 15 15 14 14 14 13 13 13 13
12 12 11 13 14 14 13 13 14 15 16 16 16 17 17 18 18 18 18 18 18 17 18 18 18 17 17 16 16 16 15 15 16 16 16 15 15 16 14 15 15 15 14 14 14 13 13 13 13
12 11 11 13 14 14 13 12 13 13 14 17 17 17 17 17 16 16 16 16 17 17 17 17 17 17 17 17 16 16 16 16 16 16 15 15 15 14 15 15 14 14 14 14 14 13 13 13 13
11 10 11 12 12 12 13 12 12 13 15 16 15 15 15 16 15 14 15 15 15 16 16 16 16 16 16 16 16 16 16 15 15 15 15 14 14 14 15 14 14 14 14 14 13 13 13 14 14
10 13 13 11 10 10 12 9 11 12 12 12 14 14 15 14 14 13 13 13 14 14 13 13 14 14 14 14 14 15 15 15 15 14 14 13 13 14 14 14 14 13 13 13 13 13 12 13 13
12 12 11 11 10 11 11 8 10 10 11 11 11 13 13 13 13 12 12 12 12 12 12 12 12 12 13 13 13 14 14 14 14 14 14 13 13 13 13 13 13 13 13 12 12 12 12 12 12
11 10 9 9 9 7 10 9 10 10 12 10 11 12 13 13 12 12 12 11 11 11 11 11 12 12 12 12 12 12 12 12 13 13 13 13 13 13 13 12 12 12 12 12 12 12 11 11 11
10 9 5 6 5 7 10 9 10 12 11 11 10 12 12 12 12 11 11 10 10 10 10 10 11 11 11 11 11 11 10 10 11 11 12 12 13 12 12 12 12 12 11 11 11 11 11 11 11
10 9 6 7 6 8 10 9 10 11 13 13 13 13 12 12 11 11 11 10 9 9 9 9 9 9 9 9 9 9 9 9 9 10 10 10 11 11 12 11 12 11 11 11 11 10 10 9 10
8 6 9 7 9 5 8 10 11 10 10 11 12 12 12 12 11 11 10 9 9 9 8 8 8 8 8 8 8 8 8 8 9 9 9 10 10 11 11 11 11 11 11 10 10 10 10 9 9
8 9 8 4 6 8 8 10 10 9 9 10 10 11 12 11 11 10 10 9 8 8 7 7 7 7 7 7 8 8 8 8 8 9 9 9 9 10 10 10 10 10 10 9 9 9 8 8 8
8 7 8 8 5 6 8 9 11 11 9 9 10 12 12 11 11 10 9 9 8 7 7 7 6 7 7 7 7 8 8 8 8 8 8 8 8 9 9 9 9 10 10 9 8 8 6 7 7
8 8 9 7 8 5 4 7 9 9 9 11 11 12 12 11 10 10 9 8 7 6 6 6 6 6 6 7 7 7 7 7 7 7 7 7 7 7 7 7 8 8 9 8 6 5 6 6 6

GFSSGP_850_temp_060.txt.gz
Temp
17 17 17 18 15 12 14 16 19 21 21 23 23 22 19 20 20 20 19 19 19 19 18 18 17 17 17 17 16 16 15 15 15 14 15 15 16 16 16 15 15 14 15 15 16 16 15 15 14
17 17 17 17 13 13 14 16 19 19 22 23 23 21 20 19 19 19 18 19 19 19 18 18 17 17 17 16 16 16 16 15 15 16 16 16 16 16 16 15 15 15 15 15 16 16 15 15 15
17 17 17 13 12 13 15 18 18 21 22 24 23 22 20 19 19 19 19 19 19 19 18 17 16 17 17 16 16 16 16 15 17 17 17 16 16 16 16 15 15 15 15 15 16 16 15 15 15
17 17 15 12 13 15 17 16 20 20 22 23 22 18 19 19 20 19 19 19 18 18 18 16 16 16 16 16 16 16 16 16 17 17 17 15 15 15 15 15 15 15 15 15 16 16 15 15 15
16 15 12 13 13 15 16 19 20 21 22 22 22 18 18 19 19 19 18 18 18 18 17 16 16 16 16 16 16 16 16 17 17 16 16 15 16 16 16 15 15 15 15 16 16 16 16 15 15
15 14 11 12 13 15 16 19 20 21 21 20 19 18 17 18 18 18 18 18 18 18 17 16 16 16 15 15 15 15 17 18 18 16 15 15 16 16 16 16 15 15 15 16 16 16 16 15 15
14 12 11 12 13 15 17 18 19 20 21 21 21 16 17 18 18 18 18 18 18 18 17 17 17 16 15 14 14 14 16 18 18 18 17 16 16 16 16 16 15 15 16 16 16 16 16 15 15
14 14 12 12 13 14 17 16 18 21 21 21 21 16 16 18 18 18 18 18 18 17 17 17 17 15 15 14 14 14 15 17 17 18 18 18 17 16 16 16 15 15 16 16 16 16 16 16 15
13 11 12 13 14 15 14 14 17 20 21 21 21 20 19 18 18 18 17 17 17 17 17 17 17 16 16 16 15 14 15 17 18 18 18 18 18 17 17 16 16 15 15 16 16 15 15 15 15
12 13 13 15 15 13 12 13 14 18 18 17 19 19 18 18 18 18 17 17 17 17 17 17 17 17 17 16 16 16 17 17 17 18 17 18 18 18 18 18 17 16 16 16 15 15 15 15 15
11 12 14 15 15 12 11 12 14 15 18 18 19 18 18 19 18 18 17 18 17 17 17 17 16 16 17 17 17 17 17 17 17 17 17 17 17 17 17 17 17 17 17 16 16 16 15 15 15
11 13 14 15 15 11 11 12 12 15 18 20 21 21 19 19 19 19 18 17 17 17 16 16 16 16 16 16 17 17 17 17 17 17 17 17 17 17 17 16 16 16 16 16 16 16 15 15 14
12 13 14 13 13 12 12 11 11 15 18 20 19 18 18 19 19 19 18 18 17 17 17 17 16 16 16 16 16 16 16 17 16 16 16 16 16 16 16 16 15 16 16 16 16 15 15 15 14
13 13 14 12 13 13 11 11 11 16 18 17 17 17 18 18 18 18 18 18 17 17 16 17 17 16 16 16 16 16 16 16 16 16 16 16 16 16 15 16 15 15 15 15 15 15 15 14 14
13 12 12 13 14 14 13 12 12 17 17 18 18 19 19 18 18 18 18 18 18 18 17 17 17 17 17 17 16 16 16 16 16 15 15 15 15 15 15 15 15 15 15 15 14 14 14 14 13
12 11 10 13 13 15 15 13 14 16 17 17 18 18 18 19 19 19 18 18 18 17 17 17 17 16 16 16 16 16 16 16 15 15 15 15 15 15 15 15 15 15 14 14 14 14 14 14 13
11 9 10 12 13 13 14 13 14 17 16 17 17 18 18 18 18 18 19 18 18 18 18 17 17 17 16 16 16 16 16 15 15 15 15 15 15 15 15 15 15 15 14 14 14 14 13 13 13
10 10 11 12 12 13 13 12 14 16 15 16 17 17 18 18 18 18 18 18 18 18 18 17 17 17 17 16 16 15 15 15 15 15 15 15 15 15 14 15 15 14 14 14 14 14 13 13 13
11 11 11 12 13 13 12 12 13 15 15 15 16 17 17 17 17 17 17 18 18 18 18 18 17 17 17 17 16 16 16 15 15 15 15 15 15 15 15 15 15 15 14 15 14 14 13 13 13
11 10 11 12 13 13 12 12 12 13 13 15 16 16 17 16 16 16 16 17 17 17 17 17 16 16 16 16 16 16 16 16 16 16 15 15 15 14 14 14 14 14 14 14 14 13 13 13 13
10 10 10 11 12 12 12 10 11 11 13 15 16 16 16 16 15 15 15 16 16 16 16 16 17 16 16 16 15 15 16 15 15 15 16 15 15 14 14 14 14 14 13 14 13 13 13 12 12
9 11 12 11 11 10 12 9 10 11 11 11 14 14 15 15 14 14 14 15 15 15 15 16 16 15 15 15 15 15 15 15 14 14 14 15 15 14 14 14 14 13 13 13 13 13 12 12 12
10 11 10 10 10 10 10 9 9 10 10 10 10 13 14 14 14 13 13 13 14 14 13 13 13 13 13 13 14 14 14 14 14 14 14 14 14 13 13 13 13 13 12 12 12 12 12 12 12
11 10 8 8 8 7 9 9 8 9 10 11 10 12 13 12 12 12 12 12 12 12 12 12 12 12 12 12 12 13 13 13 13 13 13 13 13 12 12 12 13 12 12 12 12 11 11 11 11
10 8 6 7 7 7 9 8 11 10 10 10 9 11 12 12 12 12 11 11 11 11 11 11 11 11 11 11 11 11 11 11 11 11 11 12 12 12 12 12 12 12 12 12 11 11 11 11 10
9 8 5 7 6 7 9 8 10 10 11 12 13 12 12 12 12 11 11 11 11 10 10 10 10 10 10 10 10 10 9 9 9 9 10 10 10 11 11 12 12 11 11 11 11 11 10 10 10
8 8 8 6 7 4 7 9 10 10 9 9 10 12 12 12 11 11 10 10 10 9 9 9 9 8 8 8 8 8 8 8 8 8 9 9 9 10 10 10 11 11 11 11 11 11 10 10 9
8 8 8 3 6 7 7 8 9 9 8 9 8 10 11 11 11 10 10 10 9 9 8 8 8 8 8 8 8 8 8 8 8 8 8 8 8 8 9 9 10 10 10 10 10 10 9 9 8
7 8 7 7 5 6 7 7 9 9 10 10 9 11 11 11 11 10 10 9 8 8 7 7 7 7 7 7 7 7 7 7 8 8 8 8 8 8 8 8 8 9 9 9 9 8 8 8 8
8 8 9 7 6 3 3 7 9 8 9 10 10 12 12 11 10 10 10 9 8 7 7 6 6 6 6 6 7 7 7 7 7 7 7 7 7 7 6 6 6 7 7 7 7 7 7 6 5

GFSSGP_850_temp_063.txt.gz
Temp
17 18 18 18 14 12 14 15 16 19 21 22 22 21 20 19 20 20 19 19 18 19 18 18 18 18 17 16 16 16 15 15 15 16 16 16 16 16 16 15 15 15 15 16 16 16 15 15 15
17 18 17 17 12 13 14 15 18 18 21 21 21 21 19 18 18 18 18 19 19 19 18 17 17 17 17 16 16 15 14 15 15 16 17 17 17 16 16 15 15 15 15 16 16 16 15 15 15
17 17 17 12 11 13 14 17 16 19 21 21 21 20 19 18 19 19 19 19 18 18 18 17 17 17 17 16 16 16 15 15 17 18 17 17 17 16 16 15 15 15 15 16 16 16 15 15 15
17 17 15 12 13 14 15 16 17 18 21 21 20 17 18 18 19 19 19 19 18 18 18 16 17 17 16 16 16 16 17 17 18 18 17 17 17 16 15 15 15 15 16 16 16 16 16 15 15
16 16 11 12 12 14 14 16 17 17 19 20 20 17 17 18 19 19 19 18 18 18 17 15 16 16 16 16 16 17 18 19 18 16 15 15 15 15 15 15 15 16 16 16 16 16 16 15 15
14 15 10 11 12 14 14 17 17 18 20 19 18 17 17 17 18 18 18 18 17 18 17 15 15 16 16 16 16 16 18 19 18 17 15 15 14 15 15 15 15 15 16 16 16 16 15 15 15
13 11 11 12 12 14 16 17 16 16 19 19 19 15 16 17 17 17 18 17 17 17 17 16 15 16 15 15 15 16 17 18 18 18 18 17 14 15 15 15 15 15 16 16 16 15 15 15 14
14 13 11 12 13 14 14 16 16 17 18 19 20 15 16 17 17 17 17 17 17 17 17 17 16 16 15 14 15 16 17 17 18 18 18 18 17 16 16 15 15 15 15 16 15 15 15 15 14
12 12 13 13 13 15 14 13 15 17 16 18 19 18 19 17 17 17 17 17 17 16 17 17 17 16 15 15 15 15 16 17 17 17 18 18 17 17 17 16 16 16 16 16 16 15 15 15 14
11 12 13 15 15 13 12 13 13 14 15 17 17 18 18 18 17 17 17 17 17 17 16 16 16 16 16 16 16 15 16 16 17 17 17 17 17 17 17 16 16 16 16 16 16 16 16 15 15
11 13 13 15 15 13 12 13 13 13 14 18 15 17 18 18 18 18 17 17 18 17 17 17 16 16 16 16 16 16 16 16 17 17 17 17 17 17 17 17 17 16 16 16 16 16 16 15 15
11 12 14 14 13 12 12 13 12 13 14 15 16 18 19 18 18 18 17 17 17 17 17 16 16 16 16 16 16 16 16 16 16 17 17 17 17 17 17 17 17 16 16 16 16 16 16 15 15
11 13 14 12 12 12 12 12 10 13 16 16 17 19 19 18 18 18 18 17 17 17 17 16 16 16 16 16 16 16 16 16 16 16 16 16 17 17 17 16 16 16 15 16 16 16 15 15 15
12 13 13 11 11 12 11 11 11 14 15 15 15 17 18 18 18 17 17 17 17 17 17 16 16 16 16 16 16 16 16 16 16 16 16 16 16 16 16 16 16 15 15 15 15 15 15 14 14
12 11 11 10 11 12 12 10 9 14 14 13 15 17 17 17 18 18 18 18 17 17 17 17 17 17 16 16 16 16 16 16 16 16 16 16 16 16 15 15 15 15 15 14 14 14 14 14 14
10 10 10 11 12 13 11 11 11 12 13 13 16 17 17 17 18 18 17 17 17 17 17 16 16 16 16 16 16 16 16 16 16 16 16 15 15 15 15 15 15 15 14 14 14 14 14 14 13
10 8 10 11 13 12 11 12 12 12 13 13 15 17 18 18 18 18 18 18 18 18 17 17 16 16 16 16 16 16 15 15 15 15 15 15 15 15 15 15 15 15 14 14 14 14 13 13 13
9 9 10 11 12 13 11 12 14 14 14 15 15 16 17 18 18 18 18 18 18 18 18 18 17 16 16 16 15 15 15 15 15 15 15 15 15 15 15 14 15 14 14 14 14 13 13 13 13
9 10 11 12 12 13 12 12 13 13 13 14 15 15 16 17 17 18 18 18 18 18 18 17 17 17 17 16 16 15 16 15 15 15 15 14 14 14 14 14 14 14 14 14 14 13 13 13 13
10 10 10 12 12 13 12 12 13 14 13 14 15 15 16 16 16 17 17 17 17 17 17 17 17 17 17 17 16 16 16 15 16 15 15 14 14 14 14 14 14 13 13 14 14 13 13 13 13
10 9 9 11 11 12 12 11 12 12 12 14 15 16 16 16 16 16 16 16 16 16 16 16 16 16 16 16 16 16 16 16 16 16 16 15 15 14 14 14 14 14 13 13 14 13 13 12 12
9 11 11 11 11 9 12 9 10 10 10 11 14 15 16 15 15 15 16 15 15 16 16 15 15 15 16 16 15 15 15 15 15 15 15 15 15 15 14 14 14 14 14 14 13 13 12 12 12
10 10 10 11 10 10 10 9 10 9 9 11 12 14 14 15 15 15 15 15 15 15 15 15 15 15 14 13 13 13 13 14 14 14 14 14 14 14 14 14 13 13 13 13 13 12 12 12 11
10 9 8 7 8 7 9 9 8 9 10 10 12 13 13 14 14 14 13 13 13 13 13 13 13 13 12 12 12 12 12 12 12 13 13 13 13 13 13 13 12 12 12 12 12 12 11 11 11
9 7 6 7 7 7 8 8 11 11 9 9 10 11 13 13 13 12 12 12 12 12 11 11 11 11 11 11 11 11 11 11 11 11 11 11 11 11 11 11 11 11 11 11 11 11 11 11 11
9 8 5 7 7 7 7 8 10 10 11 11 12 12 12 11 11 12 12 11 11 11 10 10 10 10 10 10 10 10 10 10 9 9 9 9 9 10 10 10 10 10 10 10 10 10 10 10 10
8 6 8 5 4 4 7 7 9 9 9 9 9 10 10 11 11 11 10 10 10 10 10 10 9 9 9 9 9 9 8 8 8 8 8 8 8 8 9 9 9 10 10 10 10 10 9 9 9
7 7 8 3 5 6 7 7 9 10 9 8 7 9 10 11 11 10 10 10 10 9 9 9 8 8 8 8 8 8 7 8 8 8 8 8 8 8 8 8 9 9 9 9 9 9 9 9 8
7 7 7 6 4 6 6 8 7 9 8 7 8 10 11 11 11 11 10 10 9 9 9 8 7 7 7 7 7 7 7 7 7 7 7 7 7 7 7 7 7 7 8 8 8 8 8 8 8
8 8 6 5 5 2 3 6 9 6 7 9 9 11 11 11 11 10 10 10 9 9 8 7 7 6 6 6 6 6 7 7 7 7 7 7 7 6 6 6 6 6 6 6 6 6 6 6 5

GFSSGP_850_temp_066.txt.gz
Temp
16 17 17 18 14 11 13 15 15 18 20 21 21 21 19 19 20 19 18 19 20 18 17 17 18 17 17 17 16 16 15 15 14 16 16 16 16 16 16 16 15 15 16 16 16 15 15 15 15
16 16 17 17 12 12 13 14 17 17 19 19 20 19 19 17 18 19 17 18 19 19 18 17 18 17 17 17 16 15 15 15 15 16 17 17 17 16 15 15 15 15 16 16 16 15 14 15 15
16 16 17 12 9 12 14 16 16 16 19 19 19 19 18 17 18 19 18 19 18 19 19 17 17 16 16 17 16 16 16 15 16 16 17 17 16 16 15 15 15 15 16 16 16 16 15 15 15
15 16 15 11 12 13 15 15 15 16 19 20 19 17 18 17 18 19 19 18 18 18 18 17 16 17 17 16 16 16 17 18 17 17 17 16 16 16 15 15 15 15 16 16 16 16 16 15 15
14 15 12 11 13 13 14 15 15 15 17 19 18 16 17 18 18 19 19 18 18 18 17 17 17 17 17 16 16 17 18 19 18 15 15 16 16 16 15 15 15 15 16 16 16 16 16 15 15
13 14 11 11 12 13 14 15 15 15 17 18 17 16 17 18 18 18 18 18 17 18 16 16 16 17 16 16 16 17 18 19 18 17 14 14 14 14 16 16 16 15 16 16 16 16 16 15 15
11 11 11 11 13 14 15 16 15 14 15 18 18 15 16 17 18 18 18 17 17 17 16 15 16 16 16 16 16 17 18 18 18 18 18 16 14 14 16 16 15 15 16 16 16 15 15 15 14
12 11 11 12 13 14 14 15 15 14 15 17 17 15 15 17 17 17 17 17 16 16 16 15 15 16 16 15 15 17 17 18 17 18 18 16 16 16 16 15 15 16 16 16 16 15 15 15 14
11 11 12 11 14 14 13 14 15 16 15 17 17 16 17 17 17 17 16 16 16 16 16 16 16 16 15 15 16 16 16 16 17 16 17 17 16 16 16 16 16 16 16 16 16 16 15 15 15
11 11 12 14 14 13 12 13 13 15 15 15 16 15 16 17 17 16 16 16 16 16 16 16 16 15 16 16 16 17 17 16 16 16 16 17 17 17 17 16 16 16 16 16 16 15 15 15 15
10 12 13 14 14 14 12 12 13 13 14 14 13 14 14 16 17 17 16 17 17 17 16 16 16 15 15 16 16 16 16 16 16 16 16 16 17 17 17 17 17 17 16 16 16 16 15 15 15
10 12 13 13 12 13 13 13 13 12 14 14 15 15 15 17 17 18 18 17 17 17 17 16 16 15 15 15 15 15 16 16 16 16 16 16 16 17 17 17 17 17 16 16 16 16 15 15 15
10 11 12 13 12 12 13 11 12 13 14 15 15 17 17 18 18 18 18 18 17 17 17 17 16 16 16 15 15 15 16 16 16 16 16 16 16 16 16 16 16 16 16 15 15 15 15 15 15
12 13 13 11 12 11 12 11 12 16 15 16 15 15 16 17 18 18 18 17 17 17 17 17 17 16 16 16 16 16 16 15 15 16 16 16 16 16 16 16 16 15 15 15 14 14 14 14 14
12 11 10 10 10 11 11 11 10 14 14 14 15 14 15 16 16 18 18 18 17 17 17 17 17 16 16 16 16 16 16 15 15 16 15 15 15 15 15 15 15 15 15 14 14 14 14 14 14
10 10 10 10 10 10 10 11 11 13 13 14 14 14 15 16 16 16 17 17 17 17 17 16 16 16 16 16 16 16 15 15 15 15 15 15 15 15 15 15 15 14 14 14 14 14 14 14 14
10 8 9 9 11 10 11 10 13 12 12 13 14 14 14 16 17 17 17 17 17 17 17 16 16 16 16 15 15 15 15 15 15 15 15 15 15 15 15 15 15 14 14 14 14 14 13 13 13
8 8 9 9 11 10 11 11 11 12 12 12 14 13 14 15 16 17 17 18 17 18 17 16 16 16 16 16 15 15 15 15 15 15 15 15 15 15 14 14 14 14 14 14 14 13 13 13 13
8 9 9 11 12 11 10 11 12 11 11 11 13 13 14 15 16 16 17 17 18 18 18 17 17 16 16 16 16 16 16 15 15 15 15 15 15 14 14 14 14 13 14 14 13 13 13 13 13
9 8 9 11 11 11 11 11 12 11 11 11 13 14 16 14 16 16 17 18 18 18 18 17 17 17 17 16 16 15 15 15 15 16 15 15 15 14 14 14 14 14 14 13 13 13 13 13 13
9 8 8 9 10 11 10 11 11 11 13 13 13 14 15 15 15 15 16 17 17 17 16 16 17 17 17 16 16 16 16 16 15 15 15 14 14 14 14 14 14 14 14 14 13 13 13 13 13
9 9 10 10 9 8 11 9 9 11 12 11 12 13 15 15 14 14 15 16 16 16 16 16 16 16 15 15 15 15 15 15 15 15 14 14 14 14 14 14 14 14 14 13 13 13 13 12 12
10 9 9 10 8 9 10 9 10 9 12 13 13 13 15 15 15 15 15 15 15 15 15 15 15 15 15 15 14 14 14 14 13 13 13 13 13 13 13 13 13 13 13 13 12 12 12 12 11
8 8 7 6 7 5 8 9 8 8 11 11 12 13 16 16 15 15 14 14 14 14 14 14 14 13 13 13 13 13 12 12 12 12 12 12 12 12 12 12 12 13 13 12 12 12 12 11 11
8 7 5 6 5 5 7 7 11 11 9 10 11 13 14 14 13 13 13 13 13 13 12 12 12 12 12 12 12 12 11 11 11 11 11 11 11 11 11 11 11 11 11 11 11 11 11 11 11
9 8 5 7 6 7 7 7 10 10 11 11 12 13 13 13 13 13 13 12 12 11 11 11 11 11 11 11 10 10 10 10 10 9 9 9 9 9 10 10 10 10 10 10 10 10 10 10 10
8 7 7 4 4 3 6 7 9 9 8 9 10 10 11 11 11 11 11 11 11 11 10 10 10 10 10 9 9 9 9 9 9 8 8 8 8 8 8 8 8 9 9 9 9 9 9 8 8
7 7 7 3 5 6 6 6 8 9 9 9 8 8 9 10 10 10 11 11 10 10 10 9 9 9 8 8 8 8 8 8 8 8 8 8 8 8 8 8 8 8 8 8 8 8 8 8 7
7 6 7 6 4 6 6 7 6 9 8 7 7 9 9 10 10 11 10 10 10 9 9 9 9 8 8 7 7 7 7 7 7 7 7 7 7 7 7 7 7 7 7 7 7 7 7 7 7
8 7 6 5 5 2 2 5 9 7 6 7 8 9 10 10 11 10 10 10 9 9 9 8 8 7 7 7 6 6 6 6 6 6 6 6 6 6 6 6 6 6 5 5 5 5 5 5 5

GFSSGP_850_temp_069.txt.gz
Temp
16 17 17 17 17 15 15 17 16 18 19 19 19 20 21 19 22 22 19 20 20 19 17 17 16 17 17 16 17 16 15 15 16 16 16 16 16 16 16 15 16 16 17 16 16 15 15 15 15
15 16 16 17 16 16 16 15 17 17 18 17 19 18 19 19 18 18 19 20 20 18 17 17 17 17 17 17 16 16 14 14 15 17 17 17 16 16 15 15 15 16 17 16 16 15 15 15 15
15 16 16 15 13 16 16 16 16 16 18 18 18 18 18 17 18 18 18 20 19 18 17 15 16 16 17 17 16 15 14 15 16 17 17 17 16 15 15 15 16 16 17 17 16 16 15 15 15
15 15 15 15 14 15 16 15 15 16 19 19 18 18 17 17 17 18 19 19 18 18 17 16 16 16 17 17 16 16 16 16 16 17 18 17 16 15 15 15 16 16 17 17 16 16 16 15 15
14 15 13 13 14 14 14 15 15 16 16 18 18 17 16 17 17 18 19 19 18 18 16 16 16 16 17 17 17 17 17 18 17 16 17 17 16 14 15 15 16 16 16 16 16 16 16 15 15
13 12 13 13 13 14 14 15 15 15 15 17 17 16 16 17 18 18 18 18 18 18 17 16 16 16 16 16 16 17 17 18 18 16 15 16 15 14 15 15 16 16 16 16 16 16 15 15 15
13 11 13 12 14 14 15 15 15 14 14 17 16 17 16 17 17 18 18 18 17 17 17 16 16 16 16 16 16 17 18 18 18 18 15 14 14 14 15 15 16 16 16 16 16 16 16 15 15
13 12 11 12 15 16 14 15 15 15 16 16 15 17 16 16 17 17 17 16 16 16 16 16 16 16 16 16 16 16 18 18 18 18 18 17 16 17 16 16 16 16 16 16 16 16 16 16 16
11 11 12 12 14 14 13 14 14 15 15 14 14 13 15 16 16 16 16 15 15 16 15 15 15 15 16 16 16 15 17 17 18 18 17 16 16 16 16 16 16 16 16 16 16 16 16 16 15
11 12 12 14 14 13 13 13 13 15 14 14 15 14 14 15 17 16 16 15 15 15 15 15 15 15 15 16 16 16 16 16 17 17 17 17 17 17 17 17 16 16 16 16 16 16 16 15 15
11 12 13 14 13 14 13 13 13 14 14 13 12 14 14 15 15 18 17 17 16 16 16 15 15 15 15 16 16 16 16 16 16 16 16 16 17 17 17 17 16 16 16 16 16 16 16 15 15
11 12 13 13 13 14 13 13 13 14 14 14 14 14 14 14 16 17 18 17 17 16 16 16 15 15 15 15 15 16 16 16 16 16 16 16 16 17 17 16 16 16 16 16 16 16 15 15 15
10 12 13 12 12 13 13 11 13 13 14 14 15 15 14 14 17 17 18 18 17 17 16 16 16 15 15 15 15 15 16 16 15 16 16 16 16 16 16 16 16 16 16 15 15 15 15 15 14
10 11 12 12 11 12 12 11 14 13 14 15 16 16 14 14 16 17 18 18 17 17 16 16 16 16 16 16 16 16 16 15 15 16 16 16 16 16 16 16 15 15 15 15 14 14 14 14 14
11 11 10 11 11 11 11 12 12 13 14 14 15 16 15 14 15 17 17 18 18 17 16 16 16 16 16 16 16 16 16 15 15 15 15 15 15 15 15 15 15 14 14 14 14 14 14 14 14
9 10 10 11 11 9 10 12 13 13 14 14 15 16 15 15 15 15 16 17 17 17 16 16 16 16 16 16 16 16 15 15 15 15 15 15 15 15 15 15 15 14 14 14 14 14 14 14 14
10 9 10 9 11 10 10 11 13 13 14 13 14 15 15 15 15 15 16 16 16 16 16 16 16 16 16 15 15 15 15 15 15 15 15 15 15 15 15 14 14 14 14 14 14 14 13 13 13
9 8 8 10 10 10 10 11 11 11 13 14 13 15 14 15 16 16 16 16 16 16 17 16 16 16 16 16 15 15 15 15 15 15 15 15 15 14 14 14 14 14 14 14 14 13 13 13 13
9 9 9 9 10 10 10 11 11 11 11 12 14 15 14 15 16 16 16 16 17 17 17 17 17 17 17 16 16 16 16 16 15 15 15 15 15 14 14 14 14 14 14 14 14 14 14 14 13
9 8 9 10 10 11 10 11 11 11 11 13 16 15 14 15 15 15 17 17 17 17 17 18 17 17 17 17 16 16 16 16 16 15 15 15 15 15 14 14 14 14 14 14 14 13 13 13 13
8 8 9 10 9 11 10 10 11 11 11 12 13 15 15 15 14 15 16 16 17 17 17 17 17 17 17 17 16 16 16 16 16 15 15 15 15 14 14 14 14 14 14 14 14 13 13 12 12
9 9 9 9 9 10 10 10 10 11 11 11 12 15 15 15 15 15 15 15 16 16 16 16 16 16 16 16 16 16 16 15 15 15 15 14 14 14 14 14 14 14 14 14 13 13 12 12 12
9 8 9 9 8 9 9 10 10 10 11 12 12 13 15 14 14 15 15 15 15 15 15 15 15 15 15 15 15 15 15 15 14 14 14 13 13 13 13 13 13 13 13 13 13 12 12 12 11
7 8 7 6 8 9 9 10 10 10 11 12 13 13 14 15 16 15 15 14 14 14 14 14 14 14 14 14 14 14 14 13 13 13 12 12 12 12 12 12 12 12 12 12 12 12 12 12 11
9 7 7 9 8 8 7 8 11 12 10 11 12 13 14 15 16 15 14 14 14 13 13 13 13 13 13 13 12 12 12 12 12 11 11 11 11 11 10 10 10 10 11 11 11 11 11 11 11
9 8 7 7 7 8 6 8 11 10 11 10 11 12 12 13 13 14 14 14 13 12 12 12 12 12 11 11 11 11 11 10 10 10 10 10 10 10 10 9 9 9 9 10 10 10 10 10 10
8 6 6 4 3 6 7 7 9 9 10 11 11 11 12 12 13 11 12 12 12 11 11 11 11 11 11 10 10 10 9 9 9 9 9 9 8 8 8 8 9 9 9 9 9 9 9 9 8
8 7 7 4 6 8 7 7 10 11 11 9 9 9 11 11 10 10 10 10 11 11 11 10 10 10 10 10 9 9 8 8 8 8 8 8 8 8 8 8 8 8 8 8 8 8 8 8 7
7 7 5 6 5 8 7 9 7 9 9 8 7 9 10 10 10 9 10 10 10 10 10 10 10 9 9 8 8 8 8 7 7 7 7 7 7 7 8 7 7 7 7 7 7 7 7 7 6
7 6 6 6 6 2 5 8 8 8 7 7 8 10 10 9 9 9 10 10 10 10 9 9 9 8 8 7 7 7 6 6 6 6 7 7 7 7 7 6 6 6 6 5 5 5 5 5 5

GFSSGP_850_temp_072.txt.gz
Temp
15 17 17 18 21 22 22 22 21 22 23 22 21 24 26 26 27 25 18 19 18 17 16 17 17 17 17 16 16 16 15 16 16 16 16 16 16 15 15 16 16 17 17 16 15 15 15 15 16
15 16 17 17 21 21 22 21 21 21 21 20 20 22 24 25 19 18 17 20 17 16 16 16 17 17 16 16 16 16 15 16 16 17 17 16 16 15 15 16 16 17 16 16 15 15 15 15 16
15 16 18 20 21 21 22 20 21 20 19 20 22 20 22 22 17 17 17 19 16 16 16 16 17 16 16 16 16 15 16 16 16 17 16 16 15 15 16 16 16 17 16 16 16 15 16 15 16
14 16 17 20 20 21 21 19 19 21 20 19 21 23 19 16 17 17 17 16 16 16 16 16 16 16 16 16 16 16 16 16 16 17 17 16 16 15 16 16 16 16 16 16 16 16 16 16 15
14 16 19 19 19 19 19 18 18 21 21 21 20 22 20 16 16 16 16 16 16 16 16 16 16 16 17 16 16 16 17 18 16 16 17 16 16 15 16 16 16 16 16 17 17 16 16 16 16
15 17 18 19 19 18 18 17 19 20 20 20 20 21 19 17 17 16 16 16 16 16 16 15 15 16 16 16 16 17 18 18 18 16 16 16 15 14 15 16 16 16 16 16 16 16 16 16 15
15 17 19 19 18 17 18 16 19 19 20 19 18 21 17 16 16 16 16 16 15 16 16 16 15 16 16 16 16 17 18 18 17 16 16 15 14 14 15 15 15 16 16 16 16 16 16 16 16
14 17 18 17 17 17 16 16 15 18 19 16 16 21 19 15 17 16 16 15 15 15 16 15 15 15 15 16 16 16 17 18 17 18 17 16 16 17 16 16 16 16 16 16 16 16 16 16 16
11 15 16 17 17 17 15 17 15 15 17 16 15 14 14 14 15 15 16 15 15 15 15 15 15 15 14 14 16 16 17 17 17 17 17 17 15 16 16 16 15 16 15 16 16 16 16 15 16
14 14 17 18 18 18 16 17 15 17 18 17 17 15 14 15 15 16 15 15 15 15 15 15 15 15 14 14 15 15 16 16 17 17 17 15 15 14 16 16 16 16 16 16 16 16 15 15 15
13 13 17 18 16 15 16 16 14 18 18 16 15 15 14 15 15 16 16 15 15 15 16 15 15 15 14 14 14 14 14 15 16 16 16 16 17 17 16 16 16 16 16 16 16 16 15 15 15
13 14 16 16 16 16 16 15 16 16 16 14 14 14 14 14 15 16 15 15 14 15 16 15 15 15 14 14 14 14 14 15 15 16 16 16 16 16 16 16 16 16 16 16 15 15 15 15 15
14 15 15 15 15 16 14 14 16 15 14 14 14 15 14 14 14 15 15 15 15 15 16 15 15 14 14 14 14 14 14 15 15 16 16 16 16 16 15 15 16 16 16 15 15 15 14 15 14
14 14 15 14 14 14 15 14 14 15 14 15 15 15 15 14 14 16 16 16 16 15 15 15 15 14 14 14 14 14 14 14 15 16 16 16 15 15 15 15 16 15 15 15 14 14 14 14 14
13 13 14 14 14 14 14 14 14 16 14 15 16 16 15 15 15 15 14 17 17 17 16 15 15 15 14 14 14 14 14 15 15 15 15 15 15 15 15 15 15 15 14 14 14 14 14 14 14
13 14 12 15 14 12 13 14 15 15 14 16 16 16 15 15 15 15 16 16 17 17 16 16 16 16 16 14 15 15 15 15 15 15 15 15 15 15 15 15 14 14 14 14 14 14 14 14 14
12 13 13 12 14 12 14 15 15 15 14 15 16 16 16 16 15 15 16 16 17 17 16 16 16 15 15 15 15 15 15 15 15 15 15 15 15 15 15 15 15 14 14 14 14 14 14 14 13
13 14 14 14 13 13 13 14 12 13 14 15 17 17 16 16 16 16 16 16 16 16 16 16 16 16 15 15 15 15 16 16 16 16 16 15 15 15 15 15 14 14 14 14 14 14 14 14 13
15 14 13 14 12 13 13 13 14 14 14 15 16 17 16 15 17 16 16 16 16 16 16 16 16 16 16 16 16 16 16 16 16 15 15 15 15 15 15 15 14 14 14 14 14 14 13 13 13
13 14 13 13 13 13 13 13 14 15 15 16 15 16 17 16 15 16 16 16 17 17 17 17 16 16 16 16 16 16 16 16 15 16 15 15 15 15 15 14 14 14 14 14 14 13 13 13 13
13 14 13 14 13 13 13 13 14 15 15 14 15 16 17 17 16 15 16 16 16 17 17 17 17 17 17 16 16 16 16 16 15 15 15 15 15 15 15 15 14 14 14 14 14 13 13 13 12
12 14 14 13 13 13 14 15 15 15 15 15 15 15 16 15 15 16 16 16 16 16 17 17 17 17 16 16 16 16 16 15 15 15 15 15 15 15 14 14 14 14 14 14 14 13 13 13 11
12 12 13 13 14 13 13 13 16 15 15 16 16 15 15 16 14 15 16 16 16 15 16 16 16 16 15 15 15 15 15 15 15 15 14 14 14 14 13 13 13 13 13 13 13 13 13 12 11
11 12 12 12 13 11 14 13 16 15 15 16 16 16 15 15 15 14 15 15 15 15 15 15 14 14 15 15 15 15 15 14 14 14 13 13 13 12 12 12 12 12 12 12 12 12 12 12 11
12 12 10 10 10 12 11 12 15 16 16 15 16 16 16 15 15 14 15 16 15 15 15 14 14 14 14 14 14 14 14 13 13 12 12 12 11 11 11 11 11 11 11 11 11 11 11 11 10
12 13 12 11 11 13 10 12 15 16 14 13 13 13 13 13 14 13 13 13 15 15 14 13 13 13 13 13 13 13 12 12 11 11 11 11 10 10 10 10 10 10 10 10 10 9 9 10 8
11 10 11 10 9 11 13 13 15 15 16 15 14 13 13 13 13 14 14 14 14 14 13 12 12 12 12 12 11 11 11 11 10 10 10 10 10 9 9 9 9 9 9 9 9 8 8 9 7
11 12 11 10 10 11 12 13 15 15 15 15 14 13 12 11 12 13 13 11 11 12 11 11 11 11 11 11 10 10 10 9 9 9 9 9 8 8 8 8 8 8 8 8 8 8 8 7 7
10 11 10 12 11 12 12 15 15 15 14 14 13 12 11 10 9 9 8 7 9 10 10 11 10 10 10 10 9 9 8 8 8 7 7 7 7 7 7 7 7 7 7 7 7 7 6 6 6
9 11 12 11 10 9 10 14 14 14 13 12 13 11 11 10 9 8 8 9 10 10 10 10 10 9 9 9 8 8 8 7 7 6 6 6 6 6 6 6 6 6 6 6 6 6 5 5 5

GFSSGP_850_temp_075.txt.gz
Temp
16 15 16 17 20 22 23 25 26 24 25 25 24 26 27 27 28 24 20 20 19 18 16 17 17 17 17 16 16 16 15 16 16 16 16 15 16 16 16 17 17 17 17 16 16 16 15 15 16
14 16 16 20 20 22 23 25 23 25 25 23 24 24 25 26 22 19 20 20 19 18 16 16 17 17 17 16 16 16 16 16 16 16 16 15 15 16 16 16 17 17 16 16 15 15 15 16 16
15 16 19 20 21 22 24 24 25 23 21 22 24 23 25 23 20 20 20 19 19 18 16 17 17 17 17 17 16 16 16 16 17 17 16 15 15 15 16 16 17 17 17 16 16 16 16 16 16
15 16 19 20 21 23 25 23 22 23 21 22 23 25 21 19 21 21 18 19 19 18 17 16 17 17 17 17 16 16 16 16 17 17 16 15 15 15 16 17 17 17 17 16 16 16 16 16 16
14 18 19 20 21 24 23 21 20 23 24 22 22 24 21 18 18 18 19 19 19 19 17 16 16 16 16 16 16 17 16 17 16 16 16 15 15 16 16 17 17 17 17 17 16 16 16 16 16
15 19 19 20 22 23 22 20 21 22 22 23 22 23 19 16 17 18 19 19 19 18 16 16 16 16 16 16 16 17 18 17 17 16 16 15 15 15 16 17 17 17 17 17 16 16 16 16 16
15 19 19 21 22 19 20 19 21 22 22 21 22 22 18 15 16 18 19 19 19 17 16 15 16 16 15 16 16 17 18 18 17 17 16 15 14 14 16 16 16 17 17 16 16 16 16 16 16
15 17 19 21 21 19 19 18 18 20 21 18 18 23 19 15 16 17 18 18 19 17 16 15 15 15 15 15 16 17 17 18 17 17 16 15 16 17 16 16 16 17 17 17 16 16 16 16 16
13 13 17 19 18 19 18 20 17 17 20 18 18 17 15 15 15 16 16 17 18 17 16 16 15 15 15 14 16 16 16 17 16 17 17 16 14 16 16 17 16 16 16 16 16 16 16 16 16
11 12 18 21 21 19 18 19 18 19 19 19 19 16 16 15 15 15 16 16 16 16 16 16 15 15 15 15 15 14 16 17 15 15 17 14 14 14 14 17 16 16 16 16 16 16 16 15 13
12 12 17 19 19 19 18 17 17 19 20 18 17 17 15 15 15 15 16 16 16 16 16 16 16 15 15 15 15 15 14 15 15 15 14 15 14 16 17 15 17 16 16 16 16 16 15 13 14
12 13 13 13 17 18 18 18 18 17 17 16 16 16 14 15 15 15 15 15 16 15 16 16 16 15 15 14 15 16 15 15 15 14 14 14 14 15 14 14 13 14 13 13 13 13 13 13 14
13 16 14 12 15 18 17 18 16 16 17 16 17 17 15 14 14 15 15 15 15 15 15 15 16 15 15 15 15 16 16 15 15 14 14 14 14 14 14 14 14 14 14 14 13 13 13 13 13
16 16 14 14 13 17 18 17 16 16 17 17 17 17 16 15 15 14 14 15 15 15 15 15 15 15 15 15 15 15 16 15 15 14 14 15 14 14 15 14 15 14 15 14 13 13 13 13 13
16 16 16 14 11 14 17 16 16 17 16 17 17 18 17 16 14 16 15 15 15 15 15 15 15 15 15 15 15 16 16 15 15 14 14 15 15 15 15 15 14 14 14 14 13 13 13 13 13
14 16 13 16 15 14 16 16 17 17 17 17 17 18 18 16 16 16 16 16 15 15 15 15 15 15 15 15 15 15 16 15 15 15 14 14 15 16 15 15 15 14 13 14 13 13 13 13 13
13 13 14 16 16 15 15 16 18 16 16 16 16 17 18 17 16 16 16 15 15 15 15 15 15 15 15 15 15 15 15 15 15 15 15 14 14 14 15 14 14 14 13 13 13 13 13 13 13
13 14 15 16 15 15 15 15 15 16 15 15 16 17 18 17 17 16 16 15 15 15 15 15 15 15 15 15 15 15 15 15 15 15 15 15 14 14 14 14 14 13 13 13 13 13 13 13 13
16 16 16 17 16 14 15 15 15 15 15 15 16 17 17 18 17 16 16 16 15 15 15 15 15 16 15 14 15 14 14 14 14 14 14 14 14 14 14 14 13 13 13 13 13 13 13 13 13
15 16 15 16 15 14 15 16 17 17 16 16 17 18 18 18 18 16 16 16 16 15 15 15 15 14 14 14 14 14 14 14 14 14 15 15 15 15 15 15 14 14 13 13 13 13 13 13 13
15 16 14 14 14 14 16 16 17 17 16 16 17 17 18 18 18 18 16 16 16 16 16 16 16 16 16 15 14 16 16 15 15 15 15 16 15 15 15 15 14 14 13 13 13 13 13 12 12
13 16 16 15 14 13 16 16 18 17 16 17 17 17 18 18 18 18 17 16 17 16 17 17 17 17 17 17 16 16 15 14 14 14 15 15 15 15 15 15 14 14 14 14 13 13 13 11 11
14 15 15 14 14 16 15 15 18 18 16 16 18 17 17 17 17 17 16 16 17 16 17 17 17 17 17 16 16 15 15 15 15 15 15 15 15 15 14 14 14 13 13 13 13 12 12 12 12
14 14 14 14 15 12 14 15 17 18 17 18 18 18 17 17 17 16 15 14 16 16 16 16 16 16 15 15 15 15 15 15 14 14 14 14 13 13 13 13 12 12 12 12 12 12 11 11 11
14 13 11 11 11 12 15 15 17 18 18 18 17 18 18 17 17 16 15 14 14 16 16 15 15 15 15 14 14 14 14 14 14 13 13 12 12 12 12 12 11 11 11 11 11 11 10 10 10
13 14 13 12 12 14 13 13 16 18 18 16 16 16 16 16 17 17 16 14 13 15 15 15 15 14 14 14 13 14 14 13 13 13 12 11 11 11 11 10 10 10 10 10 10 9 9 9 9
12 11 13 13 14 14 14 15 17 17 17 17 17 16 15 15 15 15 14 14 12 13 15 14 13 14 14 13 13 13 13 12 12 11 11 11 10 10 9 9 9 9 9 9 9 9 8 8 8
13 14 12 11 11 13 14 15 17 16 16 17 16 15 15 14 14 13 13 12 12 11 12 11 11 12 12 12 12 12 12 11 11 10 10 10 9 9 9 8 8 8 8 8 8 8 8 7 7
11 12 12 13 13 13 14 16 18 16 16 16 15 14 14 14 13 12 11 10 10 9 9 9 10 11 11 11 11 11 11 10 10 9 9 9 8 8 8 8 8 8 7 7 7 7 6 6 6
11 13 14 12 12 12 12 14 16 17 16 15 15 14 14 12 12 11 10 9 8 8 7 9 10 11 11 10 10 10 10 9 9 8 8 7 7 7 7 7 7 7 7 6 6 6 5 5 5

GFSSGP_850_temp_078.txt.gz
Temp
15 16 16 16 16 17 18 21 24 23 25 24 24 23 22 22 23 20 20 20 20 20 19 18 16 17 17 17 16 16 16 16 16 16 15 15 16 17 17 17 17 16 16 15 16 16 16 16 16
15 15 16 17 16 17 19 23 22 23 23 23 24 23 22 21 21 20 20 20 19 21 19 18 17 17 17 17 17 17 17 17 16 15 15 15 16 17 17 17 17 16 16 16 16 16 16 16 15
15 15 17 16 17 17 20 23 22 23 23 23 24 22 19 19 20 20 20 19 18 20 19 17 17 17 16 17 17 17 17 17 17 16 15 15 16 17 17 17 17 16 16 16 17 17 16 16 16
14 15 17 17 18 19 21 23 22 22 22 23 23 22 18 19 21 20 20 19 18 17 17 17 17 17 16 17 17 17 17 17 17 16 15 15 16 16 17 17 17 17 17 17 17 17 16 16 16
13 15 16 17 18 21 22 22 21 22 22 22 23 19 19 18 19 19 19 19 18 17 17 17 16 16 17 16 17 17 17 17 17 16 15 15 16 16 17 17 17 17 17 17 17 17 17 16 16
13 16 16 17 18 21 20 21 21 22 23 22 22 19 17 18 18 19 19 19 18 18 17 17 16 16 16 16 16 17 17 17 17 16 15 15 15 16 17 17 17 17 17 17 17 17 17 17 16
12 14 15 18 19 20 19 20 21 22 22 21 22 20 16 17 18 19 19 19 19 18 17 17 16 16 15 15 16 17 17 17 17 16 15 14 15 16 16 17 18 17 17 18 17 17 17 17 16
13 13 15 17 19 19 19 19 19 19 19 19 20 20 16 18 18 19 19 19 18 17 17 16 16 16 15 15 16 16 16 16 17 16 16 15 18 18 17 18 18 18 18 17 17 17 17 17 16
13 12 14 16 17 18 19 18 18 19 19 18 18 17 16 17 18 18 19 18 18 17 16 16 15 15 15 16 16 16 16 16 16 16 16 15 16 17 17 18 18 17 17 17 17 17 17 16 16
11 11 15 17 16 17 18 19 18 19 19 19 17 16 15 18 18 18 18 17 16 17 16 17 16 15 14 15 16 16 16 16 16 16 16 15 14 15 18 17 17 17 17 17 17 17 17 16 16
12 12 15 15 15 18 18 17 17 19 17 17 17 16 15 15 18 18 18 18 16 16 16 16 15 15 15 15 15 16 16 16 15 15 16 14 14 14 15 16 17 17 17 17 17 16 16 16 15
11 12 12 13 12 14 16 17 17 17 17 17 17 16 15 15 16 17 17 17 17 17 16 16 16 16 15 15 15 15 15 15 15 15 14 14 15 15 15 15 16 17 17 17 16 16 14 14 15
10 12 13 13 12 12 15 18 17 17 16 17 17 16 15 15 16 16 16 16 17 16 16 16 16 16 16 15 16 16 15 15 15 14 14 14 14 15 15 15 15 15 16 15 15 15 15 14 14
13 14 13 13 13 12 11 17 17 17 17 17 17 17 15 15 15 15 17 17 15 15 17 16 16 16 16 15 16 16 16 16 15 15 14 14 14 15 15 15 16 16 16 16 15 14 14 14 14
16 13 12 11 13 12 12 11 15 16 17 17 17 17 16 15 14 16 17 18 17 16 16 16 15 16 15 16 15 16 16 16 15 14 14 15 15 15 15 15 15 15 15 15 14 14 14 14 14
14 14 11 11 13 13 12 13 16 17 16 17 17 17 17 16 16 16 16 17 16 15 15 16 16 15 15 15 15 16 15 15 15 15 14 15 15 15 15 15 15 14 14 14 14 14 14 14 13
11 10 13 12 12 11 10 11 17 17 16 17 16 17 17 17 16 16 15 16 16 16 16 15 15 15 15 16 15 16 15 15 15 15 15 14 15 15 15 15 14 14 14 14 14 14 13 13 13
11 12 13 14 12 12 10 12 15 16 16 17 17 16 17 17 17 16 16 16 15 15 15 16 15 15 15 15 15 15 15 15 15 15 15 15 14 14 14 14 14 13 13 13 13 13 13 13 13
13 13 14 14 16 14 14 13 14 16 16 16 16 15 16 17 17 17 16 16 16 16 15 15 16 16 14 15 15 15 15 15 15 15 15 15 15 14 14 14 14 13 13 13 13 13 13 13 13
9 13 14 15 13 13 14 14 15 14 15 15 15 15 16 16 17 17 17 16 16 16 16 16 15 16 16 15 15 14 15 14 14 14 14 14 14 14 14 14 14 14 13 13 13 13 12 12 12
9 12 13 10 13 12 13 13 14 15 16 16 16 16 16 16 17 17 17 17 17 16 16 15 15 14 15 15 15 15 15 15 15 15 14 15 15 14 14 14 14 14 13 14 13 13 12 12 12
11 13 15 14 12 12 13 11 14 15 14 15 16 16 17 17 17 18 17 17 17 17 16 16 15 15 15 15 16 16 16 15 15 15 15 15 15 15 15 15 15 14 14 14 13 13 13 12 11
12 14 13 13 13 14 12 11 14 15 14 14 15 16 17 17 18 18 18 17 17 17 17 17 17 16 16 16 15 15 15 15 14 14 14 14 15 15 15 15 14 14 14 13 12 12 12 12 11
13 12 11 13 12 8 13 13 13 14 14 15 16 17 17 17 17 17 17 16 16 16 16 17 16 16 16 16 16 16 15 15 14 14 14 14 15 15 14 14 13 13 12 12 12 11 11 11 10
12 10 8 8 7 9 13 12 12 15 16 17 15 17 17 17 17 17 16 16 16 15 15 16 16 16 15 16 16 16 15 15 14 14 14 14 13 13 13 13 12 12 11 11 11 10 10 10 9
12 12 8 10 8 10 14 11 13 15 16 16 16 16 16 16 16 17 17 16 16 15 15 14 16 15 15 14 14 15 14 14 14 13 13 13 12 12 11 11 11 11 10 10 10 9 9 9 9
11 10 12 10 13 9 11 13 16 16 16 16 16 16 15 15 15 16 16 15 15 15 15 14 14 14 14 14 13 14 14 14 13 13 12 12 11 11 10 10 10 9 9 9 9 9 9 8 8
10 13 10 7 8 12 12 13 13 14 14 14 13 14 14 14 15 15 14 14 14 13 13 12 12 14 13 13 13 13 12 13 13 12 11 11 11 10 10 9 9 9 9 8 8 8 8 7 7
10 9 11 11 8 9 10 12 13 13 13 12 13 14 13 13 13 13 13 13 12 12 12 11 10 10 11 13 13 12 13 12 11 11 11 10 10 9 9 9 8 8 8 8 7 7 7 6 6
10 11 11 7 9 9 8 10 15 13 13 14 14 14 15 13 13 11 11 11 11 10 10 9 9 10 10 10 12 12 11 11 11 11 10 9 9 9 8 8 7 7 7 7 6 6 6 5 5

GFSSGP_850_temp_081.txt.gz
Temp
15 16 16 16 15 14 14 18 22 22 22 23 23 23 21 20 19 20 18 19 19 19 18 18 17 17 17 16 16 16 16 16 16 16 17 17 17 17 17 16 16 16 16 16 16 16 16 16 15
15 15 15 16 14 13 14 19 20 22 22 22 22 22 19 20 20 18 18 19 20 19 19 17 17 17 17 16 16 17 17 17 16 16 17 17 17 17 17 17 17 16 16 16 16 17 16 16 15
14 14 15 12 13 13 16 20 21 22 23 22 21 20 19 19 20 19 19 19 19 19 18 17 17 17 16 16 17 17 17 17 16 15 16 17 17 17 17 17 17 17 17 17 17 17 16 16 15
13 14 15 13 13 16 18 19 21 22 22 23 22 19 19 17 19 19 18 19 19 18 18 17 17 16 16 17 17 17 17 17 16 15 16 17 17 17 17 17 17 17 17 17 17 17 16 16 16
12 13 11 12 14 17 18 21 22 21 21 22 20 17 18 18 19 18 18 18 19 18 17 16 16 16 16 16 17 17 17 17 16 15 17 17 18 18 18 17 18 17 17 17 17 17 17 17 16
12 14 11 12 14 17 19 21 23 21 22 22 19 18 16 18 17 17 18 18 18 17 16 16 16 16 16 16 17 17 17 17 16 15 16 17 18 18 18 18 18 18 18 18 17 17 17 17 16
11 10 12 13 15 17 18 20 19 20 20 20 20 15 16 16 16 17 18 18 17 17 16 16 16 16 15 16 16 17 17 16 16 15 15 16 16 17 18 18 18 18 18 18 18 18 17 17 17
12 10 13 13 15 17 18 18 18 19 18 19 19 15 16 18 16 17 18 17 17 17 17 16 16 16 16 16 17 17 17 17 16 15 16 17 17 17 17 18 18 18 18 18 18 18 18 17 17
12 11 12 13 15 16 18 17 18 18 18 18 18 18 19 18 19 16 17 17 17 17 17 16 16 16 16 16 17 17 16 17 16 16 16 16 17 17 17 17 17 18 18 18 18 18 17 17 17
12 11 12 15 14 15 17 18 18 18 17 15 16 17 17 18 19 19 16 17 17 17 16 16 16 15 15 16 17 17 17 16 16 16 16 16 17 17 17 17 17 17 17 17 17 17 17 17 17
12 11 13 13 13 15 17 17 18 17 15 16 15 16 17 16 18 20 16 16 17 17 17 16 16 15 15 15 16 17 17 17 16 16 15 15 16 16 16 17 17 18 18 17 17 17 16 16 16
10 12 12 12 11 12 15 17 16 17 16 17 17 17 16 17 17 18 17 15 16 17 17 16 16 15 15 15 15 16 16 16 16 15 15 14 14 15 16 16 17 17 17 17 17 16 16 16 15
10 11 11 11 12 11 13 14 16 16 17 17 16 16 17 17 17 17 16 16 16 17 17 16 17 16 15 15 15 15 15 15 15 15 14 14 14 15 16 16 16 16 16 16 16 16 15 15 15
11 12 11 11 12 10 12 12 15 16 17 16 16 16 15 16 17 17 17 17 17 17 17 16 16 16 16 15 15 16 16 15 15 15 15 14 15 15 15 15 15 16 16 15 15 15 15 15 14
12 11 10 11 11 10 11 12 13 16 17 17 16 16 15 15 16 16 17 17 17 16 16 16 16 16 16 16 16 16 15 15 15 15 15 15 15 15 15 15 15 15 15 15 15 15 14 14 14
11 11 10 11 10 10 10 12 12 14 16 17 16 16 16 16 16 16 16 17 17 16 16 16 16 16 16 16 16 16 16 15 15 15 15 15 15 15 15 15 15 15 15 14 14 14 14 14 14
10 8 9 9 10 10 10 11 12 14 16 16 17 16 16 16 16 16 16 16 16 17 16 16 15 16 16 16 16 15 15 15 15 15 15 14 15 15 15 15 15 14 14 14 14 14 13 13 13
10 10 10 11 9 10 10 10 12 14 13 16 16 17 16 16 17 17 17 17 17 16 16 16 16 16 16 16 15 15 15 15 15 15 15 15 15 14 14 14 14 14 13 13 13 13 13 13 13
10 11 11 12 11 11 10 11 12 13 13 14 15 16 17 16 16 17 17 17 16 17 16 16 16 16 15 15 15 15 15 15 15 15 14 15 14 14 15 14 14 14 13 13 13 13 13 13 13
9 11 12 13 11 12 11 12 12 12 13 15 16 16 16 16 16 16 17 17 17 16 16 16 16 15 15 15 15 15 15 15 15 15 14 15 15 14 14 14 13 13 14 13 12 12 12 12 11
8 9 11 12 11 10 11 11 12 13 14 16 16 16 16 16 17 16 16 17 17 17 16 16 16 16 15 15 15 15 15 15 15 15 15 15 15 14 15 15 15 14 12 12 12 12 11 11 11
8 10 12 12 11 10 11 10 12 13 13 12 14 15 15 15 16 16 16 16 17 17 17 17 16 16 16 16 15 16 16 16 15 15 15 15 15 14 14 14 14 14 14 14 14 13 13 12 12
9 10 11 12 11 11 11 11 11 12 12 12 12 15 16 16 16 17 16 16 17 17 17 17 17 15 16 16 16 16 16 15 15 15 14 14 14 14 14 15 14 14 14 14 13 13 12 12 11
10 11 10 10 10 8 11 11 10 11 13 12 13 15 16 16 16 17 17 17 17 17 17 17 17 17 15 15 15 16 16 16 15 15 14 14 14 14 15 14 14 13 13 13 12 12 11 11 11
10 9 8 8 8 9 11 10 11 13 14 13 13 15 16 16 17 17 17 17 16 16 16 16 16 16 17 16 16 15 15 15 15 14 14 14 15 15 14 13 13 12 12 12 11 11 11 10 10
9 9 7 8 8 9 11 9 12 13 14 15 16 16 16 16 16 16 16 16 16 16 15 15 15 15 15 16 15 15 15 14 14 14 15 15 14 14 14 13 12 12 11 11 11 10 10 10 9
10 8 11 9 10 7 9 11 12 12 12 13 14 15 15 15 15 15 15 15 16 16 16 16 15 15 15 14 14 14 14 14 13 13 13 13 13 12 12 12 11 11 10 10 10 10 9 9 8
11 11 8 4 8 10 8 11 10 12 11 10 10 12 14 14 14 14 14 15 15 15 15 15 14 14 13 13 13 14 14 13 13 13 12 13 12 11 11 11 10 10 9 9 9 9 8 8 8
9 9 10 9 6 8 8 9 10 10 10 9 10 13 14 14 14 14 13 13 13 13 14 13 13 12 12 12 11 11 12 13 12 11 13 12 12 11 10 10 9 9 8 8 8 8 7 7 7
9 9 10 5 9 5 5 9 12 10 10 12 13 13 13 13 13 14 13 12 12 12 12 12 11 11 10 10 11 11 11 11 11 13 13 10 11 10 8 8 8 8 7 7 7 6 6 6 6

GFSSGP_850_temp_084.txt.gz
Temp
14 14 15 15 14 13 13 16 19 19 18 21 22 21 20 19 20 18 17 19 18 18 17 17 17 16 16 16 16 16 16 16 16 16 16 16 16 16 15 15 16 16 17 17 17 16 15 15 15
13 14 14 15 13 12 16 17 19 19 19 21 22 20 19 19 18 17 16 18 18 18 17 17 17 16 16 16 16 16 16 16 17 17 17 17 17 17 17 16 17 17 17 17 16 16 16 15 15
12 13 14 12 12 14 16 18 19 21 20 19 20 20 19 17 17 16 18 17 17 17 17 16 16 16 16 16 17 16 15 16 16 17 18 18 18 18 18 17 17 17 17 17 16 16 16 16 15
12 12 13 12 12 15 17 19 20 20 21 20 20 18 18 16 17 18 17 17 17 17 16 16 16 16 16 17 17 16 16 15 16 17 18 18 18 18 18 18 18 18 18 17 17 17 16 16 16
11 11 12 11 12 15 17 19 19 20 21 21 20 16 16 15 18 17 18 17 17 16 16 16 16 16 16 16 17 17 16 15 16 17 18 18 18 18 18 18 18 18 18 18 17 17 17 16 16
11 12 11 11 12 15 17 20 19 20 21 20 19 17 17 16 16 16 16 17 17 16 16 16 16 15 16 16 16 16 16 15 15 17 18 18 18 18 18 18 18 18 18 18 18 17 17 17 16
10 10 10 12 13 16 17 19 19 19 20 18 19 16 16 17 15 16 16 17 17 16 16 15 16 16 16 16 16 16 16 15 14 16 17 17 18 18 18 18 18 18 18 17 17 17 17 17 16
11 11 11 11 13 15 18 18 18 20 17 18 18 14 15 18 17 16 15 16 17 16 16 15 15 15 15 16 16 17 16 15 14 15 16 17 17 18 18 18 18 18 18 17 17 17 17 17 16
10 11 11 12 13 16 17 17 17 18 18 17 18 17 19 19 16 19 17 15 16 16 16 16 16 15 16 16 17 17 17 16 15 15 16 17 17 17 18 18 18 17 17 17 17 17 17 17 17
10 11 12 13 14 15 16 17 18 17 15 15 17 17 18 19 17 20 17 15 15 16 16 16 16 16 16 16 17 17 17 16 16 16 16 16 17 17 17 17 17 17 17 17 17 17 17 16 16
11 11 12 14 12 13 14 16 17 16 15 15 15 15 15 16 15 17 18 17 15 16 16 16 16 15 16 16 17 17 17 17 16 16 16 16 16 16 16 16 17 17 17 17 16 16 16 16 16
9 12 13 12 10 12 11 13 15 16 16 17 17 17 15 15 17 18 18 16 15 15 16 17 16 15 15 15 16 17 17 16 16 16 15 16 16 16 16 17 16 16 16 16 16 16 15 15 15
10 11 12 10 11 10 12 12 14 15 16 17 16 16 17 17 15 16 17 16 16 14 13 16 16 16 15 15 15 16 16 16 16 15 15 15 15 16 16 16 16 16 16 16 16 15 15 15 14
11 9 12 10 10 10 10 12 14 15 16 16 16 16 16 16 17 16 15 16 17 15 14 14 16 16 16 15 15 15 15 15 15 15 15 15 15 15 15 16 16 16 16 16 16 15 15 14 14
10 10 9 10 10 10 10 12 13 13 15 16 16 16 15 16 16 16 17 16 16 14 16 15 15 15 16 16 15 15 15 15 15 15 15 14 15 15 15 15 16 15 15 15 15 15 14 14 14
10 10 9 9 10 9 10 12 12 13 13 15 15 16 16 16 16 16 16 16 16 15 15 15 16 15 15 15 16 15 16 16 15 15 15 14 14 15 15 15 15 15 15 15 14 14 14 14 14
8 8 9 10 10 10 9 9 12 12 12 13 15 15 16 16 16 16 16 16 16 16 16 16 16 18 15 15 15 15 16 15 15 15 15 15 14 15 15 15 15 15 14 14 14 13 13 13 13
8 8 9 10 10 10 9 10 10 12 11 13 14 15 16 16 17 16 16 16 16 16 16 17 17 18 18 15 15 15 15 16 15 15 15 15 15 14 14 14 14 14 14 13 13 13 13 13 13
10 9 9 10 10 10 9 10 10 11 12 12 14 14 15 16 16 16 17 16 16 16 16 16 16 16 16 15 15 15 15 15 15 15 15 15 15 15 15 15 14 14 13 13 13 13 13 13 13
9 11 9 11 10 10 10 10 11 10 12 13 15 14 15 16 16 16 16 17 17 17 16 16 16 16 15 17 16 16 15 15 15 15 15 15 15 15 15 15 14 13 13 13 13 12 12 12 12
8 9 10 9 9 10 10 10 11 12 12 13 15 15 16 16 16 16 16 16 17 17 17 17 16 16 16 16 16 16 15 15 15 15 15 15 15 15 15 14 14 13 13 13 12 12 12 11 12
9 9 11 11 9 10 10 9 10 11 12 11 13 14 15 16 16 16 16 16 16 17 17 16 16 16 16 15 15 15 16 15 15 15 16 16 15 15 15 14 14 14 15 14 14 13 13 12 12
9 9 10 11 9 10 8 8 11 12 11 11 11 14 15 16 16 15 15 16 16 17 17 17 17 16 16 16 15 15 16 15 15 15 15 15 15 15 15 15 15 15 14 14 14 13 13 12 12
9 9 8 9 8 9 10 9 10 11 12 12 12 14 15 16 16 16 16 16 16 16 16 17 17 17 16 16 16 15 15 15 15 15 15 15 15 15 15 15 15 15 14 14 13 13 12 12 11
8 8 7 8 8 9 10 10 9 12 13 12 11 14 16 15 15 16 16 16 17 16 16 16 16 16 16 16 15 15 15 15 15 15 15 15 15 15 15 14 14 14 13 13 12 12 11 11 11
9 8 7 8 8 9 10 10 11 12 13 13 14 15 15 16 16 16 16 16 17 17 15 15 15 16 16 15 15 15 15 15 15 15 14 14 14 14 14 14 14 13 12 11 11 11 11 10 10
8 7 10 8 8 6 9 10 12 11 11 11 12 13 14 14 15 15 16 16 16 16 16 15 15 15 15 15 15 14 14 15 14 14 14 13 13 13 13 13 13 12 12 11 10 10 10 10 9
9 10 8 4 8 10 8 10 10 11 11 10 10 12 13 14 14 14 15 15 15 15 15 15 15 15 14 14 14 13 13 13 13 14 14 13 13 13 12 11 11 11 11 10 9 9 9 8 8
9 9 8 7 5 7 8 9 9 10 9 9 10 13 13 13 13 13 14 14 14 14 14 13 13 13 13 13 12 12 12 11 12 12 13 12 12 11 11 11 10 10 10 9 8 8 8 7 7
9 9 8 5 8 4 4 8 8 8 8 10 11 13 13 13 13 14 14 14 14 13 13 12 12 12 12 11 11 11 11 11 11 11 11 11 10 11 10 10 10 9 8 8 8 7 7 6 6

GFSSGP_850_temp_087.txt.gz
Temp
12 13 13 14 12 12 13 16 17 17 17 19 20 19 19 17 19 18 16 16 18 17 17 16 16 16 16 16 16 15 15 16 15 15 16 16 15 15 15 16 17 17 17 17 16 16 16 16 16
12 13 12 13 11 13 15 16 18 17 17 19 20 20 19 17 16 16 15 16 17 17 16 16 16 16 16 16 16 16 15 16 16 15 16 16 15 15 16 17 17 17 17 17 16 16 16 16 16
11 12 12 10 10 14 16 16 19 19 18 17 19 19 18 16 15 15 16 16 17 17 16 16 16 16 16 15 16 16 16 16 16 16 16 16 16 16 17 18 18 18 17 17 17 17 17 17 17
11 12 12 11 11 13 16 17 19 18 18 16 17 18 17 16 16 16 16 16 16 16 16 16 16 16 15 15 16 15 14 17 17 17 17 18 18 18 18 18 18 18 17 17 17 17 17 17 17
10 12 12 12 11 13 15 18 20 18 18 17 18 18 16 16 18 17 17 16 16 16 16 16 16 16 16 15 15 15 15 16 17 17 18 18 18 18 18 18 18 18 18 17 17 17 16 16 16
10 11 11 11 13 13 16 18 18 18 19 19 17 16 16 16 16 16 16 16 16 16 16 16 15 15 16 16 15 14 14 15 17 17 18 18 18 18 18 18 18 18 17 17 17 17 16 16 16
9 10 11 11 13 14 15 18 17 18 18 18 19 15 15 15 15 16 16 16 16 16 15 15 15 15 15 16 16 15 14 14 16 17 17 18 18 18 18 18 18 18 17 17 17 16 16 16 15
9 10 10 11 12 13 17 18 18 19 17 19 18 14 14 17 14 15 16 15 16 16 16 15 15 15 15 15 16 15 14 14 14 16 16 17 17 17 18 18 17 17 17 17 17 16 16 16 15
9 9 10 11 12 14 17 16 17 18 17 17 17 17 16 15 15 14 15 15 15 15 15 15 15 15 15 15 16 16 15 14 14 15 16 16 17 17 17 17 17 17 17 17 17 16 16 16 15
8 9 9 12 13 14 15 16 17 16 15 15 15 16 17 16 17 14 16 16 15 15 15 15 15 15 15 15 16 16 16 15 15 15 16 16 16 16 17 17 17 16 16 16 16 16 16 16 15
9 9 10 12 12 13 13 14 15 15 15 15 16 15 16 17 19 19 16 19 17 15 15 16 15 15 15 15 16 16 16 16 15 16 16 16 16 16 16 16 16 16 16 16 16 16 16 15 15
8 10 10 12 10 11 11 12 14 15 16 17 17 19 17 15 14 14 17 18 18 15 14 14 15 16 16 15 16 16 16 16 16 16 16 16 16 16 16 16 16 16 16 16 15 15 15 15 15
8 10 9 11 10 10 12 11 12 14 15 15 16 15 16 15 15 16 18 18 18 17 15 13 15 14 16 16 16 16 16 16 16 16 16 16 15 15 15 16 15 15 16 16 15 15 15 15 14
9 11 8 12 10 9 10 11 13 14 14 15 15 16 15 16 16 15 16 17 16 14 14 14 16 15 15 16 16 16 16 16 16 16 16 16 15 15 15 15 15 15 15 15 15 15 15 14 14
9 10 9 11 9 10 10 12 11 11 14 15 15 16 17 17 16 15 16 16 16 15 16 15 15 14 15 15 16 15 15 15 15 15 15 15 15 15 15 15 15 15 15 15 15 14 14 14 14
8 8 7 10 9 9 10 12 11 12 14 14 14 15 16 16 16 16 17 16 16 15 15 16 14 15 14 15 16 15 15 15 15 15 15 15 15 15 14 14 15 14 14 14 14 14 14 14 13
9 8 7 9 9 9 9 10 11 11 12 13 14 15 16 17 16 16 16 16 16 15 15 14 15 16 15 15 14 15 15 15 15 15 15 15 15 14 14 14 14 14 14 14 14 13 13 13 13
7 8 7 7 9 8 8 9 9 10 11 11 13 14 15 16 16 17 16 16 16 15 15 15 15 15 14 14 15 16 14 15 15 16 15 15 15 14 15 14 14 14 14 14 13 13 13 12 13
9 8 8 8 9 9 8 8 9 9 11 11 12 13 15 16 16 16 16 15 15 15 15 15 15 14 14 14 15 15 15 14 14 15 15 15 15 15 15 15 14 14 14 13 13 13 13 13 12
9 9 9 9 9 10 9 9 9 9 10 11 12 13 15 15 16 16 16 16 16 16 16 15 15 15 15 15 16 15 15 15 15 15 15 15 15 14 15 15 14 14 14 13 13 12 12 12 12
8 8 9 10 9 9 9 9 9 9 10 11 12 13 14 15 16 16 16 16 16 16 16 16 16 16 16 15 15 15 15 15 15 15 16 15 15 14 15 14 14 14 14 13 13 12 13 13 12
8 9 10 9 9 9 9 10 10 11 10 11 11 13 14 15 15 15 16 16 16 17 16 16 16 16 16 16 15 15 15 15 15 16 15 15 15 15 15 15 15 14 14 13 13 14 13 13 13
8 9 9 10 9 9 9 8 11 11 11 12 10 13 14 15 16 16 16 16 16 16 16 16 16 16 16 16 16 15 15 15 15 15 15 15 15 14 14 14 15 14 14 14 14 14 13 13 13
8 8 9 8 8 8 9 9 10 10 11 12 11 13 15 15 15 16 16 15 15 16 16 16 16 16 16 15 15 15 15 15 15 15 15 15 15 13 14 15 15 14 14 14 14 14 13 12 12
7 8 7 8 8 9 9 9 9 10 11 12 11 14 15 16 16 15 16 15 16 16 17 16 16 16 16 16 16 15 15 15 15 15 15 15 15 14 15 15 14 14 14 14 13 13 12 12 11
8 8 8 9 8 8 9 9 10 11 10 11 12 13 14 14 15 15 15 15 16 16 17 16 16 16 16 16 16 15 15 15 15 15 15 15 14 14 14 13 14 13 13 13 12 12 11 11 11
8 6 9 7 7 6 8 10 11 11 9 9 11 12 13 14 14 15 15 16 16 16 16 16 15 15 15 15 16 16 15 15 15 14 14 14 13 14 13 13 13 13 13 12 11 10 10 10 10
9 9 8 5 8 10 8 8 10 11 11 10 9 11 12 13 14 14 15 15 15 15 16 16 14 14 14 14 14 14 14 14 14 14 13 13 13 13 12 12 11 11 11 12 11 11 10 9 9
8 9 7 7 5 7 7 8 9 10 10 9 9 11 12 13 13 13 13 14 14 14 14 14 14 14 14 14 13 13 12 13 12 13 12 12 12 12 12 11 12 12 11 10 10 9 9 8 8
8 9 7 5 7 3 4 8 6 8 8 9 10 12 12 12 13 13 13 13 13 13 13 13 13 13 13 12 12 12 11 11 11 11 11 11 12 12 11 11 12 10 10 9 8 8 7 7 7

GFSSGP_850_temp_090.txt.gz
Temp
11 12 12 13 11 10 11 15 16 14 15 18 19 18 18 16 18 17 15 16 17 16 16 16 16 16 16 16 16 16 15 16 16 16 16 16 16 16 15 16 17 17 17 17 17 17 16 16 16
10 11 12 12 10 10 13 14 17 15 16 17 18 19 17 16 16 15 15 15 16 16 16 16 16 16 16 16 15 15 15 15 15 15 15 15 15 15 17 17 17 17 17 17 17 17 16 16 16
10 11 12 10 10 11 13 15 18 17 16 15 16 18 18 15 16 16 15 15 16 16 16 16 16 16 16 16 15 15 15 15 15 15 15 15 15 16 17 17 18 18 17 17 17 17 17 17 16
10 11 12 10 12 12 14 16 18 17 16 16 15 16 17 16 16 15 15 16 16 16 16 16 16 16 16 16 16 16 15 15 15 15 16 16 16 17 18 18 18 17 17 17 17 17 17 16 16
10 11 10 11 11 11 13 16 19 17 16 15 13 15 16 15 16 16 15 15 15 15 16 16 16 16 15 16 15 14 16 16 16 16 16 16 17 18 18 18 18 17 17 17 16 16 16 16 16
9 10 10 10 11 13 14 17 18 18 18 16 14 14 16 16 15 15 15 15 16 16 16 15 15 15 15 15 15 15 15 16 17 17 17 17 18 17 18 18 17 17 17 17 16 16 16 16 16
8 9 11 12 11 11 13 17 16 17 18 16 17 14 14 15 16 15 15 15 15 15 15 15 15 15 15 15 15 15 15 16 16 17 17 15 17 17 17 17 17 17 17 16 16 16 16 16 16
8 9 10 12 12 11 13 16 18 18 18 19 18 14 14 15 16 15 15 15 16 15 15 15 15 15 15 15 14 14 15 15 16 16 17 17 17 17 17 17 17 16 16 16 16 15 15 15 15
8 8 9 11 12 11 14 15 17 18 18 18 17 18 17 15 16 15 14 15 15 15 15 15 15 15 15 15 15 14 14 14 15 16 16 16 16 17 16 16 16 16 16 16 16 16 15 15 15
7 8 10 12 11 11 13 14 16 16 15 15 15 17 16 15 16 14 14 15 15 14 14 15 15 15 15 15 15 14 14 14 15 15 16 16 16 16 16 16 16 16 16 16 16 16 16 15 15
7 8 10 12 12 10 12 13 16 14 13 17 15 17 17 17 15 15 14 13 14 15 14 14 14 14 15 15 15 16 14 14 14 15 16 16 16 16 16 16 16 16 16 16 16 16 16 15 15
6 9 9 11 11 9 11 13 13 15 15 17 17 18 17 15 14 16 16 15 13 14 16 15 14 14 14 14 16 16 15 15 15 15 15 16 16 16 16 16 16 15 15 15 15 15 15 15 14
7 8 10 10 11 9 10 10 12 13 14 15 16 16 16 18 18 16 17 16 14 15 16 16 15 14 14 14 14 15 16 15 15 15 15 16 16 16 16 16 16 15 15 15 15 14 14 14 14
8 8 9 9 10 10 9 11 11 12 14 14 17 14 15 14 13 14 14 16 17 15 17 17 16 15 14 14 14 15 15 16 15 15 15 15 15 15 15 15 15 15 15 15 15 14 14 14 14
8 8 9 8 8 10 9 10 9 10 13 13 14 15 13 13 14 14 15 15 16 16 17 19 17 16 15 15 15 14 14 15 15 15 15 15 15 15 15 15 15 14 15 14 14 14 14 14 14
6 8 8 8 7 7 9 11 9 10 12 12 12 17 14 14 16 15 15 16 16 17 17 17 16 16 16 15 14 14 14 14 15 15 15 15 15 14 14 14 14 14 14 14 14 14 14 13 13
7 8 8 8 8 8 9 10 9 9 10 11 12 13 15 15 15 16 16 16 17 16 16 16 15 15 14 14 14 14 14 14 14 14 15 15 15 14 14 14 14 14 14 14 14 13 13 13 13
6 7 7 8 9 8 8 9 10 9 9 9 11 12 14 16 16 16 16 17 17 17 15 16 15 14 14 15 16 15 15 15 16 16 15 15 15 15 14 14 14 14 14 14 13 13 12 12 12
7 8 7 7 8 8 8 8 9 9 9 9 11 13 13 14 14 16 16 16 16 16 16 15 15 15 14 14 14 15 15 15 14 15 15 15 15 15 14 14 14 14 14 13 13 13 13 12 12
8 7 8 8 8 8 8 9 9 9 8 9 10 12 13 15 15 14 16 15 15 15 14 14 14 14 15 15 14 15 15 14 14 16 15 15 15 14 14 14 14 14 14 14 13 13 12 12 12
8 8 8 8 8 9 8 9 9 8 8 9 10 12 13 14 15 15 15 15 15 15 15 15 14 14 14 15 14 14 14 14 14 15 16 15 14 14 14 14 14 14 14 13 13 13 13 12 12
8 8 10 9 9 9 9 9 9 9 9 9 10 12 13 14 15 15 15 16 16 16 15 15 15 15 15 14 14 14 14 14 15 15 15 15 14 14 14 13 13 13 12 13 13 13 13 12 13
8 8 9 9 9 9 8 8 10 9 9 10 10 12 13 14 14 15 16 16 16 16 16 16 15 15 15 15 14 14 13 14 15 14 14 14 15 14 14 13 13 13 12 12 14 14 13 13 13
8 8 8 7 9 7 9 9 10 9 10 12 12 13 14 15 15 15 15 16 16 16 16 16 16 16 15 15 15 15 15 15 14 14 14 13 13 13 14 13 13 12 13 14 13 13 13 13 12
9 7 8 8 8 8 8 8 9 10 10 12 12 12 14 15 15 15 15 15 16 16 16 16 16 16 16 16 15 15 15 15 14 15 14 14 13 12 13 13 13 13 13 13 13 13 13 12 12
8 8 8 8 7 7 8 9 10 9 9 9 11 11 12 13 14 15 15 15 15 15 16 16 16 17 16 16 16 15 15 15 15 14 14 13 12 12 12 13 13 13 13 13 12 12 12 12 11
9 7 8 7 7 6 8 9 11 10 8 9 9 11 11 12 13 14 15 15 15 15 16 16 16 16 15 15 15 15 15 15 15 15 14 14 13 13 13 12 12 12 12 12 11 11 11 10 10
8 9 8 6 8 9 7 8 9 10 9 8 8 9 12 12 13 13 14 13 13 14 15 15 16 15 14 14 14 15 14 14 14 14 14 14 14 13 12 12 12 12 12 12 12 11 11 10 8
8 8 7 6 5 7 8 9 9 8 9 7 7 10 11 12 12 12 12 13 13 13 13 14 14 14 14 13 13 13 13 13 13 13 13 12 12 12 12 12 12 12 12 13 12 11 10 9 8
7 8 7 5 7 2 4 8 6 6 8 8 9 11 11 12 12 12 12 12 13 13 14 13 13 12 12 13 13 13 13 12 12 11 11 11 11 10 11 11 11 11 12 11 10 9 9 8 7

GFSSGP_850_temp_093.txt.gz
Temp
11 12 12 13 13 12 14 15 16 17 17 16 18 18 18 16 19 20 15 15 16 17 16 16 16 16 16 16 16 16 16 16 16 16 16 16 16 15 16 16 17 17 17 17 16 16 16 16 16
11 11 12 12 12 12 14 15 17 17 17 16 17 18 17 18 16 15 15 15 16 16 16 16 16 15 16 16 16 16 15 15 16 16 16 16 16 15 16 17 17 17 17 17 16 16 16 16 16
10 11 12 11 12 13 14 15 17 18 16 14 14 16 17 17 16 16 16 15 16 16 16 16 16 16 16 16 16 16 15 15 15 16 16 15 15 16 17 17 17 17 17 17 16 16 16 16 16
9 10 11 12 12 14 15 16 17 17 14 14 15 14 16 16 16 16 16 15 15 16 16 16 16 16 16 15 15 15 15 15 15 15 15 15 15 16 17 17 17 17 17 16 17 16 16 16 16
9 9 11 11 12 13 14 15 16 18 16 14 14 14 13 15 16 16 16 15 15 15 15 16 16 15 15 15 16 15 15 15 15 15 14 15 16 17 17 17 17 17 16 16 16 16 16 16 16
9 9 10 11 13 13 14 14 16 17 16 15 15 14 14 15 15 15 16 15 15 15 15 15 15 15 15 15 16 16 15 15 15 15 15 16 16 17 17 17 16 16 16 16 16 16 15 15 15
8 9 10 12 13 14 13 13 14 16 16 15 15 15 14 15 15 15 16 15 15 15 15 15 15 15 15 15 15 15 16 16 16 16 16 16 17 17 17 16 16 16 16 16 16 16 16 15 15
8 9 10 11 12 12 14 13 14 15 17 17 16 15 13 15 16 15 15 15 15 15 15 15 15 15 15 14 15 15 15 16 16 17 14 17 17 17 17 17 16 16 16 16 16 16 16 16 16
7 7 8 10 11 13 13 13 14 15 16 17 16 17 17 16 15 15 15 14 14 14 14 15 15 15 15 14 14 14 14 15 16 16 17 17 17 17 17 17 17 16 16 16 16 16 16 15 16
7 7 9 11 12 13 13 13 14 14 16 16 16 16 16 15 14 14 13 14 14 14 14 15 15 15 15 15 14 14 14 14 15 16 16 16 17 17 17 16 16 16 16 16 16 15 15 15 15
7 6 9 10 11 11 12 12 13 13 13 17 16 15 15 15 15 13 12 11 14 14 14 14 14 14 14 15 14 14 14 14 14 15 16 16 16 16 16 17 16 16 16 16 15 15 15 15 15
6 8 8 9 10 11 12 10 13 11 14 15 16 18 15 15 14 14 12 12 12 14 15 14 15 14 14 14 14 14 14 14 14 15 15 16 16 16 16 16 16 16 16 16 15 15 15 15 15
6 8 8 8 9 10 11 10 9 11 14 15 15 16 15 15 15 14 14 15 15 13 15 15 16 14 14 15 15 15 14 14 14 14 15 15 15 15 15 15 15 15 15 15 15 15 15 14 14
6 7 7 8 10 10 10 10 9 11 12 15 16 15 16 15 16 15 14 15 16 14 14 15 16 16 15 15 15 15 15 14 14 14 14 15 15 15 15 15 15 15 15 15 15 14 14 14 14
6 4 7 8 9 10 9 9 9 10 11 14 17 13 15 16 17 17 16 16 16 16 13 15 16 16 16 15 15 15 15 15 15 14 14 14 15 15 14 14 15 14 14 14 14 14 14 14 14
5 5 7 8 9 6 9 10 9 8 10 13 15 16 13 13 13 15 17 15 14 14 14 15 16 15 18 17 15 15 15 15 15 15 14 15 14 15 14 14 14 14 14 14 14 14 14 14 14
6 6 7 7 8 7 6 8 9 8 9 9 10 13 16 13 12 12 17 16 15 14 16 16 16 18 18 17 16 16 15 15 15 15 15 15 15 14 14 14 14 13 14 14 14 14 13 13 13
6 8 8 9 8 8 6 5 5 8 8 9 10 10 12 15 15 15 16 15 15 15 15 15 16 17 17 16 15 15 15 15 15 15 15 15 14 14 14 14 14 13 13 14 13 13 13 12 12
7 8 8 8 8 8 7 5 7 9 9 9 9 10 11 13 14 12 13 13 14 15 15 16 15 16 17 17 14 15 16 16 16 15 15 15 15 14 14 14 13 13 13 14 13 13 13 12 13
7 8 8 7 8 7 7 6 7 10 9 8 9 10 11 12 13 12 13 13 13 13 14 16 16 16 16 15 14 14 16 15 17 15 14 15 14 15 14 14 13 13 13 13 13 13 12 12 12
7 8 7 7 8 8 8 6 8 9 9 9 10 10 11 12 12 12 13 15 14 15 16 16 15 16 15 15 15 14 16 15 16 15 14 14 14 13 14 15 14 12 12 13 12 12 12 12 12
8 8 9 8 9 9 9 9 8 9 10 10 10 11 12 12 12 13 14 15 15 15 16 16 15 14 14 14 14 14 14 14 14 14 13 13 13 13 13 13 13 12 12 12 12 12 12 12 13
8 8 9 9 9 9 8 9 8 9 9 10 11 11 12 13 14 14 14 14 14 14 15 15 14 13 13 13 13 12 12 13 14 13 13 13 13 12 12 12 12 12 12 12 12 11 11 12 12
8 8 8 8 8 9 9 9 11 10 11 10 10 11 13 13 14 15 14 15 15 15 15 15 15 15 14 14 14 14 14 13 14 13 13 13 13 12 12 12 12 12 11 12 12 11 12 12 13
8 7 8 8 7 8 8 9 11 10 9 10 12 12 12 12 13 15 15 15 15 15 15 15 16 16 15 15 15 14 14 14 14 14 14 13 13 13 12 12 12 12 11 12 12 11 12 13 13
7 7 8 8 8 8 9 9 10 9 8 9 11 12 12 11 13 13 14 15 15 15 15 15 15 15 15 16 15 15 14 14 14 14 14 14 14 13 12 12 12 11 11 12 12 12 11 12 12
8 7 8 7 7 9 8 9 11 10 9 9 8 9 9 10 12 13 14 14 14 15 15 15 15 15 15 15 15 15 15 15 15 15 14 14 13 13 13 12 12 11 11 12 12 11 12 11 11
8 8 8 6 8 8 9 8 9 9 9 9 9 8 10 11 11 12 13 13 13 13 14 15 15 15 15 14 14 14 14 14 15 15 15 14 13 13 12 12 11 11 11 11 12 12 11 11 11
7 8 7 7 6 9 9 10 8 8 9 8 7 8 11 12 12 12 12 12 13 13 13 14 14 14 13 13 13 13 13 14 14 14 14 13 13 12 11 11 11 11 11 11 11 11 10 12 11
7 7 6 7 8 3 6 9 6 5 7 8 8 9 10 11 11 12 12 12 12 12 13 13 13 13 13 13 13 13 13 13 13 13 12 12 12 11 10 10 10 10 10 10 10 10 10 11 10

GFSSGP_850_temp_096.txt.gz
Temp
10 11 12 14 17 18 19 20 22 22 21 22 18 19 21 21 23 23 15 16 16 16 16 16 17 17 17 17 17 17 16 16 16 16 16 16 16 16 16 16 17 17 16 14 14 13 16 16 16
10 11 12 14 16 18 19 21 20 22 22 21 18 18 18 21 18 17 16 15 16 16 15 15 16 16 16 17 16 16 16 16 16 16 16 16 16 16 16 17 17 16 14 14 16 16 16 16 16
10 10 13 15 16 18 19 20 20 21 21 19 19 16 15 18 18 17 17 16 15 16 15 15 16 16 16 17 16 15 16 16 16 16 16 15 15 16 16 17 16 15 14 16 16 16 16 16 16
10 11 12 14 16 18 19 21 20 21 20 19 19 17 15 16 16 15 16 16 15 16 16 16 16 16 16 16 15 15 15 16 16 16 15 15 15 16 17 17 15 16 14 16 16 16 16 16 16
9 11 14 14 15 18 20 19 20 21 21 18 18 19 17 16 18 15 16 15 15 15 15 16 16 16 16 16 15 15 15 15 15 15 15 15 14 16 17 16 16 17 15 16 16 16 16 16 15
10 12 13 14 16 18 19 18 19 19 19 20 18 19 17 17 18 16 15 15 15 15 15 14 15 16 16 16 15 15 15 15 15 15 14 16 16 17 17 17 16 16 16 16 16 16 16 16 16
10 12 13 15 16 17 18 17 18 18 19 20 18 19 17 17 19 16 15 15 15 15 15 15 15 15 15 16 15 15 15 15 14 14 14 15 16 17 17 16 16 16 16 16 16 16 16 16 16
9 11 11 13 14 16 18 17 17 17 18 19 18 20 18 18 17 17 16 15 14 14 14 15 14 14 15 15 15 15 15 15 15 15 15 16 17 17 17 17 16 16 16 16 16 16 16 15 15
9 9 10 12 13 15 17 18 17 16 17 18 18 18 18 18 16 16 15 13 15 14 14 14 14 14 14 13 14 15 16 16 16 16 16 16 16 17 17 16 16 16 16 16 16 16 16 16 15
9 9 11 13 14 15 15 16 16 16 16 16 17 17 15 16 14 14 14 13 11 14 14 14 14 14 14 13 14 14 15 15 13 13 16 12 15 15 14 16 16 16 16 16 16 16 16 15 15
9 8 12 12 12 13 14 15 15 16 16 17 18 18 15 13 12 13 13 13 13 14 14 14 13 13 13 13 15 14 13 13 13 12 12 12 14 16 16 16 16 15 15 15 16 15 15 15 15
8 9 10 10 11 11 12 13 14 15 16 17 17 14 13 12 13 14 13 15 12 13 14 14 14 13 13 13 13 14 14 13 13 13 14 16 15 15 14 13 14 15 15 15 15 15 15 15 15
8 9 9 9 10 10 11 12 13 13 13 14 15 15 13 13 13 14 15 13 13 12 13 14 14 15 14 13 13 13 14 13 13 14 15 15 16 16 16 15 15 15 15 15 15 15 15 15 15
9 9 9 9 10 10 11 12 11 13 11 11 13 14 14 14 13 14 16 16 13 12 13 14 14 15 15 15 15 14 13 14 14 13 14 15 15 15 15 15 15 15 15 15 15 15 14 14 14
8 8 8 9 9 10 11 10 12 12 12 11 12 14 14 13 14 16 16 16 15 11 12 13 14 15 15 16 16 16 15 14 14 14 14 15 14 14 15 14 15 15 14 15 14 14 14 14 14
4 6 6 10 10 10 10 11 14 11 9 10 11 13 15 13 14 17 18 16 13 12 13 13 13 15 15 15 16 16 16 15 15 14 15 15 15 14 14 14 14 14 14 14 14 14 14 13 13
7 6 6 8 11 10 10 11 13 8 9 9 11 14 14 13 13 14 16 15 13 13 13 13 13 14 15 15 15 16 16 16 15 15 15 15 15 15 14 14 14 14 14 14 14 14 13 13 13
7 9 10 10 10 10 9 9 10 9 9 8 12 12 14 14 13 13 14 13 13 13 14 13 13 13 14 14 15 15 16 16 16 16 16 15 15 15 14 14 14 13 14 13 14 13 13 13 13
4 8 9 8 10 10 10 9 9 10 9 7 12 12 14 13 12 13 12 13 14 14 13 13 14 14 14 13 14 15 16 16 16 16 15 15 15 14 14 14 13 13 13 13 13 13 12 13 12
6 9 9 8 8 9 9 9 10 11 10 6 11 10 12 11 12 11 12 13 13 13 13 13 14 14 14 13 14 14 15 16 16 15 15 15 14 14 14 13 13 13 13 13 12 13 12 13 13
9 11 9 8 9 10 10 8 7 8 7 7 10 10 10 10 11 10 11 12 12 12 12 13 14 15 15 14 13 13 14 13 14 14 14 14 13 13 13 13 13 12 12 12 12 13 13 12 12
10 11 11 8 10 11 12 9 7 7 9 12 11 11 10 9 11 11 12 12 12 11 12 13 14 15 14 14 14 13 13 13 13 13 13 13 14 13 12 13 12 12 12 12 12 12 11 12 12
10 11 11 10 11 12 11 9 8 9 12 13 13 11 11 11 11 10 10 11 11 12 13 13 14 14 15 14 15 13 12 14 14 14 15 13 14 12 12 12 12 12 11 11 11 12 11 11 11
9 10 11 11 11 11 9 9 8 9 11 11 12 11 11 11 11 11 11 11 12 12 13 13 14 14 15 14 14 13 12 13 13 14 13 13 12 12 11 11 11 11 11 12 12 13 12 12 12
9 11 10 10 11 10 8 9 10 11 11 11 12 12 12 11 12 12 12 13 14 14 14 14 15 15 14 14 14 13 13 13 12 13 13 12 12 12 12 11 11 12 12 12 11 11 11 12 12
7 9 11 11 12 11 10 10 9 12 11 11 9 11 12 13 14 12 12 13 13 13 14 14 14 14 14 14 14 14 14 14 13 13 13 13 13 13 12 11 11 12 11 12 11 11 11 12 12
9 10 10 11 12 13 11 12 13 11 11 9 9 10 9 12 12 12 12 14 14 14 14 14 14 14 14 14 14 15 14 14 14 14 14 14 14 13 12 11 11 11 11 11 11 11 12 11 11
10 10 11 11 12 11 12 12 11 12 12 11 11 10 9 8 9 10 12 13 13 13 13 14 14 14 14 15 14 14 14 14 14 14 14 14 14 13 12 11 11 11 11 11 11 11 11 11 11
10 11 11 11 11 14 13 12 12 12 11 11 11 10 9 9 8 10 11 12 12 12 12 13 13 13 13 13 13 13 13 13 13 13 14 14 13 13 12 11 11 11 11 11 11 11 11 11 11
9 10 11 13 11 9 14 12 11 11 11 11 9 9 9 9 11 11 11 11 12 12 12 12 13 12 12 12 12 13 13 13 13 13 13 13 13 12 11 11 10 10 10 10 10 10 10 10 9

GFSSGP_850_temp_099.txt.gz
Temp
12 12 14 15 17 19 19 21 24 25 26 26 25 24 25 25 25 23 17 17 18 18 16 16 16 17 17 17 17 17 17 17 17 17 16 17 16 16 16 16 15 15 15 15 16 16 16 16 16
11 12 14 16 17 18 20 22 23 24 25 25 22 21 22 24 21 20 18 17 17 18 16 15 16 17 17 17 17 16 16 16 16 16 16 16 16 16 16 16 16 16 14 14 16 16 16 16 16
10 12 15 17 17 18 20 23 23 24 24 24 23 21 21 22 20 19 17 17 17 16 16 15 16 17 17 17 17 16 16 16 16 16 16 16 16 16 16 17 16 14 13 16 16 16 16 16 16
12 13 14 16 17 19 20 22 24 24 23 23 22 22 18 19 19 18 17 17 17 16 16 15 16 16 16 17 16 16 16 16 16 16 16 16 15 15 16 16 14 14 14 16 16 16 16 16 16
12 14 15 16 16 19 21 22 22 23 23 23 23 22 20 18 18 17 16 18 16 16 16 16 16 16 16 16 16 16 16 16 16 16 15 16 15 16 15 14 14 13 14 16 16 16 16 16 16
13 14 15 16 17 19 20 20 21 22 22 22 23 22 21 20 16 17 19 18 16 16 16 15 16 15 16 16 15 16 16 16 15 15 15 15 15 16 16 14 14 13 16 16 16 16 16 16 16
12 14 14 16 17 19 20 20 21 21 22 22 22 22 21 20 17 17 19 19 15 16 15 15 16 15 15 16 15 15 16 15 15 15 15 14 15 17 14 14 13 13 16 16 16 16 16 16 16
11 13 13 15 15 16 19 20 20 20 21 21 21 21 21 20 19 17 18 16 15 15 15 15 14 15 14 15 15 15 15 15 15 15 14 14 15 16 15 14 13 13 16 16 16 16 16 16 16
10 11 13 13 14 15 17 18 19 19 20 20 20 20 20 19 17 16 15 15 14 13 12 15 14 14 14 13 14 14 15 15 14 14 15 16 16 15 14 14 14 15 15 16 16 16 16 16 16
10 11 12 14 15 15 17 17 18 19 19 19 19 19 18 16 15 15 15 14 15 13 12 10 15 14 15 13 14 14 14 14 14 14 14 13 14 13 13 15 16 16 16 16 15 15 15 15 14
10 10 12 13 13 14 15 16 17 17 18 19 19 19 17 16 14 13 13 14 14 13 11 11 14 14 15 14 13 13 14 13 13 12 13 14 13 13 13 15 15 15 15 15 15 15 15 14 13
9 10 11 11 12 13 14 14 15 15 17 17 18 19 17 16 13 12 14 14 14 13 12 13 14 15 15 14 14 14 14 14 14 13 14 14 14 12 13 15 15 15 15 13 14 13 13 14 14
10 11 10 11 11 11 12 12 13 14 15 15 17 16 15 15 13 12 14 14 16 15 14 13 13 14 15 14 14 14 15 14 14 14 14 13 13 13 13 13 13 13 13 13 13 13 13 14 13
9 10 11 11 11 11 11 12 12 13 13 14 14 14 15 14 14 12 12 15 15 15 15 13 13 13 14 14 14 14 14 14 14 13 13 13 13 13 13 13 13 13 14 13 13 13 13 13 13
8 9 10 10 11 11 11 11 12 12 13 14 14 14 14 15 13 12 13 16 17 15 15 14 12 13 13 13 13 14 14 13 13 13 12 13 13 13 14 13 14 14 15 14 14 13 13 13 14
8 9 7 11 11 11 11 9 12 13 13 14 14 14 14 15 13 12 13 13 15 15 16 13 12 13 13 13 14 13 14 14 14 13 13 13 15 15 16 15 15 15 15 15 13 13 13 13 14
10 8 8 7 11 11 10 9 13 14 12 13 13 13 14 15 14 13 11 12 13 14 14 13 13 13 14 13 12 13 13 14 14 14 14 14 15 15 15 15 14 15 14 14 13 13 13 13 14
9 9 10 8 11 11 10 10 13 12 12 13 12 13 14 14 14 13 12 12 11 13 12 12 13 13 14 13 13 12 12 13 14 15 15 14 14 14 14 14 13 12 13 13 12 13 13 13 14
10 9 8 8 7 11 11 11 12 14 13 12 12 12 13 14 14 13 12 12 12 12 13 12 12 13 13 13 13 13 12 14 15 15 15 14 14 13 13 14 13 13 13 12 13 13 13 13 13
9 9 9 10 10 11 11 12 13 13 13 12 10 10 13 13 12 10 11 12 12 13 12 13 13 14 13 13 13 14 13 13 13 14 14 14 14 14 13 13 13 13 13 13 12 13 13 13 13
9 9 11 9 8 10 10 10 11 11 10 11 9 10 12 13 11 12 11 12 12 12 11 12 12 12 11 12 12 13 14 13 13 13 13 13 13 13 13 13 13 13 13 13 12 12 13 12 12
8 12 11 7 8 9 12 10 7 7 10 11 10 10 11 10 11 11 10 11 11 11 13 12 12 12 12 12 12 12 13 13 14 13 13 13 13 13 13 13 13 13 13 12 12 13 12 12 12
10 12 9 9 10 9 11 11 8 7 10 10 10 10 10 9 11 10 11 10 10 10 11 11 12 11 12 12 11 12 12 12 12 12 13 13 13 13 13 13 13 12 12 12 11 12 12 11 12
8 10 11 11 11 10 9 8 8 7 6 10 11 10 9 9 9 9 10 10 10 10 10 11 12 12 12 12 12 13 13 13 12 11 11 12 13 13 13 13 14 13 11 11 12 12 12 11 11
8 10 9 10 10 10 8 9 7 8 7 11 11 10 10 10 9 10 10 10 11 11 12 12 12 13 13 13 13 12 12 12 12 11 11 11 12 12 12 12 14 13 11 11 12 11 11 11 11
9 9 10 12 11 10 10 9 7 10 10 10 9 10 9 10 10 10 10 10 10 11 12 12 13 13 14 14 13 13 13 13 12 11 12 12 13 13 12 12 12 11 11 10 11 10 10 11 11
11 11 12 13 15 13 10 7 9 10 9 8 8 8 9 9 9 11 11 10 10 11 12 13 13 13 14 14 14 14 14 14 13 13 13 13 13 13 13 13 11 11 10 10 10 10 10 11 11
9 12 11 12 13 12 11 9 8 8 8 8 8 8 9 10 11 12 12 10 10 11 12 12 13 13 13 14 14 14 14 14 14 14 14 14 14 14 14 13 11 10 11 10 11 10 10 11 11
11 12 13 13 12 15 13 9 12 12 11 11 11 10 10 10 10 9 9 9 9 10 11 11 11 12 12 12 12 12 12 13 13 13 14 14 14 14 14 13 12 11 11 11 10 11 10 11 11
11 12 13 14 13 14 14 11 13 13 13 12 11 11 10 10 10 9 9 9 10 10 11 12 11 11 11 11 11 11 12 12 12 12 13 13 13 13 13 12 11 11 11 10 10 10 10 11 11

GFSSGP_850_temp_102.txt.gz
Temp
13 13 14 15 14 15 16 17 20 20 22 25 26 26 24 25 21 19 18 19 17 19 18 18 17 17 17 17 17 18 17 17 17 16 17 16 16 16 16 16 16 16 15 16 16 17 17 16 16
11 12 14 15 14 14 16 19 20 21 23 24 25 24 23 23 22 19 18 18 18 18 18 17 16 17 17 17 17 18 17 16 16 16 16 16 16 16 16 15 15 15 15 16 17 17 17 17 17
12 12 14 14 14 14 16 19 20 23 24 24 24 23 23 23 21 18 18 18 17 17 18 17 16 17 17 17 17 17 16 16 16 16 16 16 16 16 16 16 16 15 15 16 17 17 17 17 16
12 13 13 13 15 16 16 19 20 21 24 24 24 21 21 21 20 18 18 17 17 17 17 17 17 17 17 17 17 16 16 16 16 16 16 16 16 16 16 16 15 13 16 16 16 17 16 16 16
11 13 13 13 14 16 18 20 20 20 21 23 24 21 21 21 19 18 18 17 18 17 17 16 16 17 17 17 16 16 16 16 16 16 16 15 16 16 16 14 13 15 16 16 16 16 16 16 16
12 13 12 12 14 16 18 19 19 20 21 22 23 22 22 21 21 19 18 17 16 16 17 17 16 16 16 16 16 16 16 16 16 16 16 15 15 15 15 13 14 13 15 16 16 16 16 16 16
10 11 12 13 14 16 18 19 19 19 20 21 22 21 22 21 20 20 18 17 16 17 16 16 16 16 16 16 16 15 16 16 15 15 15 15 15 14 13 13 13 13 16 16 16 16 16 16 16
11 10 10 12 13 14 17 18 19 19 19 20 21 20 20 21 19 19 19 18 17 17 15 15 15 16 15 16 15 15 16 16 15 15 15 15 15 15 13 13 13 13 15 15 16 16 16 16 16
10 9 9 11 12 14 16 16 17 18 18 20 20 21 21 19 18 19 17 17 17 17 16 14 14 14 14 15 16 15 15 15 15 14 15 14 15 13 13 14 13 13 14 15 15 15 15 15 16
9 8 9 12 13 13 15 15 16 16 17 18 20 20 20 19 18 17 17 16 17 17 17 14 12 13 13 14 15 14 15 14 14 14 14 15 15 13 13 13 13 13 13 15 15 15 15 15 15
9 8 10 11 11 12 13 13 14 15 15 17 18 19 20 19 17 15 16 17 17 16 17 16 15 11 13 11 15 15 14 14 14 14 15 15 14 13 13 13 13 14 16 15 15 15 15 15 14
8 10 10 11 11 11 11 12 12 14 14 15 16 15 17 18 18 17 14 15 15 16 16 14 14 14 13 12 14 15 14 14 14 13 14 13 13 13 14 15 15 15 15 15 15 15 15 15 14
8 9 10 11 10 11 11 11 11 12 13 14 14 15 15 15 14 15 15 16 14 15 14 14 14 13 13 13 14 15 15 14 13 13 14 13 13 13 14 15 15 15 15 15 14 13 13 14 14
8 9 9 10 10 11 11 11 11 11 12 12 13 14 14 13 14 14 14 14 14 14 14 13 14 14 13 13 14 14 14 14 14 14 14 13 13 14 13 13 14 14 14 13 14 14 14 13 13
7 7 8 9 10 10 11 10 10 11 11 12 13 13 13 12 14 14 13 13 13 14 13 13 13 13 12 12 14 14 14 14 14 14 14 13 13 13 13 13 15 15 15 15 15 14 13 14 14
7 7 6 9 10 11 10 8 10 11 12 12 12 13 12 12 14 14 13 14 11 12 14 13 13 14 13 12 13 14 14 14 13 13 13 13 13 14 14 14 15 16 16 15 15 15 14 14 14
7 5 6 8 10 10 10 8 10 11 12 12 12 12 12 12 14 14 14 12 12 12 12 13 13 16 14 12 12 12 13 14 14 13 13 13 14 14 15 15 15 15 15 15 14 14 13 14 14
7 7 9 9 10 7 9 9 10 11 11 11 12 12 12 13 14 14 14 13 12 12 12 13 12 14 12 12 12 13 13 13 13 14 13 13 14 15 15 14 14 14 14 14 13 13 13 13 14
7 7 7 9 11 7 8 9 10 10 7 11 11 11 12 14 14 14 14 14 12 11 12 12 12 12 13 12 14 14 13 14 14 13 13 13 13 13 14 14 14 13 13 14 13 13 13 13 13
6 7 8 10 10 7 9 9 11 10 7 11 12 11 11 12 13 13 12 12 12 11 11 12 12 11 12 13 13 14 14 13 13 13 13 13 13 13 13 13 13 13 13 13 12 13 13 13 13
7 7 9 8 6 9 9 9 10 12 10 11 11 11 11 11 12 12 12 12 12 11 11 11 11 12 13 13 12 12 12 13 13 13 13 13 13 13 13 13 13 13 13 13 13 12 13 13 13
8 10 11 7 7 8 9 8 9 7 7 9 11 10 11 11 10 11 11 11 11 11 11 11 11 11 13 12 12 12 13 13 13 13 13 13 13 13 14 14 13 13 13 13 13 13 13 13 12
8 9 9 9 7 6 8 8 7 6 9 10 9 10 10 9 11 10 10 10 11 11 11 11 11 11 11 12 11 11 12 12 12 12 12 13 13 13 13 13 13 13 14 14 14 14 14 13 12
9 8 10 10 9 9 8 8 7 6 6 8 10 10 9 10 9 10 9 9 10 11 11 10 11 11 13 12 12 12 12 12 12 12 12 12 12 12 13 12 12 13 13 13 13 12 12 12 12
8 7 8 9 9 9 7 8 6 6 7 8 9 9 9 9 9 9 10 10 9 10 10 10 10 10 11 12 12 12 12 12 11 12 11 12 12 13 11 11 11 12 13 13 13 15 11 11 12
7 7 8 9 10 10 9 8 6 7 7 9 8 7 7 8 8 9 9 9 10 10 11 11 11 11 11 11 11 11 12 11 12 12 12 12 12 11 11 12 11 11 11 11 11 15 10 10 10
9 8 10 7 10 9 8 6 6 7 7 8 7 7 7 7 8 9 10 10 10 10 10 10 11 11 11 11 12 12 12 12 12 13 13 11 12 12 12 12 12 12 12 11 11 12 11 10 10
7 10 9 9 10 10 9 8 8 6 8 8 8 7 7 7 8 9 10 10 10 10 10 11 11 11 11 11 11 12 12 12 12 12 13 13 13 13 13 13 13 13 11 11 11 11 10 10 10
9 10 11 11 10 10 9 8 9 8 9 8 7 8 9 9 8 8 9 9 9 9 10 11 11 11 12 12 12 12 12 12 12 12 13 13 13 13 13 13 13 13 11 11 11 11 10 10 10
10 11 12 8 11 9 7 7 11 11 10 10 9 9 8 9 9 9 9 9 9 10 10 11 11 11 11 11 12 12 12 12 12 12 12 13 13 13 13 13 13 12 10 11 11 10 10 10 10

GFSSGP_850_temp_105.txt.gz
Temp
13 14 14 14 12 10 11 14 16 16 18 22 23 22 23 22 22 19 18 19 19 19 18 18 18 18 18 18 18 18 17 17 17 17 17 17 16 16 16 16 16 15 16 16 16 16 16 16 16
13 13 13 14 10 10 11 14 15 16 20 21 22 23 22 20 19 18 18 18 18 18 18 18 18 18 18 17 17 17 17 17 16 16 16 17 16 16 16 16 15 16 16 16 17 17 16 16 16
12 12 13 10 9 11 11 15 16 18 20 20 21 23 22 19 18 18 18 19 19 18 17 17 18 17 17 17 17 17 17 16 16 16 16 16 16 16 16 15 15 15 16 17 17 17 16 16 16
11 12 12 10 10 12 13 14 16 17 19 20 20 20 21 19 19 19 19 20 19 18 17 17 17 18 17 17 17 17 17 16 16 16 16 16 16 16 15 15 15 15 16 17 17 16 16 16 16
11 12 9 9 10 12 13 15 16 16 17 19 19 19 20 19 20 20 20 19 19 17 17 17 17 17 17 17 17 17 16 16 16 16 16 16 16 16 16 15 15 15 16 16 16 16 16 16 16
10 11 8 9 10 12 13 16 16 16 17 19 19 19 21 19 21 21 20 19 18 18 16 16 16 16 17 17 17 16 16 16 16 16 16 16 16 16 16 14 14 16 16 16 16 16 16 16 16
9 8 8 9 10 11 13 16 15 16 16 17 19 17 20 19 19 19 18 18 18 17 16 16 15 15 16 16 17 16 16 16 16 16 16 15 15 15 16 13 13 16 16 16 16 16 16 16 15
10 8 8 9 10 11 13 14 15 15 15 17 17 16 19 20 18 19 19 18 17 17 17 17 15 14 14 15 16 15 15 16 16 15 15 15 14 14 16 14 13 15 16 16 16 16 16 16 16
9 6 6 8 9 11 13 13 14 14 15 16 16 17 18 19 19 18 18 17 17 17 16 17 15 14 14 14 14 15 15 15 15 15 15 14 14 13 13 12 13 15 15 16 16 16 16 16 16
7 5 7 9 10 9 10 11 12 12 13 13 15 16 16 17 18 18 18 17 17 17 16 16 15 14 13 13 14 13 14 15 15 15 14 14 14 13 12 13 13 13 16 15 15 15 16 16 15
8 6 8 9 9 10 10 10 11 11 11 12 13 14 14 15 15 17 18 17 17 17 17 16 16 14 14 13 13 13 13 14 15 15 14 15 14 12 12 14 13 13 14 15 15 15 15 15 15
6 8 9 9 9 10 9 10 10 10 10 11 12 13 13 14 14 14 17 18 18 18 15 16 16 15 15 13 13 13 12 14 14 14 14 14 14 12 13 13 12 13 16 15 15 15 15 15 15
6 7 8 8 9 9 10 9 9 10 11 11 11 12 12 13 14 14 14 15 16 16 16 15 15 15 16 13 14 12 13 14 14 14 14 14 15 13 13 13 14 16 15 15 15 15 15 15 15
6 6 7 7 8 8 8 9 10 10 11 11 11 11 12 13 13 14 14 14 14 15 15 15 15 15 15 14 15 12 12 13 14 14 14 14 15 14 13 14 15 15 15 15 15 15 15 15 15
6 5 6 7 8 8 9 8 9 10 10 11 11 11 11 12 13 13 13 14 14 14 14 14 14 15 12 11 15 13 12 12 13 13 14 13 13 13 14 15 15 15 15 15 15 14 14 14 14
5 6 4 8 8 8 8 6 9 10 10 10 11 11 11 12 13 13 13 13 14 14 13 13 13 13 11 12 15 12 12 13 13 14 13 14 13 13 14 15 15 15 15 14 14 14 14 14 13
5 3 4 6 9 9 8 7 8 10 10 10 10 10 11 12 13 13 13 13 14 13 13 14 13 12 12 13 14 11 12 14 13 14 13 13 13 13 13 14 14 14 14 14 15 14 14 14 14
5 4 6 6 8 9 8 7 8 10 9 9 8 8 10 12 13 14 14 13 14 14 14 13 11 11 12 13 14 12 11 13 14 14 14 13 13 13 13 14 14 14 14 14 14 14 14 14 14
5 5 5 6 8 8 8 8 7 9 9 7 8 8 10 12 13 13 13 13 13 12 12 12 12 10 11 12 12 13 12 12 13 13 13 13 13 13 13 13 13 14 14 15 14 14 14 13 13
6 6 5 7 9 6 6 7 8 9 8 8 8 9 11 12 12 13 13 13 13 12 13 12 11 10 11 12 11 12 11 12 12 13 13 13 13 13 13 13 13 13 14 13 13 14 14 13 13
6 6 6 7 7 7 7 7 8 9 9 9 10 10 11 11 12 12 13 12 12 11 12 11 11 10 11 11 11 12 11 11 12 13 12 13 13 13 13 13 13 13 13 13 14 13 13 13 13
6 8 9 8 6 7 6 7 7 6 6 7 8 9 11 11 11 12 12 12 11 11 11 12 11 10 10 11 12 12 12 11 11 13 13 14 14 14 13 13 13 13 13 14 14 14 14 14 13
7 8 7 7 8 6 7 7 8 6 7 7 6 9 10 10 10 10 11 11 12 12 11 11 10 9 10 11 12 12 12 12 12 12 12 12 13 13 13 13 13 13 13 14 14 14 14 13 14
8 7 7 8 8 8 8 8 7 6 6 7 8 9 10 9 9 9 10 11 11 10 10 10 10 10 10 10 11 11 12 12 12 13 13 12 13 13 12 12 13 13 13 14 13 13 13 13 13
6 7 7 8 8 9 7 8 6 5 7 7 9 9 9 9 9 10 9 10 10 10 10 10 10 10 10 10 11 11 11 12 12 13 12 11 11 12 12 12 12 11 11 12 12 13 13 13 13
7 7 7 8 9 9 7 7 5 5 8 7 8 7 8 9 9 9 9 9 9 9 10 9 10 11 10 11 11 11 11 11 12 13 12 12 12 13 12 12 11 12 12 12 11 11 11 11 11
8 8 7 7 8 8 7 6 5 6 7 7 7 7 6 6 7 7 8 9 9 9 10 10 11 11 11 11 12 12 11 11 12 12 12 12 12 12 12 11 11 11 12 11 11 11 10 11 11
6 8 7 7 8 9 8 7 6 5 7 7 7 6 6 7 7 7 7 8 8 9 9 9 10 10 10 10 10 10 11 11 11 11 12 12 12 12 12 12 11 12 12 11 10 10 10 10 11
7 8 9 9 9 10 8 8 5 7 7 7 7 7 6 7 7 8 8 8 8 8 9 9 9 10 10 10 10 10 10 10 10 11 11 12 13 13 13 12 12 12 12 11 11 10 10 10 10
9 9 10 6 10 7 6 7 7 7 7 7 6 8 8 8 8 8 8 9 9 9 10 10 10 10 10 10 10 11 10 11 11 11 11 11 11 12 12 12 12 11 10 10 10 10 10 10 10

GFSSGP_850_temp_108.txt.gz
Temp
14 13 14 14 11 10 10 12 14 15 17 20 21 20 19 21 20 18 19 19 19 19 19 19 18 18 18 18 18 17 17 17 17 17 17 16 16 16 17 16 16 15 15 16 14 14 16 15 15
13 13 14 13 9 10 10 12 14 14 17 18 20 21 20 19 18 18 18 18 19 19 18 18 18 18 18 18 18 18 17 17 17 17 17 17 16 16 16 15 15 14 16 17 16 16 16 15 15
12 13 13 9 8 10 10 13 13 16 17 18 19 20 20 18 18 19 20 19 19 18 18 18 18 17 17 17 17 17 17 17 16 16 16 17 16 16 16 15 15 16 17 17 17 16 16 15 15
12 12 12 9 9 10 11 12 14 14 16 18 18 17 20 19 20 20 20 19 19 19 18 17 17 17 17 17 17 17 17 16 16 16 16 16 16 16 16 15 15 16 17 17 17 16 16 15 15
11 11 8 8 9 10 12 13 14 13 14 16 17 17 19 19 19 20 20 20 19 18 17 17 16 16 17 17 17 17 17 16 16 16 16 16 16 16 15 16 15 16 17 17 17 16 16 16 15
10 10 7 8 9 11 11 14 13 14 15 15 17 17 19 20 19 18 19 19 19 18 17 17 16 16 17 17 17 17 17 16 16 16 16 16 16 15 15 16 16 16 16 16 17 16 16 15 15
8 6 7 8 9 10 11 14 14 13 13 14 16 14 18 19 19 18 17 18 18 18 18 16 16 15 16 16 16 16 16 16 16 16 15 16 16 15 15 16 16 16 16 16 16 16 16 16 15
10 7 7 7 8 10 12 13 13 13 13 15 15 14 15 17 18 18 17 17 17 18 18 17 16 16 15 15 15 15 15 15 16 16 15 15 15 15 15 16 16 16 16 16 16 16 16 15 15
9 6 5 8 9 9 11 9 11 12 12 12 14 14 14 15 17 17 17 17 16 17 17 17 17 17 15 15 15 14 15 15 15 15 15 15 14 14 14 15 14 15 16 16 16 16 15 15 15
7 4 6 8 9 9 9 9 10 10 10 11 12 13 14 14 15 16 17 17 17 17 17 17 16 16 15 15 14 14 14 14 15 14 14 14 14 13 14 13 12 16 16 16 16 15 15 15 15
7 5 7 8 9 9 9 9 10 10 9 11 11 11 12 13 13 15 15 16 17 17 16 17 16 16 15 15 14 13 13 14 14 15 14 13 14 13 13 13 12 13 15 15 16 16 16 15 15
6 7 8 8 8 8 8 9 9 9 9 10 10 11 11 12 12 13 14 14 16 16 16 16 16 16 15 15 15 15 14 13 13 14 14 14 14 14 13 13 13 13 15 16 16 15 15 15 15
5 6 7 7 7 7 8 8 8 9 9 10 11 11 11 11 12 13 13 14 14 15 14 15 16 15 15 15 15 16 16 16 13 13 13 14 14 14 13 12 13 13 15 16 16 15 15 15 15
5 5 6 6 7 7 7 7 8 9 10 10 10 10 11 11 11 12 13 13 14 14 14 14 15 15 15 15 15 16 16 16 15 14 13 14 14 14 14 12 13 12 16 16 15 15 16 15 15
6 4 5 6 6 6 7 6 7 9 9 9 10 10 11 11 11 12 13 13 13 14 14 14 14 14 14 15 15 16 16 16 16 13 14 14 14 13 14 14 13 14 15 15 15 15 15 14 14
4 4 3 7 7 8 7 6 8 9 10 9 9 10 10 10 11 11 12 13 13 14 14 15 15 14 14 14 14 14 15 13 16 15 13 13 13 14 13 14 15 15 14 14 15 15 15 14 14
3 1 3 5 8 8 7 6 8 9 9 9 9 10 10 10 10 11 12 13 13 13 14 14 14 14 13 14 13 12 12 12 16 14 12 12 13 13 13 14 14 14 14 14 15 15 14 14 14
5 3 4 5 7 7 6 6 8 9 9 8 9 9 9 10 10 11 12 13 13 13 14 14 14 14 13 13 12 11 11 13 14 14 13 12 12 13 13 14 13 13 14 14 14 14 14 14 14
4 4 4 5 7 6 6 6 8 8 7 7 8 9 9 10 11 11 12 12 13 12 13 14 13 14 13 11 12 11 12 12 12 13 14 13 13 12 13 13 13 13 14 14 14 14 14 14 13
4 5 6 7 7 6 6 7 8 8 7 8 8 9 8 9 11 11 12 13 13 13 13 13 12 13 12 14 11 12 12 12 12 12 13 13 12 13 13 12 13 13 13 14 14 14 14 13 13
7 6 6 5 7 7 6 6 6 7 8 8 8 9 9 10 11 11 12 13 13 12 12 12 13 12 11 13 11 11 11 11 12 12 12 12 12 13 13 13 13 13 13 14 14 13 13 13 13
6 9 7 8 7 7 7 7 7 6 6 7 7 8 10 11 11 11 12 12 12 12 12 11 12 11 11 11 10 10 11 11 12 12 11 12 12 12 13 13 13 13 13 13 13 13 13 13 13
7 7 6 6 6 6 7 7 7 6 7 6 6 8 10 10 10 11 11 12 12 12 11 12 12 12 11 11 11 10 10 11 12 12 12 12 12 12 13 13 13 13 12 13 13 13 13 12 13
7 6 6 6 7 7 8 7 7 6 6 6 6 8 9 9 9 9 11 11 12 12 12 11 11 10 10 10 11 11 11 10 10 11 11 11 11 11 12 12 12 12 12 12 12 12 12 12 12
7 7 6 6 7 7 7 7 6 5 6 6 8 8 9 9 8 9 9 10 10 10 10 10 10 10 10 10 10 10 11 10 10 10 11 10 11 11 11 11 12 13 12 13 13 13 12 13 12
6 7 7 8 9 8 8 7 6 4 8 8 7 7 8 8 8 8 8 8 9 9 10 10 10 10 10 10 10 10 10 10 10 10 10 11 11 11 11 11 12 11 11 12 12 12 12 12 12
8 7 6 7 7 8 8 6 4 5 7 7 7 6 6 7 9 7 9 8 9 9 9 9 9 10 10 11 10 10 11 10 10 11 12 12 11 10 10 11 12 12 10 11 11 12 11 11 11
6 7 8 7 8 8 8 7 6 4 6 6 7 6 6 6 6 7 8 9 9 9 9 9 10 10 10 10 10 11 11 11 11 11 11 11 11 11 11 11 10 11 10 10 11 12 11 10 11
7 7 7 8 7 8 7 7 4 5 6 6 6 5 5 6 6 6 6 7 8 8 8 8 9 9 9 9 10 10 11 10 10 10 10 10 10 10 11 10 11 11 12 11 10 11 11 11 10
8 9 9 7 8 6 6 7 5 5 6 7 7 5 6 6 7 7 8 8 8 9 9 9 9 9 9 10 10 10 10 10 10 10 11 11 11 11 11 12 12 11 11 10 10 10 10 10 10

GFSSGP_850_temp_111.txt.gz
Temp
13 13 14 15 11 9 10 11 13 15 16 17 18 19 18 20 19 17 19 19 19 20 19 18 18 18 17 17 17 17 17 17 17 17 17 16 16 16 17 16 15 15 15 15 14 15 16 15 15
13 13 14 14 9 9 9 10 13 13 15 17 18 19 18 18 19 20 19 19 19 19 19 19 18 18 17 17 17 17 17 17 17 17 16 16 16 16 16 16 15 15 15 15 14 16 16 15 15
12 13 14 9 8 9 10 11 12 14 16 17 17 18 18 18 18 20 20 19 18 18 19 19 18 18 18 18 17 17 17 17 17 16 16 16 16 16 16 15 15 16 16 17 16 16 16 16 15
12 13 12 8 9 9 10 12 13 13 15 16 16 15 19 19 18 18 19 20 18 18 18 18 18 18 18 17 17 17 17 16 16 16 16 16 16 16 16 15 16 16 16 16 16 16 15 16 16
12 12 7 8 8 9 10 13 13 12 13 15 16 16 17 19 18 19 18 19 20 18 17 17 17 17 17 17 17 17 17 16 16 16 16 16 15 15 16 16 15 17 17 16 16 16 16 16 16
10 10 7 7 8 10 10 13 13 13 13 14 15 15 17 17 17 18 18 18 17 17 17 17 16 16 17 17 17 17 17 16 16 16 16 16 15 15 16 16 15 17 17 16 16 16 16 15 15
8 6 7 8 8 10 10 13 12 12 12 13 15 14 16 17 17 17 17 17 17 16 16 16 16 16 16 16 17 17 17 16 16 16 16 16 15 15 15 15 15 16 17 16 16 16 16 15 15
9 6 7 7 8 9 11 12 12 12 12 13 14 13 13 14 15 16 16 16 16 16 16 16 15 15 15 16 16 16 15 16 16 15 15 15 15 15 15 15 15 16 16 16 16 16 16 15 15
9 6 5 7 8 9 9 8 10 11 11 11 13 13 13 14 14 14 15 16 16 16 15 15 16 16 16 16 16 16 15 15 15 15 15 15 15 14 15 15 15 15 16 16 16 16 16 15 15
6 4 6 7 8 8 8 8 9 9 10 10 11 12 13 15 14 14 15 15 15 16 16 16 16 16 16 16 16 16 15 15 14 15 15 15 14 14 15 15 15 15 15 16 16 16 16 15 15
6 5 6 8 9 8 8 8 9 9 8 10 11 11 11 12 14 14 14 14 15 15 16 16 16 16 16 16 16 17 15 14 14 14 14 14 14 14 13 14 14 15 15 15 15 15 16 15 15
5 6 7 7 8 7 7 8 7 8 8 9 9 10 10 11 12 13 14 13 13 14 15 16 16 15 15 15 16 16 16 14 14 14 14 14 13 13 13 13 15 15 16 16 16 15 15 15 15
5 5 6 7 6 6 7 6 7 7 8 10 10 10 10 10 10 12 13 13 13 14 15 15 15 15 14 15 14 15 16 15 15 15 14 13 13 13 13 14 14 15 16 16 15 15 15 15 15
4 5 5 6 6 6 6 6 6 8 9 9 9 10 10 10 10 11 12 13 13 13 14 14 14 15 15 14 15 15 16 15 16 16 16 14 13 13 14 14 14 14 15 15 15 15 15 15 15
5 4 4 5 6 5 6 5 5 10 9 8 9 10 10 9 10 10 11 13 13 13 13 14 14 14 14 14 14 14 15 15 15 16 16 16 13 13 14 14 14 14 14 15 14 14 15 15 15
3 4 2 6 6 7 7 5 7 9 9 9 10 10 10 10 9 10 10 12 13 13 13 14 14 14 15 14 14 14 14 15 15 14 16 15 14 13 13 13 14 14 13 14 14 14 15 15 15
3 1 2 4 7 7 6 5 7 8 9 8 9 9 10 10 10 10 10 11 12 13 13 14 14 15 15 14 14 14 14 14 14 14 14 13 16 13 13 13 13 13 13 14 14 14 14 14 14
4 3 3 4 6 7 6 5 7 8 8 8 8 8 9 9 10 10 10 11 12 13 13 13 13 14 14 13 13 14 14 14 13 13 13 12 13 13 13 12 12 12 13 14 13 14 13 14 14
4 4 4 5 6 6 5 5 6 8 7 7 7 8 8 10 11 10 10 11 11 12 13 13 13 14 13 13 13 14 14 14 12 11 12 12 12 14 11 11 11 12 12 14 13 14 13 13 13
5 5 6 6 6 6 6 6 7 7 7 7 7 8 9 9 10 9 10 11 11 12 13 13 13 13 13 13 12 12 13 12 11 11 12 12 12 14 13 12 12 12 14 14 13 13 14 13 13
6 6 7 6 6 7 6 5 6 7 7 7 7 8 9 10 10 10 11 11 12 12 13 13 12 12 12 13 12 12 11 12 11 11 11 12 12 12 12 12 12 13 13 13 13 13 13 13 13
6 8 8 8 6 6 7 6 7 5 6 6 6 7 8 9 9 11 11 11 12 13 13 12 12 11 12 12 12 12 11 12 12 11 11 12 12 12 11 12 12 13 13 13 13 13 13 13 13
6 7 6 6 6 5 7 6 6 5 6 5 5 7 8 9 9 10 11 11 12 12 12 12 11 12 12 11 11 11 11 11 12 11 11 11 11 11 12 12 12 12 12 13 13 13 13 12 12
7 6 6 6 6 7 6 7 3 6 6 6 5 7 8 10 10 10 11 11 11 12 12 11 11 11 11 11 11 11 11 10 10 11 11 11 11 11 11 11 12 12 13 13 14 13 12 12 12
6 7 4 5 5 7 7 7 5 5 5 7 6 7 8 8 8 8 8 11 11 11 11 11 11 11 13 11 10 10 11 11 10 10 10 11 11 11 11 11 11 12 12 12 12 13 12 12 13
6 7 7 7 5 7 7 7 6 4 7 7 7 7 7 7 7 7 9 10 11 11 11 11 10 10 10 10 10 10 10 10 10 10 10 10 10 11 11 11 10 11 10 11 11 11 12 13 12
7 7 7 7 7 8 7 6 5 4 7 7 7 6 6 7 7 6 7 6 8 9 9 10 9 9 10 9 10 10 10 10 10 10 10 11 11 11 11 11 11 11 11 11 11 11 11 11 11
6 6 7 7 8 9 8 7 5 4 4 6 6 6 5 7 7 8 8 7 7 8 8 8 8 9 9 10 10 9 9 10 10 10 10 9 10 10 10 10 10 10 11 10 10 10 10 10 10
6 7 7 7 6 7 8 7 3 3 4 5 5 5 4 4 4 5 6 6 7 8 8 8 10 10 10 10 10 10 10 10 10 10 10 10 10 10 10 10 10 10 11 11 10 10 10 10 11
8 7 8 6 8 5 6 7 4 4 4 5 5 5 5 5 6 6 6 7 7 7 8 8 8 9 9 9 9 9 10 10 10 10 10 9 9 10 10 10 10 10 10 10 10 10 10 10 10

GFSSGP_850_temp_114.txt.gz
Temp
14 14 14 15 11 8 10 10 12 14 14 16 16 17 17 18 19 17 20 19 20 18 18 17 17 17 17 17 17 17 17 17 17 17 17 17 16 16 16 16 16 15 15 14 15 14 13 14 15
13 13 14 14 8 9 9 10 12 13 14 16 17 17 18 17 19 19 19 20 19 19 19 18 17 17 17 17 17 17 16 17 17 17 17 16 16 16 16 15 15 15 15 14 15 15 15 15 15
13 13 14 8 7 9 11 10 11 14 14 15 16 17 17 17 17 18 17 18 19 19 19 18 17 17 16 17 17 17 16 17 16 16 16 16 16 16 16 15 15 15 15 17 16 16 16 16 15
12 13 11 8 8 9 11 12 11 12 15 15 15 15 17 16 16 16 17 18 18 18 19 18 18 17 17 17 17 17 17 16 16 16 16 16 16 16 15 15 15 16 16 17 17 16 16 16 15
12 12 7 8 8 8 9 11 12 12 13 14 15 15 16 17 16 17 17 18 18 18 17 17 17 17 17 17 17 18 18 17 17 16 16 15 16 15 15 15 15 16 16 16 16 16 16 16 16
11 10 7 7 7 8 9 12 12 12 13 14 14 14 16 16 17 17 17 16 17 17 17 16 17 17 17 17 17 17 17 17 17 17 16 16 16 15 15 15 15 16 16 16 16 16 16 16 16
8 6 7 7 8 9 10 12 11 12 11 13 14 13 16 16 16 16 16 16 15 16 16 16 16 16 16 16 16 16 16 17 16 16 16 15 15 15 15 15 15 16 16 16 16 16 16 16 16
10 6 6 6 7 9 9 11 11 12 11 13 13 12 14 15 15 15 16 16 16 16 16 16 16 16 15 15 16 16 16 16 16 16 16 15 15 15 15 15 16 16 16 16 16 16 16 16 16
9 5 5 7 7 9 8 8 10 10 10 11 13 12 13 14 14 14 15 15 16 16 16 16 16 15 15 16 16 16 16 16 15 15 15 15 15 15 14 15 15 16 16 16 16 16 16 16 16
6 4 6 7 7 8 8 8 8 9 9 9 10 12 13 13 14 14 14 15 14 15 15 15 16 15 16 16 16 16 16 16 16 15 15 15 15 15 15 15 14 15 16 16 16 16 16 15 15
5 5 5 7 8 7 7 7 8 8 7 9 10 10 11 12 13 14 13 13 14 14 15 15 15 15 15 15 15 15 16 16 16 15 14 14 14 14 14 14 14 14 15 16 16 16 16 16 16
6 6 6 7 7 6 6 7 6 7 8 9 10 10 10 10 11 12 13 13 13 14 14 15 15 15 15 15 15 15 16 16 15 15 15 14 14 14 13 13 14 15 15 15 16 16 15 15 16
5 5 5 6 6 6 6 6 5 6 9 9 9 9 9 10 10 11 12 13 13 14 14 15 15 15 15 15 15 15 15 15 15 15 15 15 14 14 13 13 13 14 14 15 15 16 15 15 15
4 4 5 5 6 6 5 5 6 7 10 9 9 9 9 9 10 10 11 12 13 13 14 14 15 14 14 15 15 15 14 14 15 15 15 15 16 14 13 13 13 13 14 15 15 15 15 15 15
4 3 4 5 5 5 6 5 4 11 9 9 10 10 11 11 10 10 10 11 13 13 13 13 14 14 14 14 14 14 14 14 14 15 15 14 15 15 15 13 13 13 13 14 14 14 14 14 14
3 3 3 6 6 7 7 5 7 10 9 8 9 10 10 10 10 10 10 10 12 12 13 13 13 14 14 14 14 14 14 14 15 15 14 15 15 15 14 15 14 14 12 13 13 13 14 15 14
2 1 2 4 6 6 6 5 6 8 8 7 7 9 10 10 10 9 10 10 10 12 13 13 13 13 14 14 14 14 13 14 14 15 15 15 15 15 13 14 15 14 13 12 13 13 14 14 14
3 3 4 3 5 6 5 5 6 7 7 6 7 8 9 9 10 9 9 10 10 11 13 13 13 13 13 13 13 13 13 14 14 14 15 15 15 14 13 13 13 13 13 12 12 13 13 13 14
5 5 6 6 6 5 4 5 6 7 7 6 6 6 8 9 11 10 10 10 10 11 11 13 13 13 13 13 13 13 14 14 14 14 14 14 14 13 12 12 12 13 12 11 12 12 12 13 13
4 4 4 6 6 5 5 6 7 7 7 7 7 6 7 8 10 10 10 10 10 11 10 12 13 13 13 13 14 13 13 13 13 13 13 13 12 11 12 12 12 13 12 11 11 12 12 13 13
3 3 4 6 7 6 6 4 5 7 6 7 7 7 7 8 9 10 10 9 10 10 11 11 12 13 13 14 13 13 12 12 12 13 12 11 11 11 12 12 13 13 11 11 12 11 12 13 13
4 5 6 8 7 6 7 6 7 5 5 6 6 6 7 8 8 9 10 10 11 11 11 12 12 13 13 13 13 13 13 12 12 12 11 11 11 11 11 11 12 12 12 11 11 12 13 13 12
6 7 5 5 6 6 7 6 6 6 5 6 6 6 7 8 9 10 10 11 11 11 11 12 12 12 12 12 12 12 11 11 11 11 11 11 11 11 11 11 10 12 11 12 13 13 14 13 13
6 5 6 5 6 6 6 6 5 6 5 5 6 7 7 7 8 10 10 10 11 11 12 12 12 12 12 12 11 11 11 11 11 10 11 11 11 11 11 11 11 11 10 11 12 13 13 13 13
6 6 4 4 6 6 7 7 6 5 5 7 7 7 7 6 6 7 8 9 10 11 11 11 11 11 11 11 10 10 10 10 11 11 10 10 10 11 11 11 11 11 11 11 11 12 12 12 11
7 6 6 6 5 7 7 6 6 5 5 7 7 6 6 7 5 6 7 8 10 11 11 11 11 11 11 9 9 10 10 10 10 10 10 10 10 10 10 11 10 10 11 11 11 11 11 11 12
7 7 6 7 6 7 7 6 6 5 4 6 6 5 5 6 4 4 6 7 8 10 10 10 10 10 10 10 10 10 10 10 10 10 10 10 10 10 10 10 10 11 11 11 11 12 12 12 11
6 6 7 7 8 8 8 6 5 4 3 4 5 4 4 5 6 4 4 6 7 8 9 9 9 9 9 9 9 9 9 10 10 10 10 9 10 9 10 10 10 10 10 10 11 10 10 10 11
7 7 7 7 6 7 8 7 3 3 3 3 4 3 3 3 4 6 6 5 7 7 7 7 7 8 9 9 9 9 9 9 9 9 9 9 9 10 10 10 10 10 10 10 10 10 10 10 10
6 6 7 6 7 6 6 7 5 4 4 5 4 4 5 5 5 5 5 5 5 5 7 7 6 8 8 9 8 9 8 8 9 9 9 9 10 9 10 9 9 9 10 9 10 10 10 9 9

GFSSGP_850_temp_117.txt.gz
Temp
13 14 14 15 14 13 13 13 13 14 15 15 16 16 18 18 20 20 18 18 17 17 18 17 17 17 17 17 17 17 17 17 17 16 16 17 16 16 16 16 16 14 14 14 13 13 15 14 16
14 14 14 14 13 13 15 12 13 14 14 15 16 17 17 19 17 17 17 16 17 17 17 17 17 18 17 17 17 17 17 17 17 17 17 17 16 16 16 16 15 15 14 14 14 15 15 16 16
13 14 14 12 11 14 15 11 13 13 14 15 16 16 16 14 16 17 17 17 16 17 16 16 17 17 17 17 17 17 16 17 17 17 17 16 16 16 15 15 15 15 15 16 16 16 16 16 16
13 14 11 12 11 11 12 12 12 13 14 15 15 16 15 14 15 16 17 17 17 17 17 16 17 17 17 17 17 17 17 17 17 16 16 16 16 16 15 15 15 15 16 16 16 16 16 16 16
13 13 10 10 10 10 10 11 12 13 13 14 15 15 15 15 15 15 17 17 16 17 17 17 17 16 16 17 17 17 17 17 16 16 16 16 16 15 15 15 16 16 17 17 16 16 16 16 16
11 10 10 11 10 9 10 11 11 12 13 14 14 14 15 15 16 16 16 16 16 16 17 17 15 16 16 16 16 17 17 16 16 16 16 16 16 15 15 15 15 16 17 17 16 16 16 16 16
9 9 10 8 9 10 11 10 11 12 12 13 13 14 15 15 15 15 15 16 16 15 15 16 16 16 16 16 16 16 16 16 16 16 16 16 16 15 15 15 15 16 16 16 16 16 16 16 16
10 8 8 8 9 11 9 10 11 11 12 12 13 13 14 15 15 15 15 15 16 16 15 15 15 16 16 16 16 16 16 16 16 15 15 15 15 15 15 15 15 15 16 16 16 16 16 16 16
9 8 8 9 8 10 8 9 10 10 10 11 12 12 13 14 15 15 15 15 15 15 15 15 15 15 15 16 16 15 15 16 16 16 15 15 15 15 15 15 15 15 16 16 16 16 16 16 16
7 7 8 7 7 8 7 8 8 9 9 10 11 13 13 13 14 14 15 15 15 15 15 15 15 15 15 15 15 15 15 16 16 16 15 15 15 15 15 14 14 15 15 16 16 16 15 16 16
5 7 6 7 7 7 7 7 7 8 8 9 10 12 12 12 12 13 14 14 14 14 15 15 15 15 15 15 15 15 15 15 15 15 15 15 15 14 14 14 14 14 15 15 15 15 15 15 16
6 6 6 6 6 6 6 6 6 7 8 10 9 9 9 10 11 12 13 13 14 14 14 15 15 15 15 15 15 15 15 15 15 15 15 15 15 14 14 14 14 14 14 15 15 15 15 15 15
5 5 5 6 6 6 6 5 6 6 10 9 9 9 8 10 11 11 12 13 14 14 14 15 15 15 15 15 15 15 15 15 15 15 15 15 15 15 14 14 14 13 14 14 15 15 15 15 15
4 4 4 5 6 5 5 6 5 8 10 10 9 9 10 10 11 11 11 12 13 14 14 14 14 15 15 15 15 15 15 15 14 14 15 15 15 15 15 14 14 13 13 14 14 14 15 14 14
4 5 4 5 5 5 5 5 5 11 8 9 10 10 10 11 11 11 11 11 12 13 14 14 14 14 14 15 15 15 15 14 14 14 15 14 14 14 14 14 15 15 14 13 13 13 14 14 14
3 3 6 6 6 6 6 8 8 9 8 8 9 10 10 10 11 11 10 10 11 12 12 13 13 13 14 14 14 14 14 14 14 14 14 14 14 14 14 14 14 14 13 14 13 13 13 13 13
3 5 4 5 5 6 6 6 6 9 8 7 7 8 9 10 11 11 11 10 10 11 12 12 13 13 13 13 13 13 13 13 14 14 14 14 14 14 14 14 14 13 13 13 13 13 12 13 13
4 3 4 4 5 6 5 5 6 6 7 7 7 7 7 8 10 11 11 10 10 10 11 11 12 12 13 13 13 13 13 13 14 14 14 14 14 15 15 15 14 13 13 13 13 12 13 12 12
4 4 4 5 6 5 5 5 7 7 7 7 6 6 7 8 9 9 10 10 10 10 10 11 11 12 12 12 12 12 13 14 14 14 14 14 14 15 15 15 14 14 13 12 12 12 11 11 12
3 3 4 5 6 5 6 7 8 7 7 6 7 7 7 7 8 10 10 10 10 10 10 11 11 12 12 12 13 13 14 14 14 14 14 14 14 14 14 14 14 13 12 12 12 12 11 11 11
3 3 4 5 6 7 7 6 6 7 6 7 8 7 7 7 7 9 10 10 10 10 10 10 10 11 12 12 12 12 12 13 13 14 14 14 13 14 13 11 12 12 12 12 12 12 12 11 11
4 5 5 5 6 6 8 7 6 6 6 7 6 6 6 7 8 9 10 10 10 10 10 10 10 10 12 12 12 11 13 13 14 14 13 13 12 11 12 11 11 12 12 12 12 12 11 11 12
6 6 5 5 6 6 7 6 7 7 7 5 5 6 7 7 6 8 9 10 10 10 10 10 11 11 11 12 12 11 12 12 12 12 12 12 12 12 11 11 11 11 11 12 11 11 11 11 11
6 5 5 5 6 7 7 6 6 6 5 5 6 7 6 5 5 7 9 10 10 11 11 11 11 11 12 12 12 11 12 12 12 11 11 11 11 11 11 11 11 11 11 11 11 11 11 11 12
5 6 4 5 7 6 7 7 7 5 5 5 7 6 6 5 5 5 7 8 10 11 11 11 11 12 12 12 12 12 12 12 11 11 10 11 11 11 11 11 11 11 11 10 10 11 11 11 12
7 7 5 6 6 6 7 6 6 5 4 4 5 4 4 4 4 3 6 7 8 10 11 11 12 12 12 11 11 11 12 11 10 10 10 10 10 11 10 10 11 11 10 10 10 10 10 10 10
6 7 7 7 7 7 7 6 6 5 4 4 4 4 3 4 3 3 4 7 9 10 10 10 11 11 11 11 11 11 11 10 10 10 10 10 10 10 10 10 10 10 10 10 10 10 10 10 10
6 7 7 7 7 7 8 6 5 4 3 3 4 4 3 4 3 3 3 6 7 9 8 9 10 10 10 10 9 10 10 10 10 10 10 10 9 10 9 10 10 10 10 10 10 10 10 10 10
6 6 6 7 7 8 8 6 4 3 4 4 4 4 3 4 3 3 4 5 5 6 6 7 8 9 9 9 9 10 10 9 9 9 9 9 9 10 10 10 10 9 9 9 9 10 10 10 10
6 6 6 7 8 6 6 7 6 6 5 4 4 4 5 4 4 4 4 4 4 5 5 5 6 6 7 7 8 8 8 9 9 9 9 9 9 9 9 9 9 9 9 9 9 9 9 10 9